     2.11           OBSERVATION DATA    G (GPS)             RINEX VERSION / TYPE
teqc 2010Oct21 OPUS Account 20111025 20:11:43UTC            PGM / RUN BY / DATE
Z 1524                                                      MARKER NAME
3005                                                        MARKER NUMBER
CSMIDDLETON NGS                                             OBSERVER / AGENCY
0220280359 TRIMBLE 5700 NP 2.32 / SP 2.32                   REC # / TYPE / VERS
11885611 TRM41249.00 NONE                                   ANT # / TYPE
  -739478.1350 -5484026.8005  3161249.6186                  APPROX POSITION XYZ
        1.9990        0.0000        0.0000                  ANTENNA: DELTA H/E/N
     1     1                                                WAVELENGTH FACT L1/2
     5    L1    L2    C1    P1    P2                        # / TYPES OF OBSERV
    15                                                      LEAP SECONDS
  2011     7    28     0     0   30.0000000     GPS         TIME OF FIRST OBS
                                                            END OF HEADER
 11  7 28  0  0 30.0000000  0  8G17G02G20G10G09G04G27G28
 -72398844.05957 -56363923.13355  21352531.7274                   21352528.9494
 -23788141.18057 -18479890.55555  22294575.5864                   22294573.6054
 -16645056.95355 -12794085.86352  24188126.5784                   24188126.3954
  -8316230.21556  -6222165.15253  23509138.1954                   23509139.0984
 -22934639.83657 -17828866.89554  22152482.9064                   22152481.5984
 -53518422.23858 -41649155.73056  19879195.1254                   19879193.2154
 -36270041.36757 -28214824.68455  22386545.2814                   22386544.8674
 -91188180.48457 -70185889.84855  21775353.6644                   21775350.9654
 11  7 28  0  1  0.0000000  0  8G17G02G20G10G09G04G27G28
 -72469572.24247 -56419036.01245  21339072.5554                   21339069.7624
 -23969384.76647 -18621119.21545  22260086.6174                   22260083.9774
 -16711806.47345 -12846098.51242  24175424.2194                   24175424.4924
  -8511602.33246  -6374402.95743  23471959.8284                   23471960.4844
 -23064317.24647 -17929914.21944  22127806.3674                   22127804.8714
 -53634400.03948 -41739528.03146  19857125.1724                   19857123.4024
 -36382558.92247 -28302500.73444  22365134.4144                   22365133.2734
 -91239634.44147 -70225983.88745  21765562.4064                   21765559.8674
 11  7 28  0  1 30.0000000  0  8G17G02G20G10G09G04G27G28
 -72540145.49647 -56474028.18445  21325642.9844                   21325640.3134
 -24150274.76247 -18762072.35545  22225664.3594                   22225662.1334
 -16778000.27345 -12897678.08242  24162827.5704                   24162828.6254
  -8706866.83246  -6526557.00843  23434802.1094                   23434802.9024
 -23193299.15647 -18030419.60244  22103261.6884                   22103260.5004
 -53749742.93448 -41829405.59046  19835176.2814                   19835174.7274
 -36494522.43747 -28389745.05944  22343828.4064                   22343827.3554
 -91290653.41047 -70265738.94944  21755854.3284                   21755851.4494
 11  7 28  0  2  0.0000000  0  8G17G02G20G10G09G04G27G28
 -72610580.91847 -56528912.95345  21312239.7194                   21312237.2774
 -24330827.01247 -18902762.31645  22191306.6954                   22191303.8874
 -16843656.32045 -12948838.62542  24150333.5634                   24150334.1524
  -8902037.68446  -6678638.06243  23397662.6094                   23397662.7974
 -23321601.70347 -18130395.59444  22078846.5634                   22078845.5394
 -53864468.44548 -41918802.08246  19813344.8674                   19813342.7194
 -36605949.41047 -28476571.30145  22322624.3984                   22322623.6764
 -91341254.50447 -70305168.40645  21746224.5164                   21746222.6334
 11  7 28  0  2 30.0000000  0  8G17G02G20G10G09G04G27G28
 -72680875.33247 -56583687.83245  21298862.4534                   21298860.3204
 -24511035.80947 -19043184.66045  22157013.7424                   22157011.4144
 -16908770.97745 -12999577.37542  24137942.5554                   24137942.8284
  -9097107.96946  -6830640.78143  23360541.6564                   23360542.3444
 -23449220.12547 -18229838.49244  22054561.4304                   22054560.3134
 -53978572.82048 -42007714.57446  19791631.5164                   19791629.6414
 -36716835.87547 -28562976.35944  22301523.7034                   22301522.6134
 -91391433.77747 -70344269.17645  21736675.5164                   21736673.6334
 11  7 28  0  3  0.0000000  0  8G17G02G20G10G09G04G27G28
 -72751028.73847 -56638352.84045  21285513.1804                   21285510.9024
 -24690900.27047 -19183338.69945  22122786.4454                   22122783.5744
 -16973345.19545 -13049894.93442  24125654.2114                   24125654.5394
  -9292074.23446  -6982562.40343  23323440.3984                   23323441.9184
 -23576154.21147 -18328748.16444  22030406.3524                   22030405.1644
 -54092056.61348 -42096143.48446  19770036.3594                   19770034.1134
 -36827181.85247 -28648960.25445  22280525.2814                   22280524.7234
 -91441191.07047 -70383041.11745  21727207.6884                   21727205.4924
 11  7 28  0  3 30.0000000  0  8G17G02G20G10G09G04G27G28
 -72821032.85247 -56692901.51245  21272191.5234                   21272189.3524
 -24870410.24647 -19323216.51245  22088626.9774                   22088623.7854
 -17037370.82846 -13099785.07042  24113471.6174                   24113471.6604
  -9486924.55946  -7134393.72343  23286362.0004                   23286362.9774
 -23702394.32447 -18427117.06644  22006384.2584                   22006382.9024
 -54204911.41847 -42184082.27746  19748560.8674                   19748558.7774
 -36936978.56647 -28734516.15244  22259631.6804                   22259630.8054
 -91490517.63747 -70421477.42644  21717821.1334                   21717818.5744
 11  7 28  0  4  0.0000000  0  8G17G02G20G10G09G04G27G28
 -71315465.73447 -55519732.32445  21558691.5634                   21558689.8444
 -23474138.65247 -18235212.58245  22354327.8914                   22354325.7584
 -15525426.66045 -11921646.73842  24401184.9064                   24401184.6254
  -8106229.83246  -6058527.59843  23549099.6254                   23549099.3324
 -22252516.25047 -17297341.92244  22282286.1334                   22282285.2274
 -52741713.98848 -41043928.42246  20026997.9384                   20026995.7274
 -35470802.67647 -27592041.44145  22538635.7504                   22538634.3874
 -89963992.12547 -69231977.07044  22008309.3284                   22008306.9654
 11  7 28  0  4 30.0000000  0  8G17G02G20G10G09G04G27G28
 -71385168.52747 -55574046.21145  21545427.6804                   21545425.5824
 -23652932.14147 -18374532.09445  22320305.2974                   22320302.0314
 -15588353.77745 -11970680.86742  24389209.9694                   24389209.3164
  -8300835.77746  -6210168.44943  23512066.5704                   23512067.2274
 -22377363.88747 -17394625.79744  22258528.9384                   22258527.8984
 -52853308.21947 -41130884.94546  20005762.2194                   20005760.0084
 -35579497.64547 -27676738.82445  22517951.9064                   22517950.8594
 -90012453.76247 -69269739.41845  21999087.0084                   21999085.5594
 11  7 28  0  5  0.0000000  0  8G17G02G20G10G09G04G27G28
 -71454716.74647 -55628239.62545  21532192.8834                   21532190.6134
 -23831361.18447 -18513567.62945  22286351.2504                   22286348.4804
 -15650728.41445 -12019284.54742  24377341.3674                   24377340.5474
  -8495310.10246  -6361706.73043  23475058.9534                   23475060.0474
 -22501510.50847 -17491363.41844  22234904.9224                   22234903.5204
 -52964268.50448 -41217347.48846  19984647.0474                   19984645.1484
 -35687637.84047 -27761003.91845  22497373.7504                   22497372.6484
 -90060478.75047 -69307161.52045  21989948.9774                   21989946.2664
 11  7 28  0  5 30.0000000  0  8G17G02G20G10G09G04G27G28
 -71524113.64147 -55682315.13745  21518987.2974                   21518985.0274
 -24009427.13747 -18652320.22745  22252466.8134                   22252463.0864
 -15712554.02746 -12067460.37542  24365575.3674                   24365575.1334
  -8689652.19146  -6513141.97743  23438076.7584                   23438077.8094
 -22624957.86747 -17587556.16844  22211413.4454                   22211412.1994
 -53074598.12947 -41303318.60946  19963652.2504                   19963649.7774
 -35795226.01246 -27844838.85945  22476900.3834                   22476898.9694
 -90108069.71947 -69344245.42245  21980892.7814                   21980890.1454
 11  7 28  0  6  0.0000000  0  8G17G02G20G10G09G04G27G28
 -71593359.28547 -55736272.79345  21505810.2584                   21505808.3164
 -24187128.89147 -18790789.04345  22218650.5164                   22218647.8634
 -15773831.53946 -12115209.09442  24353915.3834                   24353914.6454
  -8883859.29346  -6664472.03543  23401119.8834                   23401121.5594
 -22747705.46947 -17683203.64844  22188055.3754                   22188054.2424
 -53184297.68047 -41388798.76246  19942776.7664                   19942774.9574
 -35902262.62547 -27928244.00844  22456532.0554                   22456530.8244
 -90155227.07047 -69380991.44944  21971918.5084                   21971916.5514
 11  7 28  0  6 30.0000000  0  8G17G02G20G10G09G04G27G28
 -71662454.66447 -55790113.35245  21492661.8364                   21492659.6914
 -24364465.68747 -18928973.47745  22184904.7194                   22184901.5984
 -15834562.47346 -12162531.88342  24342357.5944                   24342357.6914
  -9077928.53546  -6815694.66043  23364190.0394                   23364190.6094
 -22869753.80147 -17778306.26644  22164830.0474                   22164829.1524
 -53293368.13348 -41473788.70346  19922021.8444                   19922019.4414
 -36008748.16047 -28011219.75444  22436268.2734                   22436266.9224
 -90201951.54747 -69417400.16845  21963027.3674                   21963025.4454
 11  7 28  0  7  0.0000000  0  8G17G02G20G10G09G04G27G28
 -71731399.59447 -55843836.68445  21479542.1484                   21479539.7854
 -24541435.94547 -19066872.28945  22151227.8594                   22151225.0234
 -15894747.32046 -12209429.23842  24330905.2734                   24330905.2734
  -9271856.78146  -6966807.44943  23327287.3754                   23327286.9804
 -22991102.37147 -17872863.60944  22141738.2274                   22141737.0164
 -53401809.66047 -41558288.58646  19901385.6644                   19901383.8404
 -36114682.91447 -28093766.30545  22416109.7424                   22416108.5314
 -90248242.53947 -69453471.12145  21954218.5084                   21954215.9454
 11  7 28  0  7 30.0000000  0  8G17G02G20G10G09G04G27G28
 -71800198.31647 -55897446.10245  21466450.0004                   21466447.3794
 -24718042.18047 -19204487.44145  22117621.2424                   22117618.0634
 -15954390.63346 -12255904.56643  24319554.6954                   24319554.9224
  -9465644.53946  -7117810.73443  23290410.0314                   23290410.6684
 -23111754.59447 -17966878.34844  22118779.6414                   22118777.6804
 -53509626.89848 -41642302.00446  19880868.9224                   19880866.8594
 -36220070.96147 -28175886.85945  22396055.0864                   22396053.6684
 -90294104.03547 -69489207.40644  21945491.2504                   21945489.0904
 11  7 28  0  8  0.0000000  0  8G17G02G20G10G09G04G27G28
 -71868850.72747 -55950941.49645  21453386.2114                   21453383.5204
 -24894282.57047 -19341817.52745  22084083.3674                   22084080.4844
 -16013493.03146 -12301958.39843  24308309.2114                   24308307.9024
  -9659287.96146  -7268701.58643  23253560.2274                   23253561.4184
 -23231709.57047 -18060349.77744  22095952.3754                   22095950.9384
 -53616819.75847 -41725828.89146  19860470.7274                   19860468.5084
 -36324911.92646 -28257581.12144  22376104.0864                   22376103.2034
 -90339535.77747 -69524608.79744  21936846.5164                   21936843.6724
 11  7 28  0  8 30.0000000  0  8G17G02G20G10G09G04G27G28
 -71937359.09047 -56004324.65645  21440349.6414                   21440347.1294
 -25070158.11747 -19478863.32445  22050615.4224                   22050612.4144
 -16072057.32846 -12347592.92643  24297164.6954                   24297163.7154
  -9852786.07046  -7419479.19943  23216740.1254                   23216739.6414
 -23350969.07847 -18153279.28944  22073257.3134                   22073256.4304
 -53723390.80147 -41808871.25046  19840190.6724                   19840188.8714
 -36429208.15647 -28338850.91044  22356257.9224                   22356256.4654
 -90384539.89547 -69559676.99244  21928281.9844                   21928279.5314
 11  7 28  0  9  0.0000000  0  8G17G02G20G10G09G04G27G28
 -72005722.93047 -56057595.18445  21427340.5004                   21427337.7664
 -25245667.48447 -19615623.78945  22017217.2344                   22017214.2934
 -16130084.25846 -12392808.72743  24286122.5554                   24286121.5044
 -10046135.28946  -7570140.82043  23179946.2584                   23179946.4064
 -23469532.52747 -18245666.43744  22050696.3204                   22050694.8794
 -53829340.57048 -41891429.50046  19820029.4534                   19820027.0044
 -36532959.73447 -28419696.29345  22336514.3134                   22336513.3014
 -90429116.28947 -69594411.88344  21919799.6804                   21919797.3164
 11  7 28  0  9 30.0000000  0  8G17G02G20G10G09G04G27G28
 -72073946.75847 -56110756.62945  21414357.8754                   21414355.6134
 -25420813.35247 -19752101.00845  21983887.7814                   21983884.6994
 -16187578.60946 -12437609.57842  24275181.7034                   24275180.2344
 -10239336.23846  -7720686.85543  23143180.9304                   23143181.5554
 -23587403.76647 -18337514.17244  22028265.7894                   22028264.9844
 -53934673.37947 -41973507.00446  19799985.3674                   19799982.7774
 -36636170.85947 -28500120.54345  22316873.7034                   22316872.7464
 -90473269.14547 -69628816.75844  21911397.5234                   21911395.5784
 11  7 28  0 10  0.0000000  0  8G17G02G20G10G09G04G27G28
 -72142029.76247 -56163808.33245  21401401.3674                   21401399.8244
 -25595593.60547 -19888293.33245  21950627.7664                   21950625.0124
 -16244540.27046 -12481995.25842  24264342.1724                   24264341.0164
 -10432384.53546  -7871113.97343  23106444.9844                   23106445.5704
 -23704581.59847 -18428821.59444  22005968.0004                   22005966.8094
 -54039389.34447 -42055103.85246  19780058.5164                   19780056.4804
 -36738841.09447 -28580123.33245  22297336.3984                   22297335.1564
 -90516997.52347 -69662890.86344  21903076.1564                   21903073.5234
 11  7 28  0 10 30.0000000  0  8G17G02G20G10G09G04G27G28
 -72209968.37147 -56216747.51645  21388473.8834                   21388471.2194
 -25770003.30147 -20024196.91845  21917438.8594                   21917435.8674
 -16300966.99646 -12525964.16843  24253605.3914                   24253603.1174
 -10625273.48046  -8021416.91443  23069738.8134                   23069740.0084
 -23821062.40647 -18519585.88744  21983802.3754                   21983800.9344
 -54143485.48048 -42136217.71546  19760249.7114                   19760247.3134
 -36840967.49247 -28659702.35245  22277902.3594                   22277901.2544
 -90560298.33247 -69696631.80144  21894836.4774                   21894834.1094
 11  7 28  0 11  0.0000000  0  8G17G02G20G10G09G04G27G28
 -72277764.21147 -56269575.45745  21375572.7034                   21375570.1644
 -25944042.27747 -20159811.62545  21884320.2274                   21884317.1954
 -16356860.44546 -12569517.53943  24242968.2194                   24242966.9654
 -10818000.61346  -8171593.82443  23033065.1414                   23033064.6414
 -23936847.02047 -18609807.69144  21961769.3284                   21961768.1414
 -54246963.19947 -42216849.68746  19740558.5634                   19740555.9774
 -36942551.10547 -28738858.42245  22258571.7894                   22258570.2854
 -90603172.30947 -69730040.13744  21886677.8204                   21886675.6804
 11  7 28  0 11 30.0000000  0  8G17G02G20G10G09G04G27G28
 -70769993.18747 -55094688.95345  21662491.8284                   21662489.7304
 -24542281.87547 -19067530.70745  22151066.3364                   22151063.7974
 -14836798.16846 -11385053.42243  24532226.5084                   24532225.1374
  -9435134.89846  -7094035.98043  23296215.3754                   23296215.0664
 -22476509.69947 -17471882.51644  22239662.2114                   22239661.4774
 -52774398.14848 -41069396.38746  20020778.0004                   20020775.8484
 -35468167.21547 -27589987.88345  22539137.8754                   22539136.4184
 -89070196.64147 -68535513.68444  22178393.0234                   22178390.8794
 11  7 28  0 12  0.0000000  0  8G17G02G20G10G09G04G27G28
 -70837497.66447 -55147289.85545  21649645.8674                   21649643.8914
 -24715570.06247 -19202560.38745  22118090.8834                   22118087.7274
 -14891622.60246 -11427773.81243  24521794.3134                   24521792.5744
  -9627523.39146  -7243949.00843  23259604.6334                   23259605.2504
 -22590895.80947 -17561014.56244  22217895.2114                   22217894.0274
 -52876635.93747 -41149062.18746  20001322.9454                   20001320.4304
 -35568660.77347 -27668294.54745  22520014.1564                   22520012.8984
 -89112212.32047 -68568253.22344  22170397.9304                   22170395.5744
 11  7 28  0 12 30.0000000  0  8G17G02G20G10G09G04G27G28
 -70904854.87147 -55199776.00445  21636828.5234                   21636826.3714
 -24888479.26647 -19337294.75845  22085187.2584                   22085184.0984
 -14945912.11346 -11470077.33243  24511463.1094                   24511462.3754
  -9819735.46146  -7393724.50843  23223028.0704                   23223028.0904
 -22704580.60247 -17649600.13344  22196262.0394                   22196260.4304
 -52978252.62547 -41228244.00846  19981985.9384                   19981983.7584
 -35668608.00847 -27746175.52745  22500994.8134                   22500994.0124
 -89153797.09047 -68600656.98444  22162484.5474                   22162482.8554
 11  7 28  0 13  0.0000000  0  8G17G02G20G10G09G04G27G28
 -70972067.91047 -55252149.80545  21624038.2274                   21624035.9384
 -25061011.49647 -19471735.37945  22052355.8054                   22052352.1214
 -14999670.73846 -11511967.18743  24501233.7194                   24501232.0274
 -10011770.96546  -7543362.44543  23186484.4694                   23186485.0984
 -22817567.29347 -17737641.70744  22174761.5164                   22174759.9614
 -53079252.28947 -41306945.03546  19962766.2194                   19962764.0394
 -35768012.56647 -27823633.64145  22482078.7664                   22482077.8204
 -89194954.64847 -68632727.86744  22154653.2194                   22154650.8204
 11  7 28  0 13 30.0000000  0  9G17G02G20G10G09G04G27G12G28
 -71039135.40647 -55304410.20745  21611275.9144                   21611273.3984
 -25233164.09047 -19605880.18745  22019596.2034                   22019592.9614
 -15052898.29346 -11553443.24642  24491104.0944                   24491103.3134
 -10203625.46146  -7692859.31243  23149976.1024                   23149976.1294
 -22929854.12947 -17825137.95344  22153393.9064                   22153392.6024
 -53179634.40647 -41385164.84846  19943663.8364                   19943662.0164
 -35866873.58247 -27900668.21145  22463266.2114                   22463265.3164
   2860390.99657   2275984.03553  24706710.5394                   24706710.1994
 -89235683.10247 -68664464.37544  22146902.7584                   22146900.2854
 11  7 28  0 14  0.0000000  0  9G17G02G20G10G09G04G27G12G28
 -71106063.81247 -55356562.21145  21598539.8594                   21598537.2194
 -25404941.95347 -19739733.00845  21986908.0314                   21986904.5124
 -15105601.69946 -11594510.78542  24481076.4384                   24481074.5634
 -10395301.60546  -7842217.24244  23113501.0784                   23113500.9964
 -23041447.52747 -17912093.84844  22132157.9694                   22132157.0204
 -53279406.02747 -41462908.96546  19924678.3364                   19924676.4264
 -35965197.50447 -27977284.27045  22444555.7974                   22444554.8094
   2663312.91047   2122416.68043  24669208.4304                   24669206.4574
 -89275989.48847 -68695872.00844  22139232.3444                   22139230.3404
 11  7 28  0 14 30.0000000  0  9G17G02G20G10G09G04G27G12G28
 -71172859.40647 -55408610.74245  21585829.2194                   21585826.5354
 -25576350.33247 -19873297.91445  21954289.4064                   21954286.3674
 -15157788.84846 -11635176.16843  24471145.1644                   24471143.7194
 -10586802.23846  -7991438.39843  23077059.6564                   23077060.0234
 -23152353.83247 -17998514.33644  22111053.5784                   22111051.6684
 -53378573.94947 -41540182.65246  19905807.2584                   19905805.0234
 -36062991.34047 -28053487.28544  22425946.3594                   22425945.3054
   2466259.94146   1968868.92643  24631710.0164                   24631708.4024
 -89315880.47347 -68726955.94544  22131641.2584                   22131639.5784
 11  7 28  0 15  0.0000000  0  9G17G02G20G10G09G04G27G12G28
 -71239522.99647 -55460556.41445  21573143.6644                   21573141.0044
 -25747388.88747 -20006574.64545  21921742.4304                   21921738.8094
 -15209461.03546 -11675440.25442  24461311.0704                   24461311.0984
 -10778124.61346  -8140520.62143  23040652.2504                   23040652.5744
 -23262573.87547 -18084400.08644  22090078.9924                   22090078.0474
 -53477139.82047 -41616987.21146  19887051.1094                   19887048.6214
 -36160256.09447 -28129278.02345  22407436.9534                   22407436.3524
   2269233.02346   1815341.43442  24594216.9384                   24594215.8444
 -89355356.73847 -68757716.73444  22124128.9614                   22124127.4454
 11  7 28  0 15 30.0000000  0  9G17G02G20G10G09G04G27G12G28
 -71306053.50047 -55512398.37945  21560483.0554                   21560480.4064
 -25918055.02347 -20139561.18445  21889265.2344                   21889261.6134
 -15260618.18745 -11715302.98042  24451576.1484                   24451576.5824
 -10969264.01246  -8289460.33243  23004279.2344                   23004279.2504
 -23372106.36347 -18169750.06244  22069235.6094                   22069234.4534
 -53575103.16047 -41693322.26646  19868409.0084                   19868407.0234
 -36256991.05147 -28204655.93045  22389029.1334                   22389028.2894
   2072234.93846   1661836.40242  24556729.1024                   24556728.3364
 -89394417.16047 -68788153.48444  22116696.6174                   22116694.4654
 11  7 28  0 16  0.0000000  0  9G17G02G20G10G09G04G27G12G28
 -71372450.60947 -55564136.39845  21547848.3134                   21547845.6684
 -26088347.64147 -20272256.65245  21856859.6174                   21856856.7154
 -15311261.49645 -11754765.35242  24441939.4924                   24441939.4064
 -11160216.93746  -8438254.69143  22967942.5314                   22967942.3094
 -23480950.99647 -18254564.07044  22048523.6414                   22048522.6174
 -53672464.69547 -41769188.37546  19849881.1564                   19849879.3324
 -36353196.54747 -28279621.27745  22370722.0004                   22370720.9844
   1875267.852 5                  24519248.031
 -89433062.02347 -68818266.40244  22109342.9454                   22109340.2194
 11  7 28  0 16 30.0000000  0  9G17G02G20G10G09G04G27G12G28
 -71438714.35247 -55615770.50045  21535238.3364                   21535235.7974
 -26258265.42647 -20404660.05945  21824525.3134                   21824522.0704
 -15361391.86745 -11793827.93442  24432398.8834                   24432399.3244
 -11350980.39146  -8586901.43444  22931641.5634                   22931640.9494
 -23589108.37147 -18338842.53144  22027942.1174                   22027940.5004
 -53769225.63347 -41844586.49246  19831468.3754                   19831466.7114
 -36448873.30947 -28354174.61345  22352515.3444                   22352514.6524
   1678333.484 5                  24481772.797
 -89471291.91446 -68848055.98444  22102067.6484                   22102065.3324
 11  7 28  0 17  0.0000000  0  9G17G02G20G10G09G04G27G12G28
 -71504843.95747 -55667300.08245  21522654.3444                   21522652.0944
 -26427806.53147 -20536769.94945  21792262.5944                   21792259.1684
 -15411009.840 5                  24422956.898
 -11541549.83646  -8735397.00043  22895376.5474                   22895376.5704
 -23696577.67647 -18422584.83644  22007491.0474                   22007489.7114
 -53865385.35548 -41919516.13346  19813169.8984                   19813168.0314
 -36544021.14147 -28428315.79744  22334409.1174                   22334408.6414
   1481434.469 5                  24444302.750
 -89509105.63747 -68877521.26644  22094872.1094                   22094869.6844
 11  7 28  0 17 30.0000000  0  9G17G02G20G10G09G04G27G12G28
 -71570838.22347 -55718724.18745  21510096.2584                   21510094.2624
 -26596968.19547 -20668584.16845  21760072.1334                   21760068.9184
 -15460115.336 5                  24413613.523
 -11731920.77746  -8883737.88343  22859150.0944                   22859149.9224
 -23803357.88747 -18505790.19544  21987171.5864                   21987170.5434
 -53960944.09447 -41993977.47346  19794986.1564                   19794983.7774
 -36638639.20347 -28502044.17244  22316404.1094                   22316403.1524
   1284574.051 5                  24406842.148
 -89546502.69547 -68906661.87544  22087755.8364                   22087753.2544
 11  7 28  0 18  0.0000000  0  9G17G02G20G10G09G04G27G12G28
 -71636697.85247 -55770043.39545  21497563.5164                   21497560.9104
 -26765750.66847 -20800102.91845  21727953.9384                   21727950.3714
 -15508709.934 5                  24404366.258
 -11922090.57846  -9031922.04343  22822961.9384                   22822962.5314
 -23909449.96547 -18588459.34444  21966983.2734                   21966982.2304
 -54055903.28547 -42067971.64146  19776915.8914                   19776913.6684
 -36732728.95347 -28575360.88344  22298499.6724                   22298498.3204
   1087753.11346   1454204.91853  24369387.9534                   24369387.2974
 -89583484.04747 -68935478.57444  22080718.4534                   22080716.2664
 11  7 28  0 18 30.0000000  0  9G17G02G20G10G09G04G27G12G28
 -71702422.84047 -55821257.68745  21485056.4844                   21485054.0944
 -26934152.82047 -20931325.30945  21695908.5474                   21695904.6684
 -15556795.148 5                  24395216.539
 -12112056.08646  -9179946.99644  22786813.0864                   22786812.6914
 -24014854.30547 -18670592.58644  21946924.7504                   21946923.9024
 -54150264.18747 -42141499.60546  19758959.6174                   19758957.4454
 -36826291.14147 -28648266.50444  22280695.7814                   22280694.2194
    890973.16046   1300869.96543  24331943.0704                   24331941.7584
 -89620049.98846 -68963971.55944  22073759.8444                   22073757.9344
 11  7 28  0 19  0.0000000  0  9G17G02G20G10G09G04G27G12G28
 -71768012.82447 -55872366.77345  21472575.2194                   21472572.8284
 -27102172.94947 -21062250.02745  21663934.7274                   21663931.2424
 -15604371.707 5                  24386162.945
 -12301813.02746  -9327809.44943  22750703.2584                   22750703.1024
 -24119570.52747 -18752189.63344  21926998.1804                   21926997.0474
 -54244026.94947 -42214561.48446  19741116.4694                   19741114.7344
 -36919325.81247 -28720761.07045  22262991.6024                   22262990.2704
    694236.89146   1147569.02744  24294505.2274                   24294504.3794
 -89656200.82846 -68992141.09444  22066880.4384                   22066879.2154
 11  7 28  0 19 30.0000000  0  9G17G02G20G10G09G04G27G12G28
 -70258044.30947 -54695767.93745  21759912.2664                   21759910.0944
 -25694383.16447 -19965270.91045  21931827.9144                   21931824.8984
 -14076017.973 5                  24676999.297
 -10915930.42646  -8247900.81643  23014428.1094                   23014427.5664
 -22648174.03547 -17605646.91844  22206995.5004                   22206994.3914
 -52761768.28947 -41059554.72346  20023181.3914                   20023179.3634
 -35436409.22347 -27565241.66445  22545181.1334                   22545179.4414
   2072973.74246   2221909.51244  24556869.9064                   24556868.9614
 -88116514.10947 -67792385.26244  22359873.3674                   22359871.8054
 11  7 28  0 20  0.0000000  0  9G17G02G20G10G09G04G27G12G28
 -70323361.65247 -54746664.57845  21747482.7974                   21747481.0124
 -25861633.46147 -20095595.75445  21900001.7114                   21899997.9224
 -14122578.262 5                  24668138.844
 -11105257.42646  -8395428.26643  22978400.2734                   22978399.8404
 -22751512.14147 -17686170.11744  22187331.0314                   22187329.6884
 -52854335.57848 -41131685.06646  20005566.7424                   20005563.9344
 -35528388.23447 -27636913.63744  22527677.7194                   22527677.1684
   1876332.55546   2068682.69144  24519450.2194                   24519449.1254
 -88151832.57846 -67819906.19944  22353152.5004                   22353151.1994
 11  7 28  0 20 30.0000000  0  9G17G02G20G10G09G04G27G12G28
 -70388543.30547 -54797455.49245  21735079.3204                   21735077.3244
 -26028498.15647 -20225620.12145  21868248.2194                   21868244.9414
 -14168633.309 5                  24659374.188
 -11294365.48046  -8542785.08243  22942414.3754                   22942414.0394
 -22854162.91847 -17766157.74644  22167797.4534                   22167796.1484
 -52946307.51248 -41203351.49246  19988064.6094                   19988062.2384
 -35619841.55547 -27708175.99245  22510275.3674                   22510274.1024
   1679740.74246   1915494.36343  24482040.2504                   24482038.5084
 -88186736.46947 -67847104.09044  22346511.0314                   22346509.1724
 11  7 28  0 21  0.0000000  0  9G17G02G20G10G09G04G27G12G28
 -70453590.42247 -54848141.57045  21722701.0164                   21722699.3874
 -26194977.47347 -20355344.19945  21836568.0944                   21836564.8984
 -14214185.246 5                  24650706.656
 -11483252.23446  -8689969.46543  22906469.4454                   22906469.4884
 -22956128.10947 -17845611.12144  22148393.5084                   22148392.7154
 -53037686.32047 -41274555.74646  19970675.8134                   19970673.6374
 -35710771.11747 -27779030.21144  22492971.7504                   22492970.6454
   1483198.91846   1762344.99243  24444639.1174                   24444637.9064
 -88221227.42646 -67873980.22744  22339947.1724                   22339945.6804
 11  7 28  0 21 30.0000000  0  9G17G02G20G10G09G04G27G12G28
 -70518503.11347 -54898722.89545  21710348.6334                   21710346.5664
 -26361069.65247 -20484766.62145  21804961.4924                   21804958.5824
 -14259235.137 6                  24642134.172
 -11671914.06646  -8836978.57243  22870567.8364                   22870568.3594
 -23057407.50847 -17924530.14144  22129121.1804                   22129119.6914
 -53128472.80547 -41345298.44946  19953399.6884                   19953397.3714
 -35801177.24647 -27849476.53544  22475767.9064                   22475766.6844
   1286709.62946   1609236.52043  24407249.5314                   24407247.4264
 -88255305.51647 -67900534.63744  22333463.1174                   22333461.1884
 11  7 28  0 22  0.0000000  0  8G17G02G10G09G04G27G12G28
 -70583279.28547 -54949197.85245  21698022.4534                   21698020.5234
 -26526772.67247 -20613885.79345  21773429.6414                   21773426.2274
 -11860345.60946  -8983808.22344  22834711.0864                   22834710.5784
 -23157999.93747 -18002913.84444  22109978.9144                   22109978.1954
 -53218666.46948 -41415579.23046  19936236.3674                   19936234.2424
 -35891059.02347 -27919514.30544  22458664.1334                   22458663.3164
   1090276.17646   1456171.55543  24369869.0554                   24369867.7624
 -88288969.56247 -67926766.41844  22327057.0944                   22327055.0354
 11  7 28  0 22 30.0000000  0  8G17G02G10G09G04G27G12G28
 -70647918.70747 -54999566.24645  21685722.1024                   21685719.7624
 -26692085.14547 -20742700.64145  21741971.6884                   21741967.9804
 -12048543.22746  -9130455.63343  22798897.9304                   22798897.5984
 -23257905.63347 -18080762.44544  22090967.5394                   22090966.2734
 -53308268.20748 -41485398.75846  19919185.8674                   19919183.5044
 -35980417.25447 -27989144.09444  22441660.1644                   22441658.5474
    893900.68446   1303151.74243  24332500.0234                   24332497.9414
 -88322219.40647 -67952675.45344  22320729.9844                   22320727.8874
 11  7 28  0 23  0.0000000  0  8G17G02G10G09G04G27G12G28
 -70712417.27347 -55049824.88745  21673448.5234                   21673445.8134
 -26857002.04347 -20871207.23845  21710589.1884                   21710585.7194
 -12236499.65646  -9276915.08244  22763131.1174                   22763131.2234
 -23357121.39147 -18158073.42244  22072087.5004                   22072086.3094
 -53397275.04348 -41554754.72746  19902248.3284                   19902246.0044
 -36069248.65647 -28058363.36344  22424755.1804                   22424754.6374
    697589.24246   1150181.81343  24295143.0474                   24295141.3484
 -88355052.21546 -67978259.50444  22314481.7194                   22314479.8754
 11  7 28  0 23 30.0000000  0  8G17G02G10G09G04G27G12G28
 -70776771.11347 -55099970.75045  21661201.7344                   21661199.7384
 -27021518.50047 -20999401.82045  21679282.3594                   21679278.6914
 -12424207.77746  -9423181.02744  22727411.5784                   22727411.4104
 -23455643.67247 -18234844.02344  22053339.0864                   22053338.3324
 -53485684.60248 -41623645.28546  19885424.6484                   19885422.1414
 -36157550.33247 -28127169.87544  22407952.2424                   22407951.1684
    501347.13346    997265.94543  24257799.0084                   24257797.8714
 -88387464.41846 -68003515.83244  22308314.1334                   22308311.9694
 11  7 28  0 24  0.0000000  0  8G17G02G10G09G04G27G12G28
 -70840976.24247 -55150000.73845  21648984.2034                   21648982.2584
 -27185629.54347 -21127280.48445  21648053.6094                   21648049.5704
 -12611659.96846  -9569247.57844  22691740.4144                   22691739.8754
 -23553469.39547 -18311071.85944  22034724.1254                   22034722.7154
 -53573493.76248 -41692068.00046  19868715.2274                   19868712.9454
 -36245319.10247 -28195561.14144  22391250.2584                   22391249.5234
    305180.35246    844408.82443  24220468.7894                   24220468.3204
 -88419452.43747 -68028441.62944  22302226.6334                   22302225.0314
 11  7 28  0 24 30.0000000  0  8G17G02G10G09G04G27G12G28
 -70905033.71547 -55199915.66845  21636794.8984                   21636792.7114
 -27349335.66047 -21254843.62145  21616900.5164                   21616897.2154
 -12798854.04746  -9715113.01244  22656118.7424                   22656118.2344
 -23650600.30547 -18386758.27744  22016239.8834                   22016239.2034
 -53660704.99647 -41760024.80946  19852119.2974                   19852117.1764
 -36332557.02047 -28263538.72344  22374649.9614                   22374648.5554
    109089.75846    691611.04342  24183153.7974                   24183153.0204
 -88451018.27746 -68053038.45344  22296219.7274                   22296218.2114
 11  7 28  0 25  0.0000000  0  8G17G02G10G09G04G27G12G28
 -70968947.53147 -55249718.65645  21624631.9694                   21624629.6804
 -27512639.95747 -21382093.66445  21585824.9304                   21585821.1684
 -12985790.75046  -9860777.88344  22620545.7664                   22620544.7464
 -23747041.05147 -18461906.91044  21997888.3834                   21997887.1174
 -53747323.67248 -41827519.87146  19835636.4384                   19835634.3364
 -36419269.09447 -28331106.58644  22358148.8524                   22358148.1914
    -86926.42646    538871.25843  24145854.1884                   24145852.2194
 -88482166.37946 -68077309.77744  22290292.0394                   22290291.4264
 11  7 28  0 25 30.0000000  0  8G17G02G10G09G04G27G12G28
 -71032718.36347 -55299410.22745  21612497.3284                   21612495.0904
 -27675542.24247 -21509030.44145  21554825.6334                   21554821.4534
 -13172467.38746 -10006240.10944  22585022.0704                   22585022.1094
 -23842793.00847 -18536518.81244  21979667.4144                   21979665.5394
 -53833351.76648 -41894554.75046  19819265.7504                   19819263.5124
 -36505457.07047 -28398266.06244  22341747.9694                   22341747.0164
   -282867.59046    386189.93043  24108566.8134                   24108565.8244
 -88512897.96947 -68101256.53144  22284445.5164                   22284443.8054
 11  7 28  0 26  0.0000000  0  8G17G02G10G09G04G27G12G28
 -71096345.27747 -55348989.66445  21600389.8204                   21600387.2584
 -27838040.78947 -21635652.62145  21523902.7734                   21523899.1174
 -13358879.79346 -10151496.43044  22549549.2114                   22549549.0124
 -23937856.17647 -18610593.99644  21961577.3674                   21961576.1764
 -53918789.80948 -41961129.84046  19803007.5394                   19803005.3164
 -36591121.12547 -28465017.27345  22325446.6484                   22325445.5784
   -478730.85946    233569.29343  24071295.4064                   24071294.7854
 -88543212.91447 -68124878.63344  22278676.4924                   22278674.2114
 11  7 28  0 26 30.0000000  0  8G17G02G10G09G04G27G12G28
 -71159832.05947 -55398459.89845  21588308.2274                   21588306.1994
 -28000139.07447 -21761962.90645  21493056.4384                   21493053.2854
 -13545028.22746 -10296547.05544  22514125.9144                   22514125.8984
 -24032235.28547 -18684136.14544  21943618.0554                   21943616.3014
 -54003643.07048 -42027249.25846  19786859.9224                   19786857.9964
 -36676266.26647 -28531364.13744  22309243.9224                   22309243.1684
   -674518.10546     81007.88343  24034037.9844                   24034037.7384
 -88573115.81647 -68148179.65644  22272986.3204                   22272984.0554
 11  7 28  0 27  0.0000000  0  8G17G02G10G09G04G27G12G28
 -71223174.77747 -55447817.87545  21576255.1484                   21576252.6564
 -28161831.75047 -21887957.14145  21462287.4774                   21462284.4574
 -13730905.62546 -10441386.51644  22478754.8284                   22478753.8634
 -24125927.20747 -18757142.82444  21925788.2734                   21925787.0394
 -54087908.92648 -42092910.95346  19770824.8754                   19770822.9694
 -36760889.44947 -28597304.30544  22293140.7504                   22293139.7894
   -870223.44946    -71489.74643  23996797.1094                   23996795.1174
 -88602603.30947 -68171156.96944  22267374.6564                   22267372.7704
 11  7 28  0 27 30.0000000  0  8G17G02G10G09G04G27G12G28
 -69710954.11747 -54269464.12145  21864020.4304                   21864018.6214
 -26747695.43747 -20786032.67245  21731388.5234                   21731385.1884
 -12341084.89846  -9358409.23844  22743229.1414                   22743227.9384
 -22643512.47747 -17602014.44544  22207882.9614                   22207881.8244
 -52596168.66848 -40930515.93046  20054694.0864                   20054692.0354
 -35269571.61347 -27435238.46145  22576928.8444                   22576927.7704
    509578.65646   1003680.76243  24259365.2194                   24259363.9964
 -87056257.75847 -66966212.45344  22561635.2034                   22561632.9574
 11  7 28  0 28  0.0000000  0  8G17G02G10G09G04G27G12G28
 -69774017.57847 -54318604.48445  21852020.2584                   21852018.2544
 -26908584.16047 -20911400.43745  21700772.6724                   21700769.1524
 -12526419.43046  -9502825.64844  22707960.3204                   22707960.2274
 -22735841.94147 -17673959.47744  22190312.6644                   22190311.6024
 -52679273.09848 -40995272.62146  20038879.2424                   20038877.2074
 -35353163.52047 -27500375.02044  22561021.9924                   22561021.1334
    314033.16446    851307.72743  24222153.9694                   24222152.6484
 -87084925.87947 -66988551.30144  22556179.3594                   22556178.0084
 11  7 28  0 28 30.0000000  0  8G17G02G10G09G04G27G12G28
 -69836940.68047 -54367635.48045  21840046.3524                   21840044.2774
 -27069069.02047 -21036453.52045  21670233.1414                   21670229.5234
 -12711476.63746  -9647025.96543  22672745.7274                   22672745.5204
 -22827490.77747 -17745374.13744  22172871.8914                   22172871.4534
 -52761797.97748 -41059577.70746  20023175.3834                   20023173.3164
 -35436240.55947 -27565110.38344  22545213.0944                   22545212.1524
    118571.48646    699000.01643  24184958.5004                   24184957.0984
 -87113184.70347 -67010571.22344  22550801.8594                   22550800.5514
 11  7 28  0 29  0.0000000  0  8G17G02G10G09G04G27G12G28
 -69899727.78547 -54416560.49245  21828098.2974                   21828096.2384
 -27229153.54347 -21161194.64545  21639770.4384                   21639766.9224
 -12896257.42246  -9791010.92244  22637582.9064                   22637581.9574
 -22918464.34847 -17816262.63344  22155560.3594                   22155559.5004
 -52843749.25448 -41123435.84046  20007580.6094                   20007578.7894
 -35518808.31247 -27629448.89544  22529500.9454                   22529499.8524
    -76808.59846    546755.87543  24147779.4694                   24147777.5664
 -87141039.11747 -67032276.03144  22545501.8984                   22545499.7194
 11  7 28  0 29 30.0000000  0  8G17G02G10G09G04G27G12G28
 -69962373.79747 -54465375.58645  21816177.3054                   21816174.8524
 -27388832.38747 -21285619.65645  21609384.2974                   21609380.6994
 -13080753.77746  -9934774.23844  22602473.7194                   22602473.4384
 -23008759.07047 -17886622.14144  22138378.3754                   22138377.2304
 -52925123.69148 -41186844.47746  19992095.8134                   19992093.5634
 -35600863.27347 -27693387.84044  22513887.0394                   22513885.3634
   -272100.82046    394580.16443  24110615.7584                   24110614.9064
 -87168485.27347 -67053662.69944  22540278.7664                   22540276.9534
 11  7 28  0 30  0.0000000  0  8G17G02G10G09G04G27G12G28
 -70024878.89147 -54514080.85545  21804282.4924                   21804280.3014
 -27548104.96547 -21409728.10245  21579075.8674                   21579072.3484
 -13264962.99646 -10078313.79344  22567419.5634                   22567419.4104
 -23098376.17647 -17956453.64844  22121324.7584                   22121323.3364
 -53005923.07848 -41249805.03146  19976720.0554                   19976717.8794
 -35682406.93447 -27756928.34844  22498369.1564                   22498368.1764
   -467303.48046    242474.25843  24073468.3134                   24073468.2274
 -87195524.34446 -67074732.17644  22535132.9844                   22535131.4344
 11  7 28  0 30 30.0000000  0  8G17G02G10G09G04G27G12G28
 -70087243.85947 -54562676.94545  21792414.7894                   21792412.6024
 -27706971.10247 -21533519.83645  21548844.2194                   21548840.6524
 -13448881.80946 -10221627.08243  22532421.9694                   22532421.2154
 -23187317.18747 -18025758.34844  22104400.2424                   22104398.8984
 -53086149.16848 -41312318.85546  19961453.5634                   19961451.4534
 -35763440.65647 -27820071.52344  22482948.6954                   22482947.8164
   -662414.72746     90439.60244  24036342.0314                   24036340.2774
 -87222157.40646 -67095485.27044  22530064.9694                   22530063.3594
 11  7 28  0 31  0.0000000  0  8G17G02G10G09G04G27G12G28
 -70149467.74647 -54611163.10245  21780574.2504                   21780571.9884
 -27865429.51647 -21656993.87545  21518690.5784                   21518686.6134
 -13632506.35246 -10364711.04744  22497478.9454                   22497478.5354
 -23275582.69147 -18094536.64844  22087603.0784                   22087602.8244
 -53165803.32448 -41374387.02046  19946295.8834                   19946293.5824
 -35843965.07047 -27882817.81244  22467625.9384                   22467624.4104
   -857432.05546    -61521.89843  23999229.9064                   23999229.4694
 -87248384.55146 -67115922.07044  22525074.1484                   22525072.1334
 11  7 28  0 31 30.0000000  0  8G17G02G10G09G04G27G12G28
 -70211550.37547 -54659539.19145  21768760.3754                   21768757.8954
 -28023479.32847 -21780149.52345  21488614.7894                   21488611.0004
 -13815833.13346 -10507563.00444  22462592.9694                   22462592.0864
 -23363173.75847 -18162789.41844  22070935.6564                   22070934.2194
 -53244886.76247 -41436010.47346  19931246.5394                   19931244.6024
 -35923981.61747 -27945168.38344  22452399.1024                   22452397.9144
  -1052353.64546   -213408.83243  23962137.7814                   23962136.7544
 -87274206.80546 -67136043.35244  22520160.8984                   22520159.1214
 11  7 28  0 32  0.0000000  0  8G17G02G10G09G04G27G12G28
 -70273492.59047 -54707805.86745  21756973.2584                   21756970.3874
 -28181121.12147 -21902987.23045  21458616.6334                   21458613.3484
 -13998859.85946 -10650181.16844  22427763.9454                   22427763.1684
 -23450092.43447 -18230518.26644  22054395.7194                   22054393.9804
 -53323402.21148 -41497191.34046  19916306.0394                   19916303.5124
 -36003492.67247 -28007125.05144  22437268.8914                   22437267.6524
  -1247178.54346   -365220.38743  23925064.5234                   23925062.6054
 -87299625.84446 -67155850.47343  22515323.5004                   22515321.6604
 11  7 28  0 32 30.0000000  0  8G17G02G10G09G04G27G12G28
 -70335297.31647 -54755965.41445  21745212.2894                   21745209.7854
 -28338357.05547 -22025508.68745  21428695.3364                   21428691.7814
 -14181586.25046 -10792565.28144  22392992.2584                   22392991.1414
 -23536342.58647 -18297726.17644  22037982.6414                   22037981.7704
 -53401353.90248 -41557932.90646  19901471.9924                   19901469.7704
 -36082502.37147 -28068691.04744  22422233.3834                   22422232.3874
  -1441907.45346   -516957.12943  23888008.5004                   23888007.3984
 -87324645.71546 -67175346.54744  22510562.5554                   22510561.1764
 11  7 28  0 33  0.0000000  0  8G17G02G10G09G04G27G12G28
 -70396964.57847 -54804017.84845  21733477.3524                   21733474.7814
 -28495186.81247 -22147713.63745  21398851.6724                   21398848.0904
 -14364009.05946 -10934712.84044  22358278.4694                   22358277.9924
 -23621925.64847 -18364414.28144  22021696.5634                   22021695.3404
 -53478743.67247 -41618236.62146  19886745.0784                   19886743.4064
 -36161012.19947 -28129867.55144  22407293.4694                   22407292.3244
  -1636538.80146   -668617.85243  23850971.3594                   23850970.4344
 -87349267.22347 -67194532.19544  22505877.6254                   22505875.7584
 11  7 28  0 33 30.0000000  0  8G17G02G10G09G04G27G12G28
 -70458496.96147 -54851965.17245  21721768.3364                   21721765.5234
 -28651612.50847 -22269603.73445  21369085.1804                   21369081.4734
 -14546127.71146 -11076623.42244  22323622.3594                   22323621.8404
 -23706845.95747 -18430585.96544  22005536.7274                   22005535.6884
 -53555576.07048 -41678106.02346  19872124.6334                   19872122.6804
 -36239026.48047 -28190657.91444  22392448.9614                   22392447.1644
  -1831073.01246   -820202.88343  23813952.6174                   23813950.6134
 -87373494.27347 -67213410.48844  22501267.1334                   22501265.8524
 11  7 28  0 34  0.0000000  0  8G17G02G10G09G04G27G12G28
 -70519894.05947 -54899807.09045  21710084.4384                   21710081.9734
 -28807632.98447 -22391178.08645  21339394.9454                   21339391.4224
 -14727938.42646 -11218294.00844  22289024.9844                   22289024.3874
 -23791104.50847 -18496241.98044  21989503.3674                   21989501.4384
 -53631852.30147 -41737542.05146  19857609.4304                   19857607.5474
 -36316546.00447 -28251062.74644  22377696.4614                   22377695.7734
  -2025507.98446   -971710.62943  23776953.0394                   23776951.2154
 -87397327.18446 -67231981.64544  22496731.6414                   22496730.2934
 11  7 28  0 34 30.0000000  0  8G17G02G10G09G04G27G12G28
 -70581158.71547 -54947545.80145  21698426.8834                   21698424.2274
 -28963251.00447 -22512438.82845  21309782.0704                   21309778.1994
 -14909441.33646 -11359724.79344  22254486.2584                   22254485.1134
 -23874705.58647 -18561385.68444  21973594.3914                   21973593.7624
 -53707577.25448 -41796548.51646  19843199.4774                   19843197.3594
 -36393575.32847 -28311085.60944  22363039.1094                   22363037.9064
  -2219845.14546  -1123142.09843  23739971.7664                   23739970.1804
 -87420770.40146 -67250249.17344  22492270.4774                   22492269.1134
 11  7 28  0 35  0.0000000  0  8G17G02G10G09G04G27G12G28
 -70642290.16047 -54995180.71545  21686793.5314                   21686791.3364
 -29118464.84447 -22633384.62145  21280246.1414                   21280241.8634
 -15090631.78546 -11500912.08644  22220006.4534                   22220005.7934
 -23957649.63347 -18626017.41844  21957810.8594                   21957809.4884
 -53782751.49247 -41855125.83646  19828894.2344                   19828892.0554
 -36470114.64547 -28370726.64544  22348473.8204                   22348472.6884
  -2414081.04746  -1274494.68043  23703010.0474                   23703008.5164
 -87443823.38746 -67268212.61343  22487883.3594                   22487882.6174
 11  7 28  0 35 30.0000000  0  8G17G02G10G09G04G27G12G28
 -69127867.94147 -53815111.47745  21974978.1484                   21974976.1334
 -27697850.80547 -21526412.59045  21550579.6024                   21550575.5124
 -13696082.48846 -10414250.23644  22485380.3594                   22485379.4104
 -22464517.29747 -17462537.65244  22241944.2974                   22241942.8554
 -52281956.14548 -40685674.91446  20114486.3674                   20114484.3984
 -34970745.03147 -27202386.69944  22633793.7734                   22633793.2274
  -1032789.22346   -198163.27343  23965861.3524                   23965859.5514
 -85891068.16446 -66058273.53943  22783363.1954                   22783362.2274
 11  7 28  0 36  0.0000000  0  8G17G02G10G09G04G27G12G28
 -69188738.07047 -53862542.77345  21963395.6644                   21963393.4924
 -27852260.59447 -21646731.85945  21521196.5634                   21521192.7194
 -13876644.11346 -10554947.55144  22451020.5394                   22451019.5704
 -22546157.00047 -17526153.02344  22226409.1724                   22226407.7074
 -52356039.75847 -40743402.40246  20100388.6484                   20100386.7194
 -35046314.86346 -27261272.30944  22619413.5394                   22619412.9534
  -1226822.28546   -349357.83243  23928937.8594                   23928935.8164
 -85913349.59046 -66075635.74643  22779123.2424                   22779121.8794
 11  7 28  0 36 30.0000000  0  8G17G02G10G09G04G27G12G28
 -69249474.82447 -53909870.12145  21951837.0164                   21951835.5044
 -28006265.13747 -21766735.34845  21491889.9144                   21491886.5274
 -14056884.00046 -10695394.15244  22416722.1174                   22416721.3484
 -22627144.18747 -17589259.93044  22210996.9774                   22210996.0044
 -52429578.29748 -40800705.16846  20086394.5864                   20086392.9104
 -35121399.56247 -27319779.87144  22605125.2814                   22605124.6054
  -1420748.18046   -500468.80544  23892034.6094                   23892033.7114
 -85935244.24647 -66092696.59843  22774957.1724                   22774955.5514
 11  7 28  0 37  0.0000000  0  8G17G02G10G09G04G27G12G28
 -69310079.07847 -53957094.23445  21940304.3204                   21940302.5984
 -28159865.09447 -21886423.56645  21462660.9454                   21462657.5944
 -14236800.07046 -10835588.42644  22382484.7814                   22382484.0944
 -22707481.91047 -17651860.75444  22195709.5704                   22195708.1414
 -52502574.82848 -40857585.58646  20072503.9304                   20072501.9414
 -35196001.98447 -27377911.64544  22590928.5784                   22590928.4884
  -1614566.70746   -651496.14144  23855152.2734                   23855151.0234
 -85956754.59446 -66109457.96544  22770864.2424                   22770862.4344
 11  7 28  0 37 30.0000000  0  8G17G02G10G09G04G27G12G28
 -69370549.52347 -54004214.08245  21928797.8364                   21928795.1804
 -28313058.73047 -22005795.18745  21433509.0704                   21433505.4654
 -14416387.58646 -10975526.68044  22348310.7504                   22348309.6764
 -22787170.05547 -17713955.42244  22180545.6884                   22180544.6844
 -52575029.64547 -40914043.89546  20058716.3984                   20058714.3204
 -35270122.22747 -27435667.70744  22576825.0234                   22576823.8594
  -1808274.42246   -802437.14844  23818290.6724                   23818289.9384
 -85977880.24246 -66125919.60244  22766844.6334                   22766843.1414
 11  7 28  0 38  0.0000000  0  8G17G02G10G09G04G27G12G28
 -69430885.18047 -54051228.89845  21917316.2194                   21917313.8524
 -28465844.25447 -22124848.79345  21404435.2664                   21404431.3484
 -14595642.19146 -11115205.53944  22314199.7584                   22314198.4774
 -22866209.00447 -17775544.20344  22165504.6024                   22165503.6684
 -52646943.44148 -40970080.62146  20045031.4144                   20045029.1914
 -35343760.55147 -27493048.25444  22562811.3364                   22562810.3244
  -2001867.72746   -953288.98444  23781450.9774                   23781449.8364
 -85998620.84046 -66142081.18043  22762897.8054                   22762896.5394
 11  7 28  0 38 30.0000000  0  8G17G02G10G09G04G27G12G28
 -69491085.92647 -54098138.60245  21905860.5394                   21905857.9184
 -28618221.95747 -22243584.61745  21375438.4454                   21375435.0784
 -14774561.22747 -11254622.89144  22280152.3834                   22280151.0124
 -22944600.62947 -17836628.59444  22150587.3524                   22150586.2384
 -52718318.31647 -41025697.41846  20031449.2814                   20031447.3984
 -35416919.08247 -27550054.93044  22548890.0314                   22548889.0164
  -2195345.29746  -1104050.64544  23744633.4224                   23744632.0984
 -86018978.07846 -66157944.03544  22759024.0004                   22759022.4534
 11  7 28  0 39  0.0000000  0  8G17G02G10G09G04G27G12G28
 -69551153.14147 -54144944.24645  21894429.8674                   21894427.6414
 -28770192.53547 -22362003.19145  21346519.6414                   21346515.6054
 -14953142.43447 -11393777.02744  22246169.2734                   22246169.0354
 -23022348.12147 -17897211.04344  22135792.6884                   22135791.2624
 -52789157.60247 -41080896.84446  20017968.7584                   20017967.0354
 -35489600.79747 -27606690.05944  22535059.1174                   22535058.2344
  -2388706.25446  -1254721.41844  23707838.2424                   23707836.8754
 -86038954.66846 -66173510.28943  22755221.3754                   22755220.8094
 11  7 28  0 39 30.0000000  0  8G17G02G10G09G04G27G12G28
 -69611083.93447 -54191643.59445  21883025.8134                   21883023.5314
 -28921752.89547 -22480102.12945  21317678.5234                   21317674.6524
 -15131380.21547 -11532663.53944  22212252.3754                   22212251.2664
 -23099450.51647 -17957290.82444  22121120.2664                   22121119.1094
 -52859460.64147 -41135678.44546  20004590.6884                   20004588.5354
 -35561804.78547 -27662952.93444  22521319.3914                   22521318.7734
  -2581945.92246  -1405297.73844  23671065.8914                   23671064.1334
 -86058549.00446 -66188778.70743  22751492.5004                   22751492.5704
 11  7 28  0 40  0.0000000  0  8G17G02G10G09G04G27G12G28
 -69670878.51247 -54238236.80945  21871646.7504                   21871644.4384
 -29072903.04347 -22597881.41445  21288915.4224                   21288911.4064
 -15309271.44947 -11671280.01244  22178400.4064                   22178399.0314
 -23175909.82847 -18016869.50444  22106571.3984                   22106569.9494
 -52929229.34448 -41190043.66046  19991314.4064                   19991312.3874
 -35633532.96547 -27718845.04344  22507669.7974                   22507669.0944
  -2775062.46546  -1555778.10944  23634316.8834                   23634314.8984
 -86077762.42646 -66203750.28143  22747836.5704                   22747836.1764
 11  7 28  0 40 30.0000000  0  8G17G02G10G09G04G27G12G28
 -69730539.16847 -54284725.65645  21860294.1484                   21860291.9734
 -29223645.04747 -22715342.66045  21260230.2974                   21260226.4264
 -15486815.64846 -11809626.09844  22144615.3444                   22144613.5274
 -23251730.01647 -18075950.18744  22092142.8134                   22092141.5634
 -52998468.18747 -41243996.00846  19978138.4694                   19978136.8594
 -35704789.32447 -27774369.50444  22494110.1414                   22494109.5204
  -2968056.26646  -1706162.81644  23597591.0084                   23597590.2074
 -86096598.31246 -66218427.68743  22744252.7504                   22744251.7894
 11  7 28  0 41  0.0000000  0  8G17G02G10G09G04G27G12G28
 -69790064.53547 -54331109.08645  21848966.9844                   21848964.1414
 -29373977.18047 -22832484.53946  21231623.1564                   21231619.0314
 -15664008.37146 -11947698.27744  22110896.5004                   22110894.7464
 -23326911.43047 -18134533.10944  22077835.5554                   22077834.7814
 -53067177.73847 -41297535.91046  19965063.8594                   19965061.7854
 -35775574.28946 -27829526.64844  22480639.9384                   22480639.2074
  -3160924.12146  -1856449.40243  23560889.5004                   23560888.2154
 -86115056.68446 -66232810.90643  22740740.4534                   22740739.2234
 11  7 28  0 41 30.0000000  0  8G17G02G10G09G04G27G12G28
 -69849455.14847 -54377387.52045  21837664.8284                   21837662.3134
 -29523900.03947 -22949307.49245  21203093.4144                   21203089.3054
 -15840846.85946 -12085494.45744  22077244.3204                   22077243.4774
 -23401456.71147 -18192620.34044  22063650.7034                   22063649.6024
 -53135360.68748 -41350665.46946  19952088.6094                   19952086.2934
 -35845890.25847 -27884318.33244  22467259.6414                   22467258.7734
  -3353664.62546  -2006636.75444  23524212.7814                   23524210.3094
 -86133139.46146 -66246901.42643  22737300.4694                   22737298.0474
 11  7 28  0 42  0.0000000  0  8G17G02G10G09G04G27G12G28
 -69908715.73047 -54423564.62945  21826388.5554                   21826385.8594
 -29673417.81647 -23065814.80545  21174640.7974                   21174637.2624
 -16017332.52346 -12223015.69144  22043660.4924                   22043659.1564
 -23475372.46947 -18250217.04744  22049584.9224                   22049583.3834
 -53203023.84848 -41403390.01246  19939213.2664                   19939211.0004
 -35915743.50447 -27938749.47344  22453966.9534                   22453966.4494
  -3546280.55547  -2156727.03544  23487558.7894                   23487557.4184
 -86150852.28946 -66260703.68743  22733929.5084                   22733927.3954
 11  7 28  0 42 30.0000000  0  8G17G02G10G09G04G27G12G28
 -69967842.18447 -54469637.20745  21815136.8524                   21815134.3014
 -29822526.62147 -23182003.43445  21146267.0784                   21146263.1294
 -16193458.83646 -12360256.90244  22010144.4774                   22010143.9614
 -23548656.73847 -18307321.67644  22035639.7424                   22035638.3054
 -53270165.37548 -41455708.07846  19926436.1954                   19926434.0474
 -35985132.14547 -27992818.57844  22440762.6174                   22440762.3914
  -3738765.78947  -2306715.45744  23450930.2114                   23450928.3404
 -86168193.35946 -66274216.27043  22730629.8674                   22730627.8954
 11  7 28  0 43  0.0000000  0  8G17G02G10G09G04G27G12G28
 -70026835.01247 -54515605.67245  21803910.7274                   21803908.3524
 -29971226.70747 -23297873.59046  21117970.3524                   21117966.5514
 -16369223.14146 -12497216.05144  21976697.3594                   21976696.8594
 -23621311.93747 -18363936.12944  22021813.5164                   22021812.5474
 -53336787.58647 -41507621.48446  19913758.4304                   19913756.3164
 -36054058.57846 -28046527.52744  22427646.5084                   22427645.4614
  -3931118.78547  -2456600.85544  23414326.1724                   23414324.5904
 -86185163.91446 -66287440.16443  22727400.1174                   22727398.9454
 11  7 28  0 43 30.0000000  0  8G17G02G10G09G04G27G12G28
 -68510268.74647 -53333865.75445  22092503.4694                   22092501.5434
 -28544089.70747 -22185818.74245  21389545.4064                   21389541.4614
 -14969193.30946 -11406283.66044  22243114.7584                   22243113.4884
 -22117914.75447 -17192457.80944  22307900.6484                   22307898.9774
 -51827467.52747 -40331527.93046  20200972.2344                   20200970.4614
 -34547099.43447 -26872273.68444  22714411.3524                   22714410.7854
  -2547908.23846  -1378774.39844  23677542.3364                   23677541.0394
 -84626342.05946 -65072773.85243  23024033.9384                   23024033.0594
 11  7 28  0 44  0.0000000  0  8G17G02G10G09G04G27G12G28
 -68568988.53947 -53379621.46545  22081329.7664                   22081327.5664
 -28691966.14547 -22301047.09445  21361404.9844                   21361401.1724
 -15144218.79747 -11542667.09444  22209808.0554                   22209807.2974
 -22189312.48447 -17248092.42644  22294313.3134                   22294312.6844
 -51893052.54748 -40382633.13746  20188492.3914                   20188490.0474
 -34615101.82046 -26925262.59844  22701470.7974                   22701470.3754
  -2739985.73446  -1528445.07444  23640991.1804                   23640989.1884
 -84642570.38746 -65085419.36343  23020944.6884                   23020944.5744
 11  7 28  0 44 30.0000000  0  8G17G02G10G09G04G27G12G28
 -68627571.46147 -53425270.51645  22070182.2734                   22070179.9804
 -28839430.30147 -22415954.18045  21333343.4844                   21333339.7584
 -15318869.69147 -11678758.64144  22176573.1644                   22176572.1294
 -22260084.04347 -17303239.10244  22280846.3594                   22280845.3404
 -51958121.63748 -40433336.31246  20176109.9454                   20176107.9494
 -34682644.60947 -26977893.38344  22688617.7114                   22688617.3364
  -2931921.90246  -1678005.64843  23604467.0234                   23604465.1994
 -84658429.66446 -65097777.34043  23017926.7344                   23017925.9774
 11  7 28  0 45  0.0000000  0  8G17G02G10G09G04G27G12G28
 -68686018.32047 -53470813.53145  22059060.1564                   22059058.1644
 -28986482.98847 -22530540.64546  21305360.0554                   21305356.1844
 -15493143.73047 -11814556.53944  22143409.9614                   22143409.2974
 -22330232.45347 -17357900.21544  22267498.2424                   22267496.4304
 -52022677.80547 -40483639.80946  20163824.9924                   20163823.5314
 -34749730.68746 -27030168.28544  22675852.4064                   22675851.5124
  -3123715.98046  -1827455.51244  23567969.3134                   23567967.8284
 -84673922.02746 -65109849.38343  23014979.1094                   23014977.9924
 11  7 28  0 45 30.0000000  0  8G17G02G10G09G04G27G12G28
 -68744328.69547 -53516250.19545  22047964.1024                   22047961.9414
 -29133123.44547 -22644805.89845  21277455.4304                   21277451.6094
 -15667037.57847 -11950058.18444  22110319.1024                   22110318.3054
 -22399759.69147 -17412077.30144  22254267.4454                   22254266.3284
 -52086722.87148 -40533545.03946  20151637.7424                   20151635.7234
 -34816361.47747 -27082088.42644  22663173.1804                   22663172.0004
  -3315365.14847  -1976792.42644  23531500.0784                   23531497.8284
 -84689048.28946 -65121636.10943  23012101.8134                   23012100.0474
 11  7 28  0 46  0.0000000  0  8G17G02G10G09G04G27G12G28
 -68802503.05547 -53561580.87945  22036893.8524                   22036892.0744
 -29279352.37947 -22758750.49645  21249629.1484                   21249625.2974
 -15840548.82446 -12085261.69544  22077300.8674                   22077300.1174
 -22468668.28947 -17465772.34844  22241154.1884                   22241153.1604
 -52150259.61347 -40583054.18446  20139547.0634                   20139545.2384
 -34882539.63746 -27133655.85544  22650579.5474                   22650578.6454
  -3506868.46946  -2126015.71544  23495057.6484                   23495056.6524
 -84703810.66846 -65133139.33643  23009292.6484                   23009291.0004
 11  7 28  0 46 30.0000000  0  8G17G02G10G09G04G27G12G28
 -68860539.85547 -53606804.35545  22025849.3134                   22025847.3984
 -29425168.40647 -22872373.34045  21221880.7504                   21221877.4734
 -16013673.30546 -12220163.82444  22044355.8754                   22044355.1844
 -22536958.80147 -17518985.74244  22228159.2504                   22228158.1374
 -52213289.04348 -40632168.01646  20127553.0784                   20127550.8444
 -34948265.73047 -27184871.05144  22638072.4064                   22638071.3794
  -3698222.28546  -2275122.51244  23458644.4924                   23458642.5634
 -84718209.27046 -65144359.06643  23006552.3754                   23006550.9574
 11  7 28  0 47  0.0000000  0  8G17G02G10G09G04G27G12G28
 -68918438.36347 -53651920.07445  22014831.9844                   22014829.7304
 -29570570.46947 -22985673.61345  21194212.3054                   21194208.2424
 -16186407.18046 -12354761.59044  22011486.1804                   22011484.9534
 -22604632.80147 -17571718.76644  22215281.0234                   22215279.8244
 -52275812.22347 -40680887.36746  20115655.5474                   20115653.4184
 -35013541.11746 -27235735.02044  22625651.0864                   22625650.5044
  -3889423.47747  -2424110.39144  23422260.0004                   23422258.4774
 -84732244.45746 -65155295.63343  23003881.1644                   23003880.5204
 11  7 28  0 47 30.0000000  0  8G17G02G10G09G04G27G12G28
 -68976197.68047 -53696927.35245  22003840.3834                   22003838.6884
 -29715558.06247 -23098650.91845  21166621.9384                   21166617.9184
 -16358746.56246 -12489051.97744  21978689.9064                   21978689.5634
 -22671691.89547 -17623972.63744  22202519.4924                   22202519.0744
 -52337830.87547 -40729213.58246  20103853.6884                   20103851.4224
 -35078366.94147 -27286248.68744  22613314.3524                   22613314.3094
  -4080469.83647  -2572977.59844  23385904.8524                   23385903.5474
 -84745917.18446 -65165949.80543  23001279.3594                   23001279.0984
 11  7 28  0 48  0.0000000  0  9G17G02G05G10G09G04G27G12G28
 -69033820.55547 -53741828.30145  21992875.7034                   21992873.1764
 -29860133.74647 -23211307.27046  21139109.8364                   21139105.8484
   9156743.43056   7184309.10553  24643860.9224                   24643864.7114
 -16530691.46946 -12623034.95744  21945971.0474                   21945969.8714
 -22738141.00447 -17675751.19544  22189875.8674                   22189874.6914
 -52399350.08247 -40777150.62146  20092147.0634                   20092144.6524
 -35142748.32447 -27336416.03944  22601063.7814                   22601062.7154
  -4271361.76247  -2721724.49644  23349579.8914                   23349578.0234
 -84759231.77046 -65176324.89143  22998746.4924                   22998745.5824
 11  7 28  0 48 30.0000000  0  9G17G02G05G10G09G04G27G12G28
 -69091308.36747 -53786624.00045  21981936.1174                   21981933.2774
 -30004298.86747 -23323643.68745  21111676.0864                   21111672.3794
   8955220.49246   7027278.61343  24605511.2114                   24605515.8484
 -16702240.23047 -12756709.25844  21913326.1564                   21913325.1374
 -22803983.58647 -17727057.11744  22177346.3284                   22177345.0554
 -52460373.22747 -40824701.11746  20080534.8914                   20080532.7034
 -35206688.63347 -27386239.67244  22588896.6024                   22588895.4344
  -4462098.47347  -2870350.46544  23313284.1564                   23313281.9844
 -84772191.32446 -65186423.35543  22996280.6484                   22996279.5784
 11  7 28  0 49  0.0000000  0  9G17G02G05G10G09G04G27G12G28
 -69148665.91447 -53831318.20745  21971020.8834                   21971018.4224
 -30148058.48047 -23435664.13745  21084319.8204                   21084315.8204
   8753649.00846   6870210.19942  24567154.1564                   24567157.3794
 -16873394.33647 -12890076.03944  21880756.4534                   21880755.5744
 -22869226.91047 -17777896.10544  22164930.4304                   22164929.2894
 -52520907.51648 -40871870.68746  20069014.9534                   20069013.3874
 -35270194.73847 -27435724.97344  22576811.6254                   22576810.8014
  -4652682.85247  -3018857.70344  23277016.7504                   23277014.8164
 -84784801.98846 -65196249.94143  22993880.0634                   22993879.9024
 11  7 28  0 49 30.0000000  0  9G17G02G05G10G09G04G27G12G28
 -69205893.90247 -53875911.46145  21960130.5944                   21960128.4224
 -30291413.49647 -23547369.30545  21057039.7114                   21057035.9804
   8552030.37546   6713105.17643  24528786.7034                   24528790.5664
 -17044152.25047 -13023134.09844  21848262.0394                   21848260.9184
 -22933874.42247 -17828270.82044  22152629.1884                   22152628.0164
 -52580956.35247 -40918661.98446  20057587.7974                   20057585.6054
 -35333269.79747 -27484874.36744  22564808.3054                   22564807.8554
  -4843114.25847  -3167245.79344  23240778.8444                   23240776.6094
 -84797066.31646 -65205806.60543  22991546.4224                   22991545.7584
 11  7 28  0 50  0.0000000  0  9G17G02G05G10G09G04G27G12G28
 -69262989.24247 -53920401.33645  21949266.6024                   21949263.4694
 -30434360.84447 -23658756.80946  21029837.8134                   21029833.9924
   8350369.80145   6555967.37542  24490411.9694                   24490415.3954
 -17214508.18047 -13155878.92644  21815844.5634                   21815843.9614
 -22997925.32447 -17878180.64144  22140440.5634                   22140438.9304
 -52640518.96548 -40965074.41046  20046254.3204                   20046251.8134
 -35395912.84847 -27533687.14844  22552888.1484                   22552887.2774
  -5033387.44147  -3315510.56644  23204570.9384                   23204568.8164
 -84808982.73046 -65215092.19143  22989279.0474                   22989278.1454
 11  7 28  0 50 30.0000000  0  9G17G02G05G10G09G04G27G12G28
 -69319950.38347 -53964786.66445  21938426.8444                   21938424.2704
 -30576899.00047 -23769825.46546  21002713.9224                   21002709.6804
   8148671.26645   6398799.94943  24452028.9774                   24452033.8754
 -17384457.19147 -13288306.67244  21783504.7114                   21783503.2114
 -23061380.54747 -17927626.30144  22128365.3984                   22128363.7664
 -52699596.00047 -41011108.45746  20035011.8364                   20035009.9264
 -35458124.48047 -27582163.75044  22541049.9844                   22541049.0314
  -5223498.39547  -3463648.91044  23168394.3674                   23168391.6604
 -84820551.52046 -65224106.92643  22987076.5234                   22987076.1644
 11  7 28  0 51  0.0000000  0  9G17G02G05G10G09G04G27G12G28
 -69376775.87147 -54009066.28545  21927613.6414                   21927611.3954
 -30719026.65647 -23880574.25846  20975667.6564                   20975663.7814
   7946938.39146   6241605.85942  24413641.5944                   24413644.8014
 -17553995.11347 -13420414.09044  21751242.7114                   21751241.1094
 -23124240.83647 -17976608.36744  22116402.9694                   22116401.8554
 -52758188.27347 -41056764.77746  20023862.1334                   20023860.3364
 -35519905.21546 -27630304.59044  22529293.4384                   22529292.0944
  -5413444.06247  -3611658.49244  23132248.5864                   23132246.8554
 -84831772.72746 -65232850.78943  22984943.3134                   22984941.8524
 11  7 28  0 51 30.0000000  0  9G17G02G05G10G09G04G27G12G28
 -67858042.49647 -52825637.71145  22216618.3984                   22216616.9024
 -29285317.77747 -22763398.47746  21248493.8284                   21248490.0314
   9320601.59845   7311993.00442  24675038.9144                   24675044.5354
 -16147692.36347 -12324593.69544  22018853.1024                   22018852.0314
 -21611085.44547 -16797526.28144  22404346.7814                   22404345.7624
 -51240875.10248 -39874442.83246  20312597.3444                   20312595.4534
 -34005834.21547 -26450508.98444  22817411.3204                   22817410.4494
  -4027794.61347  -2531931.58644  23395928.8204                   23395926.8834
 -83267226.43446 -64013723.88743  23282666.6724                   23282665.0664
 11  7 28  0 52  0.0000000  0  9G17G02G05G10G09G04G27G12G28
 -67914593.73047 -52869703.63345  22205856.9534                   22205854.9304
 -29426622.19147 -22873505.78546  21221604.3524                   21221600.5004
   9118809.85946   7154753.06643  24636639.9924                   24636643.8794
 -16316397.12147 -12456051.88344  21986749.5004                   21986748.3014
 -21672760.83647 -16845585.03944  22392610.6804                   22392609.6254
 -51298502.62548 -39919347.39146  20301631.0394                   20301629.3244
 -34066757.64547 -26497981.79744  22805817.1254                   22805817.2774
  -4217400.22347  -2679676.16844  23359847.4924                   23359846.0594
 -83277754.56246 -64021927.72343  23280662.2664                   23280660.6334
 11  7 28  0 52 30.0000000  0  9G17G02G05G10G09G04G27G12G28
 -67971007.42247 -52913662.39545  22195121.7894                   22195120.4774
 -29567515.00847 -22983292.35246  21194793.2894                   21194789.4384
   8916992.26645   6997492.90243  24598235.2894                   24598239.2584
 -16484680.65247 -12587181.84444  21954726.6094                   21954724.9884
 -21733847.47747 -16893185.02744  22380986.2424                   22380984.9694
 -51355651.01248 -39963878.60246  20290756.0554                   20290754.2344
 -34127255.68447 -26545123.11344  22794305.4924                   22794304.4804
  -4406832.88747  -2827285.97744  23323800.2894                   23323797.9654
 -83287938.87546 -64029863.60543  23278724.6884                   23278724.3714
 11  7 28  0 53  0.0000000  0  9G17G02G05G10G09G04G27G12G28
 -68027283.18447 -52957513.67245  22184412.7664                   22184411.3834
 -29707995.97347 -23092758.01246  21168061.0164                   21168056.5354
   8715151.72346   6840214.79343  24559826.8284                   24559829.5274
 -16652539.93447 -12717981.24244  21922783.4384                   21922782.3284
 -21794347.52047 -16940327.94544  22369473.6484                   22369472.6484
 -51412322.52047 -40008038.22746  20279972.3364                   20279970.0124
 -34187330.24646 -26591934.45744  22782873.7344                   22782873.0634
  -4596089.85547  -2974758.87544  23287785.7664                   23287783.4574
 -83297780.34846 -64037532.36343  23276851.8204                   23276851.4414
 11  7 28  0 53 30.0000000  0  9G17G02G05G10G09G04G27G12G28
 -68083418.57047 -53001255.57445  22173730.3984                   22173729.3284
 -29848062.89547 -23201901.04746  21141406.9694                   21141402.3914
   8513292.80546   6682922.40643  24521413.2424                   24521416.3714
 -16819969.55547 -12848445.84444  21890922.9614                   21890921.0944
 -21854261.09047 -16987013.85944  22358072.8284                   22358071.6644
 -51468517.05948 -40051826.18046  20269278.8444                   20269276.4414
 -34246981.27347 -26638415.77744  22771522.5474                   22771522.1134
  -4785167.10247  -3122091.75844  23251805.4454                   23251803.6374
 -83307278.43046 -64044933.51243  23275044.8284                   23275044.0314
 11  7 28  0 54  0.0000000  0  9G17G02G05G10G09G04G27G12G28
 -68139414.79347 -53044889.01645  22163074.9064                   22163073.5124
 -29987717.17647 -23310722.53146  21114831.4454                   21114827.1994
   8311416.76246   6525616.66443  24482997.3594                   24483000.8404
 -16986967.85547 -12978574.34444  21859143.5704                   21859142.3834
 -21913592.03947 -17033245.77044  22346782.5784                   22346781.7974
 -51524238.18747 -40095245.25046  20258674.9224                   20258673.2194
 -34306211.97346 -26684569.57444  22760250.7974                   22760250.6454
  -4974063.41047  -3269283.64544  23215859.6414                   23215857.6684
 -83316435.82846 -64052069.24643  23273302.6884                   23273301.3714
 11  7 28  0 54 30.0000000  0  9G17G02G05G10G09G04G27G12G28
 -68195269.46947 -53088412.17645  22152446.6174                   22152444.4384
 -30126956.59047 -23419220.74646  21088335.0474                   21088331.0314
   8109528.30946   6368301.20743  24444579.2424                   24444581.9884
 -17153529.57847 -13108362.64544  21827448.2974                   21827446.9144
 -21972340.46146 -17079023.77744  22335602.7504                   22335601.7464
 -51579485.89847 -40138295.41846  20248162.0784                   20248159.7034
 -34365022.50447 -26730395.94944  22749060.0394                   22749059.2704
  -5162774.23447  -3416331.00844  23179949.4064                   23179946.9144
 -83325251.85246 -64058938.94543  23271624.1484                   23271623.3794
 11  7 28  0 55  0.0000000  0  9G17G02G05G10G09G04G27G12G28
 -68250983.96547 -53131826.10545  22141844.5944                   22141842.6684
 -30265782.85247 -23527397.02046  21061916.7504                   21061913.1564
   7907628.01246   6210976.60943  24406157.8984                   24406161.8754
 -17319653.77747 -13237810.03944  21795835.6334                   21795835.0394
 -22030510.43447 -17124351.00844  22324533.2664                   22324532.5084
 -51634264.45348 -40180980.00446  20237737.6254                   20237735.6294
 -34423416.91447 -26775898.09044  22737947.6094                   22737947.0514
  -5351299.50047  -3563233.78944  23144073.5784                   23144072.2544
 -83333730.10546 -64065545.44942  23270012.0554                   23270009.9454
 11  7 28  0 55 30.0000000  0  9G17G02G05G10G09G04G27G12G28
 -68306559.69547 -53175131.90245  22131268.9064                   22131266.8554
 -30404198.75847 -23635253.53946  21035577.3364                   21035573.4574
   7705717.18846   6053643.69943  24367736.5784                   24367739.3284
 -17485338.93446 -13366915.29744  21764306.7734                   21764305.5904
 -22088106.49246 -17169231.05144  22313573.5394                   22313572.4734
 -51688577.65247 -40223301.97746  20227402.4924                   20227400.4964
 -34481398.92246 -26821078.87544  22726914.4614                   22726913.1764
  -5539638.45347  -3709991.39544  23108234.3444                   23108232.1684
 -83341873.65646 -64071891.12143  23268461.1254                   23268460.1484
 11  7 28  0 56  0.0000000  0  9G17G02G05G10G09G04G27G12G28
 -68361996.09847 -53218329.12545  22120719.4304                   22120717.4774
 -30542202.64547 -23742788.99646  21009316.3674                   21009312.0314
   7503798.38746   5896304.61743  24329312.2894                   24329314.8164
 -17650581.49647 -13495675.66844  21732861.8914                   21732861.3244
 -22145130.55147 -17213665.36344  22302721.4774                   22302720.8594
 -51742427.34048 -40265262.77746  20217154.9064                   20217152.9494
 -34538970.35946 -26865939.75044  22715958.4384                   22715958.1134
  -5727788.27747  -3856601.60244  23072430.1334                   23072429.3594
 -83349683.90246 -64077977.10543  23266975.4454                   23266974.3674
 11  7 28  0 56 30.0000000  0  9G17G02G05G10G09G04G27G12G28
 -68417294.44947 -53261418.76645  22110196.7894                   22110194.8674
 -30679796.66847 -23850005.09046  20983133.1414                   20983128.7934
   7301872.23046   5738959.81343  24290887.1804                   24290889.2114
 -17815380.81647 -13624090.67644  21701501.9534                   21701500.3714
 -22201587.01646 -17257657.39144  22291978.5634                   22291977.3204
 -51795817.73847 -40306865.68446  20206995.5004                   20206993.3404
 -34596135.18446 -26910483.76644  22705080.3754                   22705080.0784
  -5915748.53547  -4003064.11744  23036662.6564                   23036660.5984
 -83357164.20346 -64083805.96543  23265551.8594                   23265551.0164
 11  7 28  0 57  0.0000000  0  9G17G02G05G10G09G04G27G12G28
 -68472452.32047 -53304398.94545  22099700.4384                   22099699.0864
 -30816978.43447 -23956899.93446  20957027.9774                   20957023.5704
   7099943.70346   5581613.14842  24252460.5864                   24252463.5314
 -17979731.33247 -13752155.98044  21670227.6334                   21670225.9494
 -22257476.05547 -17301207.26644  22281343.1094                   22281342.4884
 -51848748.69948 -40348110.58246  20196923.1564                   20196920.9224
 -34652893.13747 -26954710.75044  22694279.8674                   22694279.0594
  -6103514.32047  -4149375.10244  23000932.3284                   23000930.4264
 -83364313.67546 -64089377.05443  23264190.8204                   23264190.5944
 11  7 28  0 57 30.0000000  0  9G17G02G05G10G09G04G27G12G28
 -68527471.84447 -53347271.32445  22089230.6024                   22089229.3484
 -30953751.01247 -24063475.93746  20931001.6884                   20930996.8014
   6898013.00046   5424264.79343  24214034.3054                   24214037.3164
 -18143632.83647 -13879871.38744  21639037.5164                   21639036.2814
 -22312802.86747 -17344319.04744  22270814.7504                   22270813.7234
 -51901225.11748 -40389001.29346  20186936.9694                   20186934.7704
 -34709249.18047 -26998624.55144  22683556.0634                   22683555.3284
  -6291086.69947  -4295535.35944  22965238.1724                   22965236.3094
 -83371136.69946 -64094693.80143  23262893.0084                   23262892.3364
 11  7 28  0 58  0.0000000  0  9G17G02G05G10G09G04G27G12G28
 -68582351.01647 -53390034.34045  22078787.4144                   22078785.8914
 -31090112.46947 -24169731.57446  20905052.2194                   20905048.0664
   6696084.67246   5266918.26642  24175608.4144                   24175610.9884
 -18307080.52046 -14007233.17644  21607934.2344                   21607933.1374
 -22367568.18447 -17386993.28544  22260393.3674                   22260392.0704
 -51953247.19948 -40429537.97346  20177037.5234                   20177035.8054
 -34765203.65647 -27042225.45344  22672907.9614                   22672907.5044
  -6478461.04747  -4441541.31244  22929581.5474                   22929580.4774
 -83377632.93745 -64099755.91443  23261656.7734                   23261656.5784
 11  7 28  0 58 30.0000000  0  9G17G02G05G10G09G04G27G12G28
 -68637090.90647 -53432688.83245  22068370.5164                   22068369.3954
 -31226064.67647 -24275668.32846  20879181.7974                   20879177.1254
   6494159.67646   5109574.38743  24137183.1724                   24137185.8754
 -18470073.14147 -14134240.35544  21576917.5704                   21576916.8954
 -22421775.67647 -17429232.85544  22250077.9614                   22250076.8244
 -52004819.09848 -40469723.87546  20167223.7344                   20167221.4774
 -34820760.21547 -27085516.27344  22662335.8054                   22662335.5784
  -6665636.68047  -4587392.43044  22893963.0394                   22893961.9184
 -83383805.40246 -64104565.75043  23260483.0084                   23260482.1374
 11  7 28  0 59  0.0000000  0  9G17G02G05G10G09G04G27G12G28
 -68691689.53547 -53475233.24245  22057981.1564                   22057979.2814
 -31361605.98047 -24381284.87946  20853388.9064                   20853384.8164
   6292242.23846   4952236.32043  24098760.5704                   24098762.1254
 -18632605.39147 -14260888.82044  21545989.4844                   21545987.6054
 -22475426.27347 -17471038.48844  22239868.6094                   22239867.5234
 -52055941.05948 -40509559.16446  20157495.6414                   20157493.2464
 -34875919.44147 -27128497.48844  22651839.7194                   22651839.1254
  -6852609.23447  -4733085.26244  22858384.3914                   22858382.0394
 -83389654.11746 -64109123.23443  23259369.1334                   23259369.3324
 11  7 28  0 59 30.0000000  0  9G17G02G05G10G09G04G27G12G28
 -68746147.79347 -53517668.27045  22047617.3834                   22047616.1214
 -31496737.50047 -24486582.12946  20827673.9534                   20827669.7894
   6090334.11346   4794905.62943  24060338.0234                   24060339.8524
 -18794675.89147 -14387177.47344  21515147.8134                   21515146.7734
 -22528524.02747 -17512413.32844  22229764.6564                   22229763.1764
 -52106616.82048 -40549046.77346  20147851.6254                   20147850.1054
 -34930684.63346 -27171171.67244  22641418.4694                   22641417.1484
  -7039377.75847  -4878619.12544  22822843.2664                   22822840.7544
 -83395181.64846 -64113430.50043  23258317.7974                   23258317.3244
 11  7 28  1  0  0.0000000  0  9G17G02G05G10G09G04G27G12G28
 -67225044.26247 -52332392.80545  22337074.6334                   22337072.9964
 -30056035.73847 -23363957.33646  21101830.2274                   21101826.4614
   7463863.63346   5865188.62143  24321711.1174                   24321713.5314
 -17380857.52747 -13285500.80144  21784188.6414                   21784187.0704
 -21005650.56247 -16325758.65644  22519558.0004                   22519556.5594
 -50581427.71148 -39360587.71546  20438085.8674                   20438084.1954
 -33409637.10247 -25985939.83644  22930863.7504                   22930863.2934
  -5650514.31647  -3796387.80544  23087134.8444                   23087133.3594
 -81824970.51246 -62889889.36342  23557118.5234                   23557117.9534
 11  7 28  1  0 30.0000000  0  9G17G02G05G10G09G04G27G12G28
 -67279222.07047 -52374609.29345  22326765.4224                   22326763.1914
 -30190349.24647 -23468617.17646  21076271.4614                   21076267.3444
   7261980.20746   5707877.16843  24283294.6564                   24283296.8594
 -17541997.41047 -13411064.29345  21753525.3914                   21753523.2814
 -21057651.72747 -16366279.03544  22509662.2274                   22509661.0704
 -50631218.88748 -39399386.04346  20428611.0704                   20428609.0434
 -33463622.62547 -26028006.48044  22920590.5634                   22920589.6884
  -5836868.43047  -3941598.73844  23051673.4614                   23051670.6134
 -81829862.72746 -62893701.55943  23556187.6254                   23556187.1764
 11  7 28  1  1  0.0000000  0  9G17G02G05G10G09G04G27G12G28
 -67333258.01647 -52416715.24245  22316482.4924                   22316480.1454
 -30324252.87947 -23572957.63346  21050790.0634                   21050785.6954
   7060114.46546   5550579.47743  24244879.7894                   24244881.3794
 -17702666.34447 -13536260.80945  21722950.2814                   21722949.2384
 -21109107.41846 -16406374.35244  22499870.5944                   22499869.3094
 -50680570.26248 -39437841.65246  20419219.7894                   20419217.6994
 -33517220.58646 -26069771.12944  22910391.2034                   22910390.6844
  -6023011.27747  -4086645.04344  23016251.6724                   23016249.0634
 -81834438.26646 -62897266.96943  23555317.3754                   23555316.9884
 11  7 28  1  1 30.0000000  0  9G17G02G05G10G09G04G27G12G28
 -67387153.92647 -52458712.06645  22306226.3444                   22306223.5984
 -30457749.51647 -23676980.95346  21025386.5394                   21025382.4694
   6858266.48045   5393295.63743  24206469.4224                   24206471.7154
 -17862864.09847 -13661090.17245  21692465.8134                   21692464.3874
 -21160022.73846 -16446048.61344  22490181.2814                   22490181.0394
 -50729486.29347 -39475958.03946  20409911.4774                   20409909.4264
 -33570435.65647 -26111237.43044  22900264.7664                   22900264.1684
  -6208942.63747  -4231526.53544  22980869.8444                   22980867.5784
 -81838701.34445 -62900588.92242  23554505.2734                   23554505.6134
 11  7 28  1  2  0.0000000  0  9G17G02G05G10G09G04G27G12G28
 -67440905.34447 -52500596.29345  22295997.4774                   22295995.5314
 -30590834.88348 -23780683.80546  21000061.3054                   21000057.5594
   6656443.03946   5236030.94143  24168063.4924                   24168065.5084
 -18022583.46547 -13785546.77344  21662072.8204                   21662070.8754
 -21210396.41847 -16485300.82444  22480595.5634                   22480594.5164
 -50777965.60548 -39513734.13346  20400686.3674                   20400684.1764
 -33623266.02746 -26152403.98444  22890211.5704                   22890211.1454
  -6394655.85247  -4376238.05144  22945528.8594                   22945527.4494
 -81842649.46145 -62903665.48443  23553754.4224                   23553754.7814
 11  7 28  1  2 30.0000000  0  9G17G02G05G10G09G04G27G12G28
 -67494512.41847 -52542368.05945  22285796.4924                   22285794.1914
 -30723509.63747 -23884066.70346  20974814.1484                   20974810.0044
   6454646.48046   5078787.16843  24129661.5234                   24129665.6954
 -18181822.06247 -13909628.73844  21631769.9774                   21631769.1454
 -21260231.33647 -16524133.21544  22471112.8204                   22471111.7544
 -50826010.66448 -39551171.84446  20391542.9144                   20391541.2114
 -33675714.36747 -26193272.82044  22880231.4304                   22880230.3794
  -6580148.77347  -4520777.91044  22910230.7344                   22910229.2274
 -81846284.99645 -62906498.46542  23553063.3914                   23553062.9144
 11  7 28  1  3  0.0000000  0  9G17G02G05G10G09G04G27G12G28
 -67547973.28947 -52584025.89844  22275623.5004                   22275620.8054
 -30855772.61747 -23987128.74646  20949645.3834                   20949641.4024
   6252881.06646   4921567.66043  24091267.8054                   24091269.7704
 -18340575.65247 -14033332.79744  21601559.9844                   21601559.0314
 -21309528.85947 -16562546.87544  22461730.9694                   22461730.0204
 -50873622.42248 -39588271.92646  20382483.1564                   20382481.4264
 -33727781.34446 -26233844.49644  22870323.1724                   22870322.3364
  -6765417.88747  -4665143.37145  22874976.1094                   22874973.3054
 -81849607.95345 -62909087.93442  23552430.2114                   23552431.3594
 11  7 28  1  3 30.0000000  0  9G17G02G05G10G09G04G27G12G28
 -67601285.39147 -52625567.81244  22265478.2424                   22265476.2624
 -30987621.72747 -24089868.28146  20924555.2344                   20924551.0004
   6051151.50446   4764376.09043  24052879.9384                   24052882.2234
 -18498839.14147 -14156654.94145  21571444.1484                   21571442.3284
 -21358289.66047 -16600542.30544  22452452.7274                   22452451.8284
 -50920800.85248 -39625034.34446  20373505.5554                   20373503.2194
 -33779467.27047 -26274119.26644  22860487.3674                   22860487.2194
  -6950458.49647  -4809330.79344  22839763.8054                   22839761.8874
 -81852617.99246 -62911433.51242  23551857.8524                   23551858.5274
 11  7 28  1  4  0.0000000  0  9G17G02G05G10G09G04G27G12G28
 -67654445.01647 -52666990.92644  22255361.9384                   22255360.5704
 -31119054.10548 -24192283.10946  20899544.8364                   20899540.2624
   5849464.01246   4607217.25043  24014499.3284                   24014501.2544
 -18656606.42647 -14279590.43745  21541421.7344                   21541420.1644
 -21406512.66847 -16638118.69544  22443275.8054                   22443274.8984
 -50967544.80948 -39661458.21946  20364610.3754                   20364608.5234
 -33830771.17646 -26314096.34044  22850725.0944                   22850724.2464
  -7135264.80947  -4953335.64144  22804595.9844                   22804593.5474
 -81855313.35546 -62913533.80542  23551344.9774                   23551344.4844
 11  7 28  1  4 30.0000000  0  9G17G02G05G10G09G04G27G12G28
 -67707455.31647 -52708297.68444  22245274.6414                   22245272.6524
 -31250073.08247 -24294375.79346  20874612.4064                   20874608.9414
   5647817.52346   4450090.36343  23976128.3364                   23976128.9774
 -18813878.21147 -14402139.82845  21511493.5234                   21511491.8244
 -21454204.44547 -16675281.12544  22434200.3984                   22434199.1994
 -51013860.39848 -39697548.28146  20355797.2274                   20355794.7774
 -33881698.96547 -26353780.35244  22841033.6334                   22841033.2304
  -7319838.09447  -5097158.92245  22769472.1884                   22769470.3714
 -81857699.15246 -62915392.88342  23550892.2734                   23550890.4304
 11  7 28  1  5  0.0000000  0  9G17G02G05G10G09G04G27G12G28
 -67760308.85547 -52749482.27045  22235217.4774                   22235215.3094
 -31380671.85548 -24396141.04346  20849760.1954                   20849756.2894
   5446221.88746   4293003.05943  23937765.1484                   23937766.1134
 -18970644.63747 -14524295.43445  21481661.7734                   21481660.3244
 -21501360.72347 -16712026.30144  22425226.9144                   22425226.4304
 -51059742.87948 -39733300.86346  20347065.6804                   20347063.6094
 -33932245.82047 -26393167.53144  22831415.0704                   22831413.9224
  -7504168.48847  -5240792.94544  22734395.5314                   22734393.7234
 -81859769.98445 -62917006.60942  23550497.4614                   23550496.9924
 11  7 28  1  5 30.0000000  0  9G17G02G05G10G09G04G27G12G28
 -67813008.27747 -52790546.77745  22225189.3524                   22225187.0084
 -31510853.94147 -24497581.61346  20824987.3914                   20824983.3444
   5244676.72746   4135955.09843  23899412.0394                   23899413.2384
 -19126906.09447 -14646057.55944  21451926.6254                   21451925.0394
 -21547987.80947 -16748359.10944  22416354.4924                   22416352.8524
 -51105197.79748 -39768720.28546  20338415.5314                   20338413.6454
 -33982417.57846 -26432262.43444  22821867.1414                   22821866.7234
  -7688257.05947  -5384238.53944  22699364.8834                   22699362.9264
 -81861531.29745 -62918379.14143  23550161.8284                   23550162.6804
 11  7 28  1  6  0.0000000  0  9G17G02G05G10G09G04G27G12G28
 -67865561.25847 -52831497.16845  22215188.5164                   22215186.7074
 -31640627.69947 -24598704.00446  20800292.4844                   20800288.4574
   5043176.74246   3978942.34843  23861067.6564                   23861068.8634
 -19282667.53547 -14767430.05145  21422285.7894                   21422284.3554
 -21594096.20347 -16784287.74244  22407580.2734                   22407579.0824
 -51150235.34448 -39803814.48046  20329844.8754                   20329843.5434
 -34032224.18446 -26471072.78944  22812389.5704                   22812388.9454
  -7872109.23847  -5527499.94145  22664378.8364                   22664376.6844
 -81862992.55545 -62919517.86743  23549884.2274                   23549884.6954
 11  7 28  1  6 30.0000000  0  9G17G02G05G10G09G04G27G12G28
 -67917966.17247 -52872332.17645  22205216.7974                   22205214.6024
 -31769992.09447 -24699507.41046  20775675.0704                   20775670.6604
   4841725.91046   3821967.85243  23822732.7894                   23822734.2274
 -19437925.28147 -14888410.06245  21392741.3834                   21392739.5274
 -21639687.50047 -16819813.45344  22398904.5394                   22398902.9304
 -51194856.77347 -39838584.43046  20321354.2814                   20321352.4454
 -34081667.08647 -26509599.75844  22802980.8834                   22802980.7194
  -8055721.21147  -5670574.18044  22629439.1484                   22629436.5744
 -81864154.08645 -62920423.04743  23549663.0634                   23549663.0554
 11  7 28  1  7  0.0000000  0  9G17G02G05G10G09G04G27G12G28
 -67970221.77047 -52913050.83645  22195271.9384                   22195270.5164
 -31898946.73847 -24799991.53146  20751136.0944                   20751131.5204
   4640327.84846   3665034.53943  23784408.5394                   23784409.2424
 -19592676.01247 -15008994.99645  21363293.0314                   21363291.9574
 -21684763.79747 -16854937.85544  22390326.9064                   22390325.7894
 -51239063.67648 -39873031.37146  20312942.0394                   20312940.2114
 -34130747.75046 -26547844.44944  22793640.6954                   22793640.1884
  -8239090.11347  -5813459.02344  22594544.6414                   22594542.1214
 -81865017.27746 -62921095.74243  23549499.5864                   23549499.8324
 11  7 28  1  7 30.0000000  0  9G17G02G05G10G09G04G27G12G28
 -68022330.41047 -52953654.98845  22185356.4694                   22185354.8364
 -32027494.48047 -24900158.57846  20726674.0944                   20726669.8364
   4438982.46946   3508142.21543  23746091.7814                   23746093.8244
 -19746919.57847 -15129184.74645  21333941.4924                   21333940.0234
 -21729330.75047 -16889665.36744  22381846.0394                   22381844.5354
 -51282860.93748 -39907159.12146  20304607.6724                   20304605.8054
 -34179471.26246 -26585810.84044  22784369.5554                   22784368.9734
  -8422216.09847  -5956154.56644  22559697.0634                   22559694.7854
 -81865586.16846 -62921539.09043  23549391.1954                   23549391.6134
 11  7 28  1  8  0.0000000  0  9G17G02G05G10G09G04G27G12G28
 -66498868.89847 -51766542.11745  22475260.8984                   22475259.7974
 -30580210.37547 -23772404.71146  21002082.5234                   21002078.7154
   5813120.29746   4578899.18443  24007582.3834                   24007583.5944
 -18325226.94947 -14021372.25045  21604480.7814                   21604479.4104
 -20197968.55147 -15696396.13744  22673254.7894                   22673253.2234
 -49750828.64548 -38713367.73846  20596143.7114                   20596141.7854
 -32652417.48047 -25395898.82044  23074958.2194                   23074957.3364
  -7029669.50847  -4871053.31244  22824689.7034                   22824687.0594
 -80290441.73846 -61694153.90243  23849132.3284                   23849131.3634
 11  7 28  1  8 30.0000000  0  9G17G02G05G10G09G04G27G12G28
 -66550680.50447 -51806914.80545  22465401.3754                   22465400.2344
 -30707943.86747 -23871937.27346  20977776.1954                   20977771.7774
   5611890.52346   4422096.98043  23969289.8524                   23969290.6954
 -18478446.29347 -14140763.89145  21575324.0704                   21575322.6684
 -20241523.60547 -15730335.13744  22664965.7504                   22664965.3834
 -49793812.32448 -38746861.52746  20587964.5234                   20587962.1414
 -32700432.64546 -25433313.25444  23065821.2194                   23065820.4064
  -7212300.19547  -5013362.91444  22789936.4064                   22789934.1454
 -80290426.30545 -61694141.97343  23849134.2664                   23849134.5434
 11  7 28  1  9  0.0000000  0  9G17G02G05G10G09G04G27G12G28
 -66602344.88347 -51847172.76645  22455570.7034                   22455569.0864
 -30835272.30147 -23971154.20746  20953546.5784                   20953542.2074
   5410720.89146   4265341.65643  23931008.1254                   23931008.8984
 -18631151.53547 -14259754.94544  21546264.7584                   21546264.0594
 -20284579.20747 -15763884.98044  22656773.4144                   22656772.1954
 -49836394.64547 -38780042.56646  20579861.3834                   20579859.0474
 -32748099.03546 -25470455.93744  23056749.8204                   23056749.5274
  -7394681.66447  -5155478.32445  22755230.5164                   22755228.0634
 -80290123.09445 -61693905.73042  23849191.1954                   23849192.8244
 11  7 28  1  9 30.0000000  0  9G17G02G05G10G09G04G27G12G28
 -66653859.85547 -51887314.31244  22445767.2584                   22445766.0044
 -30962194.22347 -24070054.37946  20929393.9454                   20929389.6174
   5209615.83646   4108636.67643  23892738.7344                   23892739.9844
 -18783337.91847 -14378341.68745  21517305.0234                   21517303.6914
 -20327136.06647 -15797046.18044  22648675.1644                   22648674.1844
 -49878576.01648 -38812911.16446  20571834.1024                   20571832.5514
 -32795417.25846 -25507327.29744  23047746.1644                   23047745.2974
  -7576809.31247  -5297395.94544  22720572.0864                   22720570.3164
 -80289532.25445 -61693445.40242  23849302.5784                   23849306.1724
 11  7 28  1 10  0.0000000  0  9G17G02G05G10G09G04G27G12G28
 -66705224.64547 -51927338.83244  22435993.2814                   22435991.3914
 -31088710.13747 -24168638.17246  20905318.7424                   20905314.3204
   5008578.32446   3951984.26243  23854482.1884                   23854483.6994
 -18935002.81247 -14496522.08245  21488444.2664                   21488442.1844
 -20369197.33647 -15829821.19144  22640670.6564                   22640669.6644
 -49920358.63748 -38845469.05946  20563883.2344                   20563881.4804
 -32842389.77046 -25543929.27044  23038807.2814                   23038806.9384
  -7758681.03547  -5439114.12945  22685963.6254                   22685961.3754
 -80288655.55545 -61692762.33242  23849471.3204                   23849472.1334
 11  7 28  1 10 30.0000000  0  9G17G02G05G10G09G04G27G12G28
 -66756441.23047 -51967247.85944  22426247.2424                   22426245.5044
 -31214822.62147 -24266907.60546  20881320.1334                   20881316.0514
   4807608.52046   3795384.61743  23816238.9304                   23816239.3984
 -19086146.13747 -14614296.05545  21459681.9144                   21459680.7854
 -20410768.12947 -15862214.03544  22632759.7584                   22632759.0044
 -49961747.35947 -38877720.01645  20556007.3594                   20556005.6644
 -32889021.21547 -25580265.46544  23029934.2584                   23029933.8204
  -7940296.36347  -5580632.52045  22651403.1094                   22651400.6414
 -80287496.95745 -61691859.50042  23849691.0944                   23849692.2814
 11  7 28  1 11  0.0000000  0  9G17G02G05G10G09G04G27G12G28
 -66807506.71947 -52007039.14545  22416529.4304                   22416527.5664
 -31340529.61747 -24364861.08246  20857398.8364                   20857394.3954
   4606712.26646   3638842.29343  23778009.2424                   23778010.3754
 -19236762.29347 -14731659.25045  21431021.0704                   21431019.2854
 -20451848.69547 -15894224.86744  22624942.8984                   22624942.0474
 -50002741.81248 -38909663.75046  20548206.2274                   20548204.0044
 -32935311.50447 -25616335.82843  23021124.6954                   23021124.4534
  -8121650.09447  -5721947.06245  22616892.4924                   22616890.6414
 -80286055.89546 -61690736.69942  23849966.2344                   23849966.0634
 11  7 28  1 11 30.0000000  0  9G17G02G05G10G09G04G27G12G28
 -66858422.29747 -52046713.62945  22406840.5394                   22406838.6524
 -31465833.01247 -24462500.05146  20833554.0634                   20833550.1484
   4405890.42246   3482357.93843  23739794.4144                   23739795.0474
 -19386850.78947 -14848611.26245  21402459.9144                   21402458.1454
 -20492443.98447 -15925857.56244  22617217.5004                   22617216.7114
 -50043346.38748 -38941303.68046  20540479.6024                   20540477.3874
 -32981264.93747 -25652143.73444  23012380.9064                   23012380.0434
  -8302741.44947  -5863057.16444  22582432.1094                   22582429.6054
 -80284335.91046 -61689396.49242  23850293.1884                   23850293.7114
 11  7 28  1 12  0.0000000  0  9G17G02G05G10G09G04G27G12G28
 -66909188.05147 -52086271.35945  22397179.9384                   22397178.5274
 -31590733.60947 -24559825.16446  20809786.9694                   20809782.4304
   4205145.28546   3325933.34043  23701594.1174                   23701594.5234
 -19536409.39147 -14965150.38745  21374000.1884                   21373998.7194
 -20532557.37947 -15957114.78144  22609584.1884                   22609583.7034
 -50083563.69947 -38972641.84445  20532826.5704                   20532824.3794
 -33026884.48846 -25687691.42644  23003699.8134                   23003699.4694
  -8483568.62547  -6003961.40245  22548022.2424                   22548019.6294
 -80282339.20346 -61687840.66042  23850673.0004                   23850673.4184
 11  7 28  1 12 30.0000000  0  9G17G02G05G10G09G04G27G12G28
 -66959804.05947 -52125712.41044  22387548.3054                   22387546.2464
 -31715232.45747 -24656837.21146  20786095.3204                   20786091.0744
   4004479.23846   3169570.35543  23663407.6804                   23663408.4494
 -19685436.17647 -15081275.11345  21345640.7894                   21345639.1094
 -20572192.64547 -15987999.40244  22602041.2424                   22602041.3134
 -50123396.78547 -39003680.62146  20525246.5084                   20525244.4384
 -33072173.22346 -25722981.34443  22995080.9694                   22995080.8524
  -8664129.53147  -6144658.15245  22513662.0234                   22513659.3754
 -80280068.37945 -61686071.28542  23851104.4384                   23851106.1214
 11  7 28  1 13  0.0000000  0  9G17G02G05G10G09G04G27G12G28
 -67010269.38347 -52165036.06644  22377945.5704                   22377943.6174
 -31839329.51247 -24753536.18446  20762480.3674                   20762476.1684
   3803895.64846   3013271.66043  23625237.5164                   23625238.8094
 -19833927.75047 -15196982.78945  21317383.3284                   21317382.3954
 -20611352.15647 -16018513.32044  22594590.5004                   22594589.4184
 -50162847.55948 -39034421.48846  20517739.5634                   20517737.5164
 -33117133.06646 -25758015.00844  22986525.3134                   22986525.4264
  -8844421.29747  -6285145.17645  22479353.5634                   22479351.5354
 -80277524.50045 -61684089.14842  23851589.1884                   23851591.3364
 11  7 28  1 13 30.0000000  0  9G17G02G05G10G09G04G27G12G28
 -67060583.54347 -52204241.93044  22368370.9384                   22368368.7344
 -31963025.43447 -24849922.58246  20738942.0314                   20738937.1804
   3603397.07446   2857039.19543  23587084.1644                   23587085.1094
 -19981881.84847 -15312271.64845  21289229.0944                   21289227.5514
 -20650038.93747 -16048658.87144  22587228.7504                   22587227.2974
 -50201918.34447 -39064866.24646  20510303.9614                   20510302.3594
 -33161766.77746 -25792794.52344  22978032.4614                   22978031.8954
  -9024441.43047  -6425420.55145  22445097.2194                   22445094.3284
 -80274709.699 5                  23852125.961
 11  7 28  1 14  0.0000000  0  9G17G02G05G10G09G04G27G12G28
 -67110748.21947 -52243331.29744  22358824.5314                   22358822.9064
 -32086322.41447 -24945998.12546  20715478.6484                   20715474.8404
   3402984.27746   2700873.54343  23548946.1334                   23548947.1954
 -20129298.10547 -15427141.41845  21261176.7504                   21261175.2194
 -20688258.17647 -16078440.12144  22579955.8984                   22579955.0004
 -50240613.68748 -39095018.47346  20502940.6644                   20502938.9144
 -33206078.86347 -25827323.41444  22969599.6484                   22969599.1214
  -9204189.49647  -6565483.91445  22410892.3594                   22410889.5594
 -80271628.055 5                  23852711.367
 11  7 28  1 14 30.0000000  0  9G17G02G05G10G09G04G27G12G28
 -67160759.48847 -52282301.13344  22349308.0084                   22349306.2194
 -32209217.82047 -25041760.74246  20692092.6334                   20692088.3634
   3202663.50846   2544779.65643  23510827.0164                   23510827.2734
 -20276170.85547 -15541587.68445  21233228.2814                   21233226.7734
 -20726009.51647 -16107856.76244  22572772.0084                   22572770.7154
 -50278932.60248 -39124877.35945  20495648.9614                   20495647.1374
 -33250068.48846 -25861601.07844  22961228.8754                   22961228.7504
  -9383659.57447  -6705330.66845  22376740.0394                   22376737.3794
 -80268277.965 5                  23853348.672
 11  7 28  1 15  0.0000000  0  9G17G02G05G10G09G04G27G12G28
 -67210618.02747 -52321151.96944  22339819.6724                   22339818.3364
 -32331713.02747 -25137211.52046  20668782.9614                   20668778.1724
   3002436.69946   2388758.96543  23472724.5314                   23472725.1334
 -20422498.30947 -15655609.02345  21205382.9454                   21205381.4104
 -20763296.93446 -16136911.90244  22565676.1024                   22565674.7274
 -50316878.53547 -39154445.63346  20488427.9614                   20488426.1844
 -33293739.21946 -25895630.22344  22952918.1804                   22952918.4184
  -9562850.35247  -6844959.78944  22342640.7504                   22342638.4804
 -80264662.398 5                  23854037.602
 11  7 28  1 15 30.0000000  0  9G17G02G05G10G09G04G27G12G28
 -67260324.33647 -52359884.18044  22330360.9064                   22330359.3284
 -32453809.47747 -25232351.56246  20645548.7894                   20645544.6294
   2802305.51246   2232812.76743  23434640.8594                   23434641.1564
 -20568278.98847 -15769204.31245  21177641.0864                   21177639.9804
 -20800124.77747 -16165608.94144  22558667.6334                   22558667.0984
 -50354454.78547 -39183725.83246  20481277.7114                   20481275.4964
 -33337094.50446 -25929413.59444  22944668.7114                   22944668.1764
  -9741760.22747  -6984370.02744  22308595.5164                   22308592.9844
 -80260784.375 5                  23854775.039
 11  7 28  1 16  0.0000000  0  9G17G02G05G10G09G04G27G12G28
 -67309875.73847 -52398495.68044  22320932.2974                   22320930.3244
 -32575505.18747 -25327179.34846  20622390.7114                   20622386.2664
   2602274.95546   2076944.97344  23396575.8594                   23396577.2854
 -20713508.57447 -15882370.17645  21150005.6564                   21150003.7814
 -20836493.90247 -16193948.52744  22551747.2814                   22551746.3134
 -50391661.44948 -39212718.04746  20474197.6644                   20474195.6134
 -33380134.65646 -25962951.40243  22936478.2664                   22936477.8914
  -9920384.55947  -7123557.76244  22274604.0394                   22274601.7734
 -80256643.484 5                  23855561.625
 11  7 28  1 16 30.0000000  0  9G17G02G05G10G09G04G27G12G28
 -65783851.56247 -51209385.94544  22611324.9924                   22611322.5514
 -31121378.79347 -24194093.81246  20899101.4064                   20899097.3714
   3977773.21546   3148761.99644  23658324.5084                   23658325.5234
 -19282761.04347 -14767501.91845  21422267.0704                   21422265.7974
 -19296987.81247 -14994333.40644  22844705.2734                   22844704.7584
 -48853081.59447 -38013824.64546  20766980.1644                   20766977.5824
 -31847442.71546 -24768646.00843  23228140.4224                   23228139.8284
  -8523296.16847  -6034917.40244  22540461.5084                   22540458.5784
 -78676823.55945 -60453855.07452  24156192.3914                   24156191.6174
 11  7 28  1 17  0.0000000  0  9G17G02G05G10G09G04G27G12G28
 -65833094.73847 -51247757.26244  22601953.9614                   22601951.9804
 -31242278.11347 -24288301.03946  20876094.9384                   20876090.9574
   3777949.91446   2993055.69144  23620299.5164                   23620299.5514
 -19426883.70347 -14879805.25445  21394841.6094                   21394839.8874
 -19332451.59047 -15021967.53144  22837956.5474                   22837956.1724
 -48889559.45347 -38042248.94946  20760038.2274                   20760035.7734
 -31889863.62946 -24801701.31643  23220067.4694                   23220067.0784
  -8701344.53547  -6173656.33645  22506579.5314                   22506577.1294
 -78672165.55145 -60450225.51242  24157079.5704                   24157079.5864
 11  7 28  1 17 30.0000000  0  9G17G02G05G10G09G04G27G12G28
 -65882185.51647 -51286009.81644  22592612.4844                   22592610.0044
 -31362782.66047 -24382200.65246  20853163.9844                   20853159.5004
   3578231.93846   2837431.47744  23582294.1094                   23582294.7934
 -19570452.32447 -14991676.85945  21367521.4924                   21367519.7894
 -19367470.17646 -15049254.75044  22831292.6954                   22831291.8244
 -48925678.97748 -38070394.03146  20753164.8284                   20753162.7384
 -31931981.47746 -24834520.45743  23212052.8524                   23212052.6644
  -8879103.85947  -6312170.04745  22472753.2114                   22472750.8164
 -78667254.762 5                  24158013.656
 11  7 28  1 18  0.0000000  0  9G17G02G05G10G09G04G27G12G28
 -65931122.17647 -51324142.28144  22583300.7814                   22583297.9104
 -31482891.52047 -24475791.93746  20830307.8834                   20830303.5124
   3378623.14546   2681892.31644  23544309.6644                   23544309.9304
 -19713462.93047 -15103113.65245  21340307.3284                   21340305.1884
 -19402045.59847 -15076196.66444  22824713.8134                   22824713.1024
 -48961441.59047 -38098261.00046  20746359.2344                   20746357.2504
 -31973797.55546 -24867104.45343  23204095.3524                   23204094.8754
  -9056570.36747  -6450455.60245  22438982.5084                   22438980.1914
 -78662091.988 5                  24158996.414
 11  7 28  1 18 30.0000000  0  9G17G02G05G10G09G04G27G12G28
 -65979904.71547 -51362154.64844  22574016.4224                   22574014.8404
 -31602605.44147 -24569075.47746  20807527.1024                   20807522.3404
   3179126.52046   2526440.53944  23506346.2894                   23506346.1054
 -19855913.57447 -15214114.10945  21313199.9304                   21313198.2974
 -19436180.78547 -15102795.52044  22818218.0394                   22818216.7544
 -48996849.36747 -38125851.47345  20739621.5944                   20739619.4344
 -32015314.38346 -24899455.27744  23196195.3284                   23196194.6174
  -9233741.50847  -6588510.98045  22405267.8834                   22405265.5664
 -78656678.996 6                  24160026.961
 11  7 28  1 19  0.0000000  0  9G17G02G05G10G09G04G27G12G28
 -66028534.17647 -51400047.73044  22564764.0084                   22564761.3914
 -31721926.70747 -24662053.05546  20784821.4694                   20784817.0004
   2979742.85546   2371076.82443  23468405.1414                   23468405.5044
 -19997803.67647 -15324677.78545  21286198.6174                   21286197.5784
 -19469880.97346 -15129055.40644  22811805.3754                   22811804.2424
 -49031907.20747 -38153169.26645  20732950.1724                   20732948.2894
 -32056536.77046 -24931576.66843  23188350.6414                   23188350.8524
  -9410616.71147  -6726335.76245  22371610.0864                   22371607.6334
 -78651019.703 6                  24161104.023
 11  7 28  1 19 30.0000000  0  9G17G02G05G10G09G04G27G12G28
 -66077008.08247 -51437819.60544  22555538.9694                   22555536.9694
 -31840853.86347 -24754723.53546  20762190.0864                   20762185.6094
   2780477.32446   2215805.14143  23430486.2114                   23430486.2344
 -20139128.85247 -15434801.25445  21259305.8284                   21259304.1564
 -19503147.21546 -15154977.15644  22805474.8984                   22805473.9884
 -49066614.81647 -38180214.14545  20726345.2114                   20726343.5314
 -32097465.08646 -24963468.88743  23180561.9384                   23180561.6524
  -9587191.24247  -6863926.26645  22338008.4924                   22338006.0904
 -78645114.086 5                  24162228.008
 11  7 28  1 20  0.0000000  0  9G17G02G05G10G09G04G27G12G28
 -66125328.39547 -51475471.78544  22546344.0704                   22546341.6054
 -31959389.75847 -24847089.14146  20739633.6414                   20739628.6804
   2581330.62146   2060626.01243  23392590.2034                   23392589.7034
 -20279888.91847 -15544484.35945  21232519.9534                   21232518.4264
 -19535985.00446 -15180565.02344  22799226.2114                   22799224.7194
 -49100977.12947 -38206989.96945  20719806.4844                   20719804.5554
 -32138104.21546 -24995135.78543  23172828.3914                   23172828.7584
  -9763464.37947  -7001281.91045  22304465.2114                   22304462.5354
 -78638966.262 5                  24163397.219
 11  7 28  1 20 30.0000000  0  9G17G02G05G10G09G04G27G12G28
 -66173495.18747 -51513004.35244  22537178.5004                   22537176.0944
 -32077535.85247 -24939151.00446  20717150.6094                   20717146.6564
   2382304.67246   1905541.00843  23354716.7114                   23354716.3444
 -20420082.45747 -15653726.03945  21205841.8674                   21205840.4844
 -19568398.18746 -15205822.04344  22793058.4774                   22793057.0044
 -49134997.33247 -38233499.20745  20713332.6414                   20713330.9574
 -32178457.48446 -25026579.92243  23165149.7734                   23165149.7544
  -9939435.29347  -7138402.06245  22270979.0314                   22270976.2384
 -78632578.949 5                  24164611.688
 11  7 28  1 21  0.0000000  0  9G17G02G05G10G09G04G27G12G28
 -66221507.28947 -51550416.37944  22528041.6484                   22528039.9024
 -32195291.97747 -25030908.99246  20694742.6484                   20694738.0314
   2183403.10546   1750552.92643  23316866.1804                   23316866.2704
 -20559706.46547 -15762523.91045  21179272.3364                   21179270.9654
 -19600389.36746 -15230750.22744  22786970.3444                   22786969.5354
 -49168676.74247 -38259742.89545  20706923.7344                   20706921.5354
 -32218526.84846 -25057802.83243  23157525.1174                   23157524.7194
 -10115100.53147  -7275284.02045  22237550.6174                   22237548.2304
 -78625953.375 5                  24165873.641
 11  7 28  1 21 30.0000000  0  9G17G02G05G10G09G04G27G12G28
 -66269363.34047 -51587706.81644  22518934.4534                   22518932.6914
 -32312657.90247 -25122362.94146  20672408.4694                   20672403.9614
   1984629.57446   1595664.60943  23279041.3444                   23279040.5984
 -20698758.22347 -15870875.87945  21152811.7584                   21152810.3444
 -19631960.89546 -15255351.40644  22780961.8524                   22780961.4184
 -49202017.21547 -38285722.48845  20700579.7034                   20700577.3204
 -32258314.20346 -25088805.98443  23149952.9454                   23149953.3674
 -10290456.72347  -7411925.18745  22204181.5084                   22204178.6994
 -78619090.934 5                  24167179.953
 11  7 28  1 22  0.0000000  0  9G17G02G05G10G09G04G27G12G28
 -66317062.53947 -51624875.03544  22509857.6484                   22509856.3364
 -32429633.90647 -25213513.04746  20650148.7114                   20650144.4964
   1785987.42646   1440878.65643  23241241.1024                   23241240.4774
 -20837235.20747 -15978779.97345  21126460.7504                   21126458.7704
 -19663115.77746 -15279627.93744  22775033.2274                   22775032.7344
 -49235020.82447 -38311439.57845  20694298.5084                   20694296.5634
 -32297821.87546 -25119591.23043  23142435.4844                   23142435.6484
 -10465500.74647  -7548323.08245  22170871.6094                   22170869.4534
 -78611993.395 5                  24168529.750
 11  7 28  1 22 30.0000000  0  9G17G02G05G10G09G04G27G12G28
 -66364607.62547 -51661923.15244  22500810.5784                   22500808.5634
 -32546223.36747 -25304361.95346  20627962.3054                   20627957.8554
   1587476.49246   1286194.96144  23203465.1174                   23203464.7704
 -20975138.14147 -16086236.76645  21100218.4384                   21100216.7464
 -19693860.27746 -15303584.67244  22769182.2664                   22769182.5474
 -49267692.96147 -38336898.39145  20688081.4924                   20688079.5594
 -32337055.43446 -25150162.83243  23134970.0314                   23134968.8714
 -10640233.07047  -7684478.09845  22137621.3204                   22137618.4414
 -78604665.57045 -60446091.59852  24169924.8204                   24169923.3244
 11  7 28  1 23  0.0000000  0  9G17G02G05G10G09G04G27G12G28
 -66411999.96547 -51698852.25044  22491792.0234                   22491790.3634
 -32662429.15647 -25394911.88746  20605849.6564                   20605844.9064
   1389097.62546   1131614.17644  23165714.6024                   23165714.5824
 -21112466.89147 -16193246.12545  21074085.2734                   21074084.0044
 -19724199.69147 -15327225.76644  22763410.4304                   22763409.1884
 -49300038.08647 -38362102.38745  20681926.2034                   20681924.3094
 -32376019.59846 -25180524.54743  23127555.7814                   23127554.6764
 -10814653.27747  -7820389.92245  22104429.9224                   22104427.1484
 -78597111.57845 -60440205.40642  24171361.8914                   24171362.6604
 11  7 28  1 23 30.0000000  0  9G17G02G05G10G09G04G27G12G28
 -66459235.25447 -51735658.96944  22482803.8364                   22482801.5514
 -32778248.32448 -25485160.56646  20583809.5474                   20583804.7624
   1190857.33646    977141.37143  23127989.8054                   23127990.9264
 -21249215.42647 -16299803.37545  21048062.8984                   21048061.4344
 -19754133.55546 -15350550.84844  22757713.7344                   22757713.0514
 -49332054.55147 -38387050.27345  20675833.8674                   20675832.2464
 -32414713.29746 -25210675.48043  23120191.8674                   23120191.6214
 -10988755.23047  -7956053.75045  22071299.2114                   22071297.0984
 -78589329.83645 -60434141.80942  24172842.7424                   24172844.6524
 11  7 28  1 24  0.0000000  0  9G17G02G05G10G09G04G27G12G28
 -66506314.27347 -51772343.93444  22473844.7974                   22473842.8914
 -32893682.30547 -25575109.09846  20561843.2504                   20561838.4344
    992757.63746    822778.11744  23090293.2114                   23090293.3134
 -21385382.65247 -16405907.66445  21022151.3594                   21022149.3204
 -19783666.20346 -15373563.29744  22752093.7814                   22752092.4264
 -49363746.03547 -38411744.94145  20669802.9454                   20669801.3984
 -32453140.12146 -25240618.46943  23112879.2344                   23112879.4224
 -11162537.39147  -8091468.39845  22038229.8204                   22038227.5864
 -78581323.44945 -60427903.03142  24174367.9694                   24174367.8484
 11  7 28  1 24 30.0000000  0  9G17G02G05G10G09G04G27G12G28
 -64977811.55947 -50581302.85944  22764709.3364                   22764707.4304
 -31433304.72747 -24437152.53146  20839743.6884                   20839739.0784
   2370231.17246   1896134.27044  23352417.6564                   23352417.4534
 -19945538.92247 -15283951.46945  21296144.4844                   21296142.3554
 -18237376.59046 -14168662.32844  23046343.0864                   23046342.2304
 -47819690.64547 -37208584.90245  20963627.0634                   20963625.5704
 -30915878.17246 -24042752.02743  23405411.3284                   23405410.5984
  -9760568.35547  -6999024.97345  22305015.8594                   22305013.6724
 -76997671.33645 -59193888.46142  24475724.8984                   24475727.3484
 11  7 28  1 25  0.0000000  0  8G17G02G05G10G09G04G27G12
 -65024571.08247 -50617738.86344  22755811.1564                   22755809.2774
 -31547965.51247 -24526498.56646  20817924.6414                   20817919.8404
   2172426.15246   1742000.61744  23314776.9384                   23314776.3484
 -20080532.92247 -15389141.56245  21270455.8834                   21270453.5044
 -18266111.51646 -14191053.18044  23040874.9144                   23040873.9494
 -47850734.31247 -37232774.77045  20957720.0314                   20957718.2974
 -30953774.47346 -24072281.60543  23398198.8594                   23398198.7194
  -9933698.34047  -7133931.43045  22272070.5784                   22272067.8054
 11  7 28  1 25 30.0000000  0  8G17G02G05G10G09G04G27G12
 -65071174.05947 -50654052.87944  22746943.0084                   22746941.3244
 -31662244.47747 -24615547.09046  20796177.8984                   20796173.2974
   1974769.40246   1587982.51644  23277163.8594                   23277163.5984
 -20214940.91047 -15493875.02045  21244878.8674                   21244876.6374
 -18294456.32846 -14213140.07044  23035480.2584                   23035479.9844
 -47881461.27747 -37256717.86745  20951872.5234                   20951870.9774
 -30991413.43446 -24101610.68743  23391037.7424                   23391036.5664
 -10106501.87147  -7268583.52745  22239187.0704                   22239184.2704
 11  7 28  1 26  0.0000000  0  8G17G02G05G10G09G04G27G12
 -65117616.57047 -50690241.85544  22738105.0164                   22738103.4384
 -31776139.11747 -24704296.14546  20774504.6724                   20774500.1724
   1777266.52046   1434084.29744  23239579.5164                   23239579.7774
 -20348758.11347 -15598148.12945  21219414.4774                   21219412.2664
 -18322411.34446 -14234923.23844  23030161.2504                   23030160.4454
 -47911870.80547 -37280413.60245  20946085.8524                   20946083.8914
 -31028794.80146 -24130739.01643  23383923.3284                   23383923.2424
 -10278973.43447  -7402976.93045  22206366.7344                   22206364.1684
 11  7 28  1 26 30.0000000  0  8G17G02G05G10G09G04G27G12
 -65163894.50046 -50726302.58244  22729297.8204                   22729296.9844
 -31889646.30947 -24792743.27746  20752904.3594                   20752900.1484
   1579924.69546   1280311.59844  23202027.3204                   23202026.3834
 -20481978.37147 -15701956.09045  21194063.1484                   21194061.1254
 -18349975.63746 -14256401.92644  23024915.2274                   23024914.8524
 -47941961.54747 -37303860.93745  20940360.0314                   20940357.7384
 -31065917.16046 -24159665.53943  23376859.0944                   23376859.1804
 -10451106.65247  -7537106.69945  22173611.0554                   22173608.0704
 11  7 28  1 27  0.0000000  0  8G17G02G05G10G09G04G27G12
 -65210003.53546 -50762231.69544  22720523.8984                   22720522.7854
 -32002763.25847 -24880886.32046  20731379.6564                   20731374.8244
   1382750.36746   1126669.38744  23164505.9614                   23164505.6334
 -20614596.12147 -15805294.57445  21168827.1804                   21168824.7584
 -18377149.10546 -14277576.09043  23019744.6954                   23019744.3134
 -47971732.17247 -37327058.81645  20934694.5234                   20934692.6914
 -31102779.58246 -24188389.48443  23369845.4384                   23369844.5474
 -10622895.74647  -7670968.33245  22140920.8364                   22140917.8714
 11  7 28  1 27 30.0000000  0  8G17G02G05G10G09G04G27G12
 -65255945.93447 -50798030.97344  22711781.5474                   22711780.2344
 -32115493.03947 -24968727.69146  20709927.5234                   20709923.2504
   1185743.60246    973157.76644  23127017.0944                   23127016.4344
 -20746611.85947 -15908163.96145  21143704.8284                   21143703.2584
 -18403937.73446 -14298450.37943  23014647.3984                   23014646.4264
 -48001187.66447 -37350011.15245  20929089.6414                   20929087.4344
 -31139387.47346 -24216915.12943  23362878.7274                   23362878.6954
 -10794340.27347  -7804561.45745  22108295.2894                   22108292.8794
 11  7 28  1 28  0.0000000  0  8G17G02G05G10G09G04G27G12
 -65301724.68746 -50833702.74244  22703070.2664                   22703069.2384
 -32227839.96547 -25056270.72746  20688548.9224                   20688544.3554
    988904.09846    819776.46144  23089559.0634                   23089559.1804
 -20878026.96947 -16010565.30145  21118697.7734                   21118695.6644
 -18430348.18046 -14319029.99244  23009621.4144                   23009620.9614
 -48030333.71147 -37372722.35245  20923543.1644                   20923541.2624
 -31175746.83246 -24245247.11743  23355959.0164                   23355959.8364
 -10965441.18747  -7937886.82045  22075736.1024                   22075733.4614
 11  7 28  1 28 30.0000000  0  8G17G02G05G10G09G04G27G12
 -65347338.39846 -50869245.90244  22694390.2424                   22694388.9614
 -32339804.07447 -25143515.46146  20667242.6174                   20667238.1374
    792235.35246    666528.21944  23052134.7974                   23052133.7664
 -21008839.26247 -16112496.92245  21093804.5004                   21093803.1604
 -18456383.15246 -14339317.04343  23004667.0314                   23004666.3554
 -48059172.09447 -37395193.81645  20918055.5474                   20918053.4414
 -31211859.74646 -24273387.05143  23349087.8444                   23349087.6604
 -11136195.60247  -8070942.18445  22043242.6094                   22043239.9924
 11  7 28  1 29  0.0000000  0  8G17G02G05G10G09G04G27G12
 -65392788.15247 -50904661.30544  22685741.4384                   22685740.5904
 -32451387.46547 -25230463.53146  20646008.8984                   20646004.4184
    595739.09446    513414.37544  23014742.4694                   23014742.2894
 -21139048.32047 -16213958.48045  21069026.6804                   21069024.9184
 -18482047.40246 -14359315.17644  22999783.3204                   22999782.4574
 -48087706.47347 -37417428.38745  20912625.2114                   20912623.2504
 -31247730.49646 -24301338.32443  23342261.2274                   23342261.1954
 -11306602.07847  -8203726.43045  22010814.8204                   22010812.9304
 11  7 28  1 29 30.0000000  0  8G17G02G05G10G09G04G27G12
 -65438075.31647 -50939949.99644  22677123.6254                   22677122.3674
 -32562592.83247 -25317117.04746  20624847.2034                   20624842.7194
    399415.95346    360435.41044  22977383.0394                   22977382.9264
 -21268654.27347 -16314950.09445  21044363.4454                   21044361.6804
 -18507346.44146 -14379028.76244  22994968.8754                   22994969.0234
 -48115941.33647 -37439429.57845  20907252.9144                   20907250.6334
 -31283363.66846 -24329104.46543  23335481.0004                   23335480.6914
 -11476660.34047  -8336239.32845  21978453.8984                   21978451.9304
 11  7 28  1 30  0.0000000  0  8G17G02G05G10G09G04G27G12
 -65483196.84447 -50975109.63344  22668537.5554                   22668535.8984
 -32673418.69147 -25403474.84046  20603757.8204                   20603753.1954
    203271.50446    207595.72344  22940057.7894                   22940057.6414
 -21397652.75047 -16415468.33645  21019816.2274                   21019814.4384
 -18532280.99246 -14398458.28943  22990223.9304                   22990223.7034
 -48143876.49247 -37461197.23045  20901936.8524                   20901934.8674
 -31318759.39846 -24356685.57843  23328745.3524                   23328744.6334
 -11646365.34047  -8468476.97345  21946160.5864                   21946157.9734
 11  7 28  1 30 30.0000000  0  8G17G02G05G10G09G04G27G12
 -65528156.74647 -51010143.32444  22659981.4064                   22659980.6134
 -32783869.83648 -25489540.64546  20582739.2814                   20582734.6134
      7304.26646     54894.10244  22902766.9694                   22902765.9614
 -21526046.08647 -16515515.04745  20995383.6954                   20995381.8134
 -18556858.86346 -14417609.89143  22985547.0554                   22985546.7114
 -48171518.69947 -37482736.60245  20896676.3054                   20896674.4534
 -31353924.89146 -24384087.27743  23322053.8914                   23322053.4264
 -11815718.84847  -8600440.70345  21913933.5164                   21913930.7774
 11  7 28  1 31  0.0000000  0  8G17G02G05G10G09G04G27G12
 -65572954.39847 -51045050.60544  22651456.9694                   22651455.6454
 -32893947.12547 -25575315.13746  20561792.6024                   20561788.0864
   -188482.13746    -97666.60944  22865510.0314                   22865509.1054
 -21653832.44547 -16615088.79745  20971066.5634                   20971064.7544
 -18581083.20746 -14436486.04743  22980937.7664                   22980937.5164
 -48198870.21947 -37504049.47345  20891472.1724                   20891470.0744
 -31388862.79746 -24411311.67643  23315405.4614                   23315405.4264
 -11984718.23847  -8732128.50845  21881773.8834                   21881771.7704
 11  7 28  1 31 30.0000000  0  8G17G02G05G10G09G04G27G12
 -65617588.17246 -51079830.15644  22642963.7424                   22642962.1644
 -33003650.42247 -25660798.20746  20540917.0704                   20540912.0744
   -384084.42246   -250083.84844  22828287.6094                   22828287.0124
 -21781008.97747 -16714187.35245  20946865.3594                   20946863.7814
 -18604956.32446 -14455088.46143  22976394.8204                   22976393.6374
 -48225932.30947 -37525136.80945  20886322.1174                   20886319.9064
 -31423575.15246 -24438360.32843  23308800.0944                   23308799.1994
 -12153359.79747  -8863537.46945  21849682.3444                   21849679.7504
 11  7 28  1 32  0.0000000  0  8G17G02G05G10G09G04G27G12
 -65662059.70746 -51114483.31244  22634500.9454                   22634499.8444
 -33112982.48447 -25745992.01246  20520111.5394                   20520106.6214
   -579501.85546   -402357.03944  22791100.7974                   22791100.1644
 -21907576.45347 -16812811.32445  20922780.4454                   20922778.8914
 -18628483.94146 -14473421.68444  22971917.8284                   22971917.4224
 -48252709.34047 -37546002.01645  20881226.5784                   20881224.4534
 -31458066.60546 -24465236.80143  23302236.0554                   23302236.4264
 -12321643.15247  -8994667.31245  21817659.2274                   21817656.6564
 11  7 28  1 32 30.0000000  0  8G17G02G05G10G09G04G27G12
 -65706363.41046 -51149005.67644  22626070.3054                   22626068.4064
 -33221939.04747 -25830893.21546  20499377.8754                   20499373.5164
   -774726.30946   -554479.86744  22753950.6094                   22753949.9064
 -22033528.05147 -16910955.38345  20898812.9774                   20898810.8754
 -18651664.44146 -14491484.41843  22967507.1414                   22967505.8404
 -48279198.75847 -37566643.11745  20876185.8444                   20876184.0314
 -31492334.92646 -24491939.41843  23295715.8204                   23295715.1524
 -12489560.77747  -9125512.17245  21785705.8444                   21785703.3134
 11  7 28  1 33  0.0000000  0  8G17G02G05G10G09G04G27G12
 -64175080.54346 -49955798.23844  22917463.5554                   22917462.3794
 -31755100.19147 -24687901.88346  20778507.7664                   20778503.5274
    605668.85546    521152.84444  23016631.0864                   23016630.4344
 -20583440.98847 -15781017.38345  21174755.1954                   21174753.1604
 -17099083.44146 -13281681.01644  23262953.6024                   23262952.8634
 -46729984.88347 -36359463.46545  21170991.2894                   21170989.2664
 -29950964.62146 -23290871.71543  23589028.3054                   23589027.7384
 -11081687.54347  -8028468.05145  22053614.9844                   22053612.4734
 11  7 28  1 33 30.0000000  0  8G17G02G05G10G09G04G27G12
 -64219053.50046 -49990062.88744  22909095.8914                   22909094.0984
 -31863314.55147 -24772224.73046  20757915.3524                   20757910.5634
    410833.28546    369333.04344  22979554.9224                   22979554.2114
 -20708162.05547 -15878202.59445  21151021.3594                   21151019.0314
 -17121585.89846 -13299215.42643  23258670.6954                   23258670.0234
 -46755911.99647 -36379666.41445  21166057.9454                   21166055.5164
 -29984800.77746 -23317237.55943  23582588.7814                   23582589.1414
 -11248872.37147  -8158741.89845  22021800.6484                   22021798.0664
 11  7 28  1 34  0.0000000  0  8G17G02G05G10G09G04G27G12
 -64262861.89546 -50024199.32044  22900759.7814                   22900758.0944
 -31971160.82847 -24856260.77746  20737392.9534                   20737388.0984
    216194.75846    217666.79344  22942517.0004                   22942515.8714
 -20832267.28147 -15974907.93745  21127405.1334                   21127402.5704
 -17143756.09446 -13316490.85543  23254451.6724                   23254450.3754
 -46781563.31647 -36399654.45345  21161176.6484                   21161174.0004
 -30018426.80946 -23343439.69943  23576191.2894                   23576190.1884
 -11415688.85947  -8288728.72345  21990056.3134                   21990054.1484
 11  7 28  1 34 30.0000000  0  8G17G02G05G10G09G04G27G12
 -64306505.36746 -50058207.22744  22892454.3284                   22892452.9494
 -32078639.78147 -24940010.59046  20716940.1174                   20716935.6804
     21756.31646     66156.43844  22905516.1174                   22905515.1054
 -20955754.46547 -16071131.68045  21103906.8524                   21103903.9574
 -17165597.33246 -13333510.02343  23250296.2424                   23250295.1374
 -46806941.05547 -36419429.32045  21156347.0084                   21156344.8204
 -30051845.47346 -23369480.26243  23569831.0164                   23569831.2074
 -11582134.24647  -8418426.37945  21958382.5234                   21958380.2034
 11  7 28  1 35  0.0000000  0  8G17G02G05G10G09G04G27G12
 -64349983.18746 -50092086.05544  22884181.3524                   22884179.3484
 -32185751.90647 -25023474.56246  20696557.6804                   20696552.8484
   -172478.75046    -85195.44944  22868554.6564                   22868553.4454
 -21078621.85547 -16166872.47345  21080525.1954                   21080523.1174
 -17187112.98046 -13350275.43743  23246201.8914                   23246200.4924
 -46832047.12947 -36438992.48445  21151569.5784                   21151567.3444
 -30085059.34446 -23395361.22743  23563510.9454                   23563510.5904
 -11748206.03947  -8547832.93045  21926780.3444                   21926777.8714
 11  7 28  1 35 30.0000000  0  8G17G02G05G10G09G04G27G12
 -64393295.39547 -50125835.81644  22875938.8914                   22875937.3674
 -32292499.02747 -25106654.11346  20676244.3444                   20676239.8954
   -366508.58246   -236387.43044  22831630.8284                   22831630.5514
 -21200869.18447 -16262130.10545  21057262.4844                   21057260.2424
 -17208307.39146 -13366790.58243  23242168.5784                   23242167.2034
 -46856885.01647 -36458346.68745  21146842.8984                   21146841.4104
 -30118072.23846 -23421085.58243  23557228.5394                   23557228.8874
 -11913902.74647  -8676947.20745  21895249.2894                   21895246.6684
 11  7 28  1 36  0.0000000  0  8G17G02G05G10G09G04G27G12
 -64436440.22346 -50159455.15644  22867728.9224                   22867727.5234
 -32398880.20747 -25189548.52046  20656000.2974                   20655996.1134
   -560328.32846   -387415.68744  22794748.6804                   22794747.5944
 -21322493.21947 -16356902.05545  21034117.8524                   21034115.7974
 -17229182.01646 -13383056.55144  23238196.3984                   23238195.5474
 -46881455.14147 -36477492.25045  21142167.6254                   21142165.1334
 -30150884.89146 -23446653.91443  23550984.1414                   23550984.7934
 -12079219.87147  -8805765.71145  21863790.5004                   21863788.2154
 11  7 28  1 36 30.0000000  0  8G17G02G05G10G09G04G27G12
 -64479417.43446 -50192943.88744  22859550.5004                   22859548.9774
 -32504896.97747 -25272158.95346  20635826.4844                   20635821.6484
   -753935.85546   -538278.58244  22757905.9304                   22757905.3094
 -21443493.03547 -16451187.58245  21011092.6334                   21011091.0704
 -17249740.96546 -13399076.51243  23234284.0944                   23234282.8674
 -46905760.61747 -36496431.59845  21137542.7344                   21137540.2624
 -30183500.88746 -23472068.98843  23544777.6094                   23544777.9844
 -12244155.61747  -8934287.05145  21832404.2274                   21832401.9454
 11  7 28  1 37  0.0000000  0  8G17G02G05G10G09G04G27G12
 -64522226.62546 -50226301.70344  22851404.7194                   22851402.5944
 -32610550.21147 -25354486.12546  20615721.2034                   20615716.3554
   -947328.12946   -688973.76244  22721104.6644                   22721104.4064
 -21563867.09847 -16544985.52745  20988185.8364                   20988183.8874
 -17269987.79746 -13414853.26243  23230431.1334                   23230430.2814
 -46929803.21547 -36515166.09445  21132967.2344                   21132964.9734
 -30215922.93046 -23497332.97343  23538608.7814                   23538608.1414
 -12408707.44547  -9062509.22745  21801091.1334                   21801088.4264
 11  7 28  1 37 30.0000000  0  8G17G02G05G10G09G04G27G12
 -64564867.32846 -50259528.21144  22843290.4454                   22843288.1844
 -32715840.96547 -25436530.83646  20595684.0704                   20595680.1454
  -1140502.18446   -839498.89544  22684345.7504                   22684343.6724
 -21683614.03147 -16638294.78945  20965399.2974                   20965397.0434
 -17289925.98046 -13430389.56643  23226636.6954                   23226635.9494
 -46953585.75847 -36533697.96945  21128441.4694                   21128439.6294
 -30248154.01646 -23522448.07443  23532474.9614                   23532474.8094
 -12572873.01247  -9190430.43445  21769850.9924                   21769848.4534
 11  7 28  1 38  0.0000000  0  8G17G02G05G10G09G04G27G12
 -64607339.02046 -50292623.04344  22835207.6334                   22835206.2154
 -32820769.79747 -25518293.53146  20575717.1484                   20575712.6414
  -1333455.18046   -989851.77044  22647627.2814                   22647626.4804
 -21802732.35547 -16731114.22745  20942731.9144                   20942729.8284
 -17309559.08246 -13445688.07043  23222900.8834                   23222900.2344
 -46977110.28947 -36552028.78145  21123965.0704                   21123962.9104
 -30280196.50846 -23547416.29343  23526377.2734                   23526377.4184
 -12736649.61347  -9318048.53945  21738685.3914                   21738682.8984
 11  7 28  1 38 30.0000000  0  8G17G02G05G10G09G04G27G12
 -64649640.21146 -50325585.01644  22827158.3674                   22827156.5474
 -32925337.01647 -25599774.44946  20555819.2194                   20555814.3834
  -1526183.07846  -1140029.27044  22610951.7424                   22610951.2974
 -21921219.92647 -16823442.17245  20920184.2274                   20920182.0824
 -17328889.30046 -13460750.64643  23219222.7584                   23219222.2384
 -47000378.28547 -36570159.70745  21119537.2974                   21119535.2234
 -30312052.55946 -23572239.17243  23520315.1414                   23520315.4384
 -12900034.07847  -9445361.08245  21707594.6414                   21707591.8554
 11  7 28  1 39  0.0000000  0  8G17G02G05G10G09G04G27G12
 -64691772.07447 -50358415.03544  22819140.3524                   22819138.9184
 -33029544.89547 -25680975.35546  20535988.5944                   20535984.2304
  -1718684.71546  -1290030.43744  22574320.6884                   22574319.6804
 -22039077.05147 -16915278.85245  20897756.9224                   20897754.3204
 -17347921.73446 -13475581.11343  23215600.4844                   23215599.6804
 -47023393.59847 -36588093.73045  21115157.5704                   21115155.3444
 -30343726.62146 -23596920.29743  23514288.2734                   23514287.9924
 -13063025.37147  -9572367.24645  21676578.6254                   21676575.8284
 11  7 28  1 39 30.0000000  0  8G17G02G05G10G09G04G27G12
 -64733733.81246 -50391112.48844  22811156.2504                   22811154.2194
 -33133394.11347 -25761896.79346  20516226.9774                   20516222.5944
  -1910956.68447  -1439852.64544  22537732.5864                   22537730.7934
 -22156301.82847 -17006622.80145  20875449.8134                   20875447.0204
 -17366659.37946 -13490181.93043  23212034.7664                   23212035.0944
 -47046157.95747 -36605832.21145  21110825.8754                   21110823.2734
 -30375221.02346 -23621461.37543  23508294.4454                   23508294.7854
 -13225620.45747  -9699064.68445  21645637.1724                   21645634.8244
 11  7 28  1 40  0.0000000  0  9G17G02G05G10G09G04G27G12G25
 -64775524.93746 -50423677.00444  22803203.1884                   22803201.4804
 -33236885.47347 -25842539.38346  20496533.3524                   20496528.8054
  -2102995.96947  -1589493.56244  22501188.1644                   22501187.4144
 -22272893.10247 -17097473.12145  20853262.7974                   20853260.8134
 -17385105.91046 -13504555.87543  23208524.9614                   23208524.2154
 -47068673.77047 -36623377.01245  21106541.1644                   21106538.9964
 -30406538.47346 -23645864.65243  23502335.1724                   23502335.6484
 -13387817.06247  -9825451.60945  21614772.4924                   21614769.6564
  18615798.33256  14552753.76253  24549743.0004                   24549744.3324
 11  7 28  1 40 30.0000000  0  9G17G02G05G10G09G04G27G12G25
 -64817147.63346 -50456110.27044  22795282.4304                   22795280.8794
 -33340022.90647 -25922906.19146  20476906.6804                   20476902.6214
  -2294802.62147  -1738953.19544  22464688.5394                   22464687.1094
 -22388852.36347 -17187830.93745  20831196.1564                   20831194.7304
 -17403267.81246 -13518708.05943  23205068.1094                   23205068.2194
 -47090946.21147 -36640732.17245  21102302.9844                   21102300.5704
 -30437684.77745 -23670134.51243  23496407.8134                   23496408.9384
 -13549615.93747  -9951528.59845  21583983.3834                   21583980.5084
  18419607.33646  14399877.75843  24512408.4614                   24512410.5004
 11  7 28  1 41  0.0000000  0  9G17G02G05G10G09G04G27G12G25
 -64858605.94546 -50488415.43744  22787393.1954                   22787391.5704
 -33442812.09447 -26003001.63346  20457346.9774                   20457342.1214
  -2486378.09046  -1888232.69944  22428232.5634                   22428231.9454
 -22504182.58647 -17277698.62145  20809249.6024                   20809247.6884
 -17421152.73846 -13532644.43043  23201665.2194                   23201664.8714
 -47112981.99247 -36657902.92245  21098109.3444                   21098107.5004
 -30468667.20346 -23694276.70742  23490513.3594                   23490513.2664
 -13711018.68747 -10077296.92645  21553269.6564                   21553266.6174
  18223546.82446  14247103.32442  24475100.1254                   24475101.6804
 11  7 28  1 41 30.0000000  0  9G17G02G05G10G09G04G27G12G25
 -63324478.63747 -49292991.55544  23079328.4614                   23079326.6914
 -31969830.49647 -24855223.73446  20737645.5944                   20737641.2234
  -1102293.91847   -809725.45744  22691615.4224                   22691614.3284
 -21043459.75447 -16139473.00045  21087216.1024                   21087213.5744
 -15863344.01246 -12318767.51643  23498106.1804                   23498105.1174
 -45559363.00847 -35447290.74245  21393752.8914                   21393751.3204
 -28924067.91046 -22490692.89143  23784440.4384                   23784439.7154
 -12296598.15647  -8975150.98845  21822424.7034                   21822421.5124
                                  19603045.301 6                  24737609.016
 11  7 28  1 42  0.0000000  0  9G17G02G05G10G09G04G27G12G25
 -63365608.76246 -49325041.00044  23071501.3054                   23071499.4654
 -32071926.89147 -24934779.34046  20718216.9694                   20718212.2704
  -1293400.53947   -958639.62144  22655248.1174                   22655247.4224
 -21157530.88347 -16228359.55945  21065508.9144                   21065506.7274
 -15880687.09046 -12332281.60944  23494805.9844                   23494805.7344
 -45580933.88747 -35464099.22745  21389648.7114                   21389646.9614
 -28954732.48846 -22514587.46943  23778604.5164                   23778605.2664
 -12457203.44947  -9100297.89845  21791862.6724                   21791859.7774
                                  19407251.379 6                  24700351.523
 11  7 28  1 42 30.0000000  0  9G17G02G05G10G09G04G27G12G25
 -63406573.95347 -49356961.92644  23063706.1564                   23063704.1804
 -32173678.76647 -25014066.48846  20698854.4144                   20698850.2074
  -1484268.16047  -1107367.53944  22618927.6094                   22618926.4184
 -21270970.95747 -16316754.38345  21043922.2504                   21043919.8244
 -15897764.83646 -12345589.00843  23491556.1484                   23491556.3554
 -45602275.86347 -35480729.34045  21385587.1024                   21385585.4774
 -28985242.88346 -22538361.82443  23772799.6484                   23772799.2584
 -12617406.60247  -9225131.46945  21761376.6564                   21761373.9694
                                  19211594.164 5                  24663119.297
 11  7 28  1 43  0.0000000  0  9G17G02G05G10G09G04G27G12G25
 -63447371.37146 -49388752.12144  23055942.8524                   23055940.3014
 -32275084.20347 -25093083.68746  20679558.0474                   20679553.2114
  -1674891.15247  -1255904.85244  22582653.5084                   22582652.1564
 -21383775.96947 -16404654.37145  21022455.9534                   21022453.8284
 -15914577.71146 -12358689.96543  23488356.5234                   23488356.1524
 -45623388.50447 -35497180.76645  21381570.0234                   21381567.8484
 -29015598.81246 -22562015.84443  23767021.6884                   23767023.3634
 -12777202.30947  -9349647.53145  21730968.3134                   21730965.5864
                                  19016078.762 5                  24625912.852
 11  7 28  1 43 30.0000000  0  9G17G02G05G10G09G04G27G12G25
 -63487999.44947 -49420410.34444  23048211.7344                   23048209.5124
 -32376143.19147 -25171830.93046  20660326.9454                   20660322.1884
  -1865265.85247  -1404248.67644  22546425.8914                   22546424.9414
 -21495943.91847 -16492057.93445  21001111.3524                   21001108.9844
 -15931128.21546 -12371586.50443  23485208.3134                   23485207.4454
 -45644273.09047 -35513454.45745  21377595.4454                   21377593.5784
 -29045802.37546 -22585551.16443  23761274.5004                   23761275.9654
 -12936587.61347  -9473843.80145  21700638.3914                   21700635.6054
                                  18820708.566 6                  24588735.188
 11  7 28  1 44  0.0000000  0  9G17G02G05G10G09G04G27G12G25
 -63528458.69946 -49451937.03944  23040512.3134                   23040510.4384
 -32476857.84847 -25250309.85546  20641161.5784                   20641156.6764
  -2055390.10247  -1552397.36744  22510246.8204                   22510245.6954
 -21607474.60247 -16578964.91845  20979887.5784                   20979885.2624
 -15947420.98446 -12384282.19943  23482106.8524                   23482106.4574
 -45664932.72747 -35529552.87945  21373663.8674                   21373662.3984
 -29075857.33646 -22608970.67643  23755554.7504                   23755555.9804
 -13095560.44547  -9597718.68045  21670386.4694                   21670384.1954
  18625485.18046  15251183.58253  24551584.9454                   24551587.8674
 11  7 28  1 44 30.0000000  0  9G17G02G05G10G09G04G27G12G25
 -63568744.60246 -49483328.65244  23032846.3054                   23032844.1994
 -32577225.11747 -25328518.09846  20622062.2814                   20622057.8634
  -2245257.04747  -1700345.54744  22474116.4924                   22474114.8954
 -21718362.86747 -16665371.32845  20958786.1174                   20958784.0004
 -15963455.38746 -12396776.55543  23479056.0784                   23479056.2034
 -45685365.73847 -35545474.71545  21369776.1954                   21369773.9184
 -29105762.46546 -22632273.44543  23749864.7664                   23749866.0394
 -13254114.71947  -9721267.41045  21640214.9454                   21640212.1094
  18430415.02046  15099180.88343  24514464.3364                   24514466.4844
 11  7 28  1 45  0.0000000  0  9G17G02G05G10G09G04G27G12G25
 -63608854.32446 -49514582.98444  23025213.4614                   23025211.7304
 -32677243.72747 -25406454.65646  20603029.3134                   20603024.9804
  -2434861.52747  -1848089.21144  22438036.0704                   22438034.5744
 -21828605.53147 -16751274.66045  20937807.4774                   20937805.3524
 -15979232.65246 -12409070.53943  23476054.0864                   23476053.4024
 -45705572.08247 -35561219.92245  21365930.8914                   21365929.0554
 -29135518.35546 -22655459.91443  23744202.7814                   23744203.1844
 -13412245.44147  -9844486.10245  21610123.4534                   21610120.8834
  18235502.70346  14947301.21943  24477374.4534                   24477376.0314
 11  7 28  1 45 30.0000000  0  9G17G02G05G10G09G04G27G12G25
 -63648789.75846 -49545701.50444  23017614.6644                   23017612.3484
 -32776917.06247 -25484122.16446  20584062.0004                   20584056.9774
  -2624203.00847  -1995627.96545  22402005.0704                   22402003.4304
 -21938204.03547 -16836676.06645  20916951.6884                   20916949.1604
 -15994758.70746 -12421168.77743  23473098.8204                   23473098.1484
 -45725556.33247 -35576792.06645  21362127.8444                   21362125.9384
 -29165130.20746 -22678534.15643  23738567.8364                   23738568.5514
 -13569953.05147  -9967375.10945  21580112.5864                   21580110.2974
  18040748.25046  14795544.61743  24440313.9534                   24440315.3164
 11  7 28  1 46  0.0000000  0  9G17G02G05G10G09G04G27G12G25
 -63688552.22346 -49576685.24644  23010047.3054                   23010045.3134
 -32876247.80147 -25561522.72746  20565160.1564                   20565155.4344
  -2813280.32447  -2142960.85544  22366024.7424                   22366023.3834
 -22047159.46147 -16921576.36745  20896218.4064                   20896215.9924
 -16010038.90246 -12433075.43443  23470191.0004                   23470190.8874
 -45745322.34447 -35592194.15645  21358366.4304                   21358364.7384
 -29194602.37146 -22701499.55143  23732960.5234                   23732959.3444
 -13727236.80547 -10089933.84845  21550182.3754                   21550179.9414
  17846152.71146  14643911.82843  24403283.0164                   24403284.6724
 11  7 28  1 46 30.0000000  0  9G17G02G05G10G09G04G27G12G25
 -63728139.15246 -49607532.19944  23002514.2034                   23002512.1914
 -32975234.81647 -25638655.45346  20546323.3754                   20546318.8014
  -3002088.50847  -2290084.04344  22330095.9384                   22330094.6524
 -22155468.54347 -17005973.02745  20875607.9064                   20875605.5984
 -16025074.29746 -12444791.34843  23467330.5634                   23467330.2194
 -45764870.13747 -35607426.20345  21354646.8444                   21354644.7154
 -29223935.63746 -22724356.68743  23727378.3674                   23727378.1484
 -13884092.24647 -10212158.83645  21520334.2584                   21520331.3554
  17651720.37146  14492406.15643  24366283.8204                   24366284.6524
 11  7 28  1 47  0.0000000  0  9G17G02G05G10G09G04G27G12G25
 -63767551.48046 -49638243.08644  22995013.6174                   22995012.7814
 -33073880.64847 -25715522.30946  20527551.5394                   20527546.9774
  -3190626.07447  -2436996.35244  22294217.9144                   22294216.6094
 -22263131.73447 -17089866.38745  20855120.5004                   20855117.9384
 -16039869.98246 -12456320.41243  23464514.1414                   23464514.0514
 -45784203.41447 -35622491.08245  21350967.6254                   21350965.9534
 -29253134.25446 -22747108.91043  23721821.3134                   23721822.0554
 -14040518.40647 -10334049.32845  21490567.6414                   21490564.4734
  17457452.44946  14341028.56643  24329316.2814                   24329316.7034
 11  7 28  1 47 30.0000000  0  9G17G02G05G10G09G04G27G12G25
 -63806787.68446 -49668816.72744  22987547.9144                   22987546.0394
 -33172185.17647 -25792123.21146  20508844.8134                   20508840.2034
  -3378888.67647  -2583694.40244  22258392.5164                   22258391.6214
 -22370146.96147 -17173254.84445  20834755.6954                   20834753.6294
 -16054427.97746 -12467664.34043  23461744.8674                   23461744.1454
 -45803323.12547 -35637389.55945  21347329.6094                   21347327.5984
 -29282199.75846 -22769757.39843  23716291.1484                   23716291.4224
 -14196511.66847 -10455602.49645  21460882.7114                   21460879.7584
  17263352.69546  14189782.07443  24292379.4924                   24292381.1254
 11  7 28  1 48  0.0000000  0  9G17G02G05G10G09G04G27G12G25
 -63845848.68046 -49699253.85244  22980114.0394                   22980112.5744
 -33270150.95747 -25868460.14846  20490202.7584                   20490197.9884
  -3566875.32047  -2730177.41044  22222620.2424                   22222618.8834
 -22476515.02347 -17256139.01645  20814514.6884                   20814512.3054
 -16068753.74646 -12478827.28943  23459018.4454                   23459018.2934
 -45822232.89547 -35652124.42645  21343730.1484                   21343728.9184
 -29311136.63746 -22792305.62943  23710783.8984                   23710784.0514
 -14352070.96147 -10576817.51645  21431280.3594                   21431277.5744
  17069421.76246  14038667.18443  24255476.0004                   24255477.0084
 11  7 28  1 48 30.0000000  0  9G17G02G05G10G09G04G27G12G25
 -63884730.75846 -49729551.57044  22972715.1564                   22972713.4534
 -33367775.30547 -25944531.04746  20471625.4384                   20471620.7384
  -3754579.32046  -2876440.18744  22186901.3754                   22186900.4614
 -22582231.51647 -17338515.47345  20794397.2734                   20794394.8164
 -16082847.34446 -12489809.30943  23456336.1414                   23456336.3094
 -45840931.78147 -35666694.98845  21340172.6644                   21340171.0434
 -29339944.28546 -22814753.19143  23705301.8204                   23705303.0274
 -14507191.07447 -10697690.31645  21401762.2274                   21401759.5394
  16875665.85546  13887688.54343  24218606.5704                   24218606.6374
 11  7 28  1 49  0.0000000  0  9G17G02G05G10G09G04G27G12G25
 -63923433.97346 -49759709.89844  22965350.5234                   22965348.6374
 -33465060.44147 -26020337.62146  20453112.6564                   20453108.1644
  -3941998.94547  -3022481.37144  22151236.1174                   22151235.0314
 -22687296.73447 -17420384.45345  20774404.0394                   20774401.8754
 -16096712.81646 -12500613.55943  23453697.6804                   23453697.6024
 -45859422.53147 -35681103.34845  21336654.2584                   21336651.7734
 -29368626.32846 -22837102.85542  23699844.4614                   23699844.5634
 -14661870.23847 -10818219.52745  21372327.8914                   21372324.7734
  16682086.42646  13736847.44543  24181769.3594                   24181769.3444
 11  7 28  1 49 30.0000000  0  9G17G02G05G10G09G04G27G12G25
 -63961960.02346 -49789730.17243  22958018.7504                   22958017.4534
 -33562009.43747 -26095882.28546  20434664.0084                   20434658.9264
  -4129133.16046  -3168300.15244  22115625.9844                   22115624.0164
 -22791711.81647 -17501746.81645  20754534.7424                   20754532.3094
 -16110355.67646 -12511244.38743  23451101.6414                   23451101.4344
 -45877709.58647 -35695352.98445  21333174.2114                   21333172.0004
 -29397187.78146 -22859358.56643  23694409.5554                   23694409.4734
 -14816108.39847 -10938405.08645  21342977.4774                   21342974.4964
  16488684.05146  13586144.31643  24144965.1884                   24144966.4774
 11  7 28  1 50  0.0000000  0  9G17G02G05G10G09G04G27G12G25
 -62424884.80146 -48592009.18744  23250515.1334                   23250513.2424
 -32083197.36347 -24943561.16846  20716072.0084                   20716067.8444
  -2740550.18047  -2086287.35945  22379864.4534                   22379863.0434
 -21320049.80947 -16354997.17245  21034582.7814                   21034580.5634
 -14548356.25846 -11294102.00443  23748341.6414                   23748340.2854
 -44320371.51647 -34481842.77345  21629525.7424                   21629523.5274
 -27850207.54345 -21653919.45743  23988789.1174                   23988790.4224
 -13394475.17247  -9830638.91845  21613505.1174                   21613501.9614
  17870890.26246  14663188.08243  24407991.3674                   24407991.6374
 11  7 28  1 50 30.0000000  0  9G17G02G05G10G09G04G27G12G25
 -62463054.44946 -48621751.74644  23243251.6644                   23243249.4804
 -32179476.21147 -25018583.62946  20697751.0314                   20697746.4494
  -2927103.60547  -2231653.57445  22344364.9924                   22344362.7504
 -21423161.38747 -16435343.82045  21014960.9924                   21014958.7384
 -14561562.99646 -11304393.02343  23745827.1024                   23745827.2814
 -44338255.86747 -34495778.62945  21626122.6254                   21626120.4184
 -27878534.61345 -21675992.53542  23983399.1094                   23983400.2734
 -13547822.57047  -9950130.36745  21584323.8914                   21584321.0704
  17677850.77046  14512767.68443  24371256.6094                   24371257.5434
 11  7 28  1 51  0.0000000  0  9G17G02G05G10G09G04G27G12G25
 -62501046.81246 -48651356.18744  23236021.4924                   23236019.7734
 -32275423.14547 -25093347.44946  20679493.1254                   20679488.3094
  -3113364.35247  -2376791.73045  22308920.4924                   22308918.8914
 -21525622.15247 -16515183.35245  20995463.2814                   20995460.7504
 -14574558.86346 -11314519.63743  23743355.2114                   23743354.1804
 -44355944.25847 -34509561.77045  21622756.4534                   21622754.3874
 -27906750.85545 -21697979.30142  23978030.5394                   23978032.1254
 -13700722.82847 -10069273.39845  21555227.8524                   21555225.1954
  17484994.51646  14362490.09043  24334556.7114                   24334558.6954
 11  7 28  1 51 30.0000000  0  9G17G02G05G10G09G04G27G12G25
 -62538860.87946 -48680821.67244  23228825.8834                   23228823.7664
 -32371038.62147 -25167852.99246  20661297.6094                   20661293.1564
  -3299328.89547  -2521699.09844  22273532.1024                   22273530.8094
 -21627430.86347 -16594514.77345  20976089.1724                   20976087.3284
 -14587346.69946 -11324484.22343  23740920.8914                   23740920.8204
 -44373438.03547 -34523193.27345  21619427.5634                   21619425.4494
 -27934858.16845 -21719881.09842  23972681.4844                   23972682.7974
 -13853173.33647 -10188065.97745  21526217.8054                   21526214.6524
  17292324.60546  14212357.71142  24297893.2584                   24297895.0904
 11  7 28  1 52  0.0000000  0  9G17G02G05G10G09G04G27G12G25
 -62576498.09846 -48710149.37944  23221663.7344                   23221662.4614
 -32466325.79347 -25242102.71546  20643165.3284                   20643160.8054
  -3484996.29747  -2666374.90645  22238200.8914                   22238199.3054
 -21728588.71147 -16673339.03945  20956839.8054                   20956837.5514
 -14599932.16046 -11334291.11343  23738526.1564                   23738526.0704
 -44390741.16847 -34536676.22345  21616134.9304                   21616132.3954
 -27962861.69545 -21741702.16442  23967352.1724                   23967353.3324
 -14005173.74247 -10306507.80945  21497292.6254                   21497289.9304
  17099841.86346  14062371.16843  24261264.6024                   24261265.9264
 11  7 28  1 52 30.0000000  0  9G17G02G05G10G09G04G27G12G25
 -62613958.79346 -48739339.51644  23214535.1334                   23214533.7464
 -32561286.51647 -25316098.05146  20625095.0314                   20625090.3794
  -3670364.29347  -2810817.43045  22202926.5314                   22202924.9304
 -21829095.98047 -16751656.37145  20937714.0164                   20937711.4224
 -14612318.80946 -11343943.08243  23736168.6024                   23736168.7894
 -44407856.35947 -34550012.72345  21612877.5394                   21612875.4494
 -27990764.23845 -21763444.36743  23962043.1484                   23962043.1844
 -14156722.09447 -10424597.40245  21468454.3524                   21468451.0124
  16907548.26646  13912531.94943  24224673.0704                   24224673.6724
 11  7 28  1 53  0.0000000  0  9G17G02G05G10G09G04G27G12G25
 -62651243.66446 -48768392.66844  23207440.4304                   23207438.4224
 -32655922.81247 -25389840.59446  20607086.5004                   20607081.7194
  -3855430.97747  -2955025.16045  22167709.3834                   22167707.9184
 -21928953.14547 -16829467.11745  20918712.1644                   20918709.2664
 -14624511.44946 -11353443.90643  23733849.7814                   23733849.0314
 -44424786.69147 -34563205.19945  21609655.7734                   21609653.7234
 -28018570.05545 -21785111.32443  23956751.3134                   23956752.0634
 -14307817.66447 -10542334.17645  21439701.2344                   21439698.7664
  16715445.20746  13762841.27343  24188115.8674                   24188117.5984
 11  7 28  1 53 30.0000000  0  9G17G02G05G10G09G04G27G12G25
 -62688350.54746 -48797307.11744  23200378.0394                   23200377.4734
 -32750234.04747 -25463329.85546  20589139.3594                   20589134.5354
  -4040191.87947  -3098994.61345  22132549.9534                   22132548.6684
 -22028157.80547 -16906769.42245  20899833.9144                   20899831.4064
 -14636512.03946 -11362795.06243  23731565.4614                   23731565.3594
 -44441532.79347 -34576254.09045  21606469.2114                   21606467.2704
 -28046280.43446 -21806703.91843  23951478.9614                   23951479.1414
 -14458456.48847 -10659715.03545  21411036.1024                   21411033.0634
  16523537.01246  13613302.60543  24151597.2734                   24151598.8364
 11  7 28  1 54  0.0000000  0  9G17G02G05G10G09G04G27G12G25
 -62725276.78146 -48826080.81644  23193351.3834                   23193350.3484
 -32844219.63347 -25536565.34846  20571254.4304                   20571249.8324
  -4224642.35947  -3242722.19545  22097450.5474                   22097448.8094
 -22126707.40647 -16983561.27745  20881080.4694                   20881077.7234
 -14648321.78146 -11371997.51243  23729318.1094                   23729317.6214
 -44458094.70747 -34589159.48045  21603317.7974                   21603315.3404
 -28073896.13346 -21828222.66843  23946222.5084                   23946223.9694
 -14608634.10547 -10776736.52345  21382458.1174                   21382455.1764
  16331828.01646  13463919.10543  24115116.7894                   24115117.0864
 11  7 28  1 54 30.0000000  0  9G17G02G05G10G09G04G27G12G25
 -62762024.47346 -48854715.37943  23186359.0704                   23186357.4494
 -32937882.59847 -25609549.46146  20553431.3444                   20553426.3524
  -4408781.34047  -3386207.04745  22062410.1254                   22062408.4574
 -22224604.03947 -17059844.34845  20862451.2424                   20862448.7894
 -14659946.47346 -11381055.73043  23727105.8364                   23727105.4614
 -44474476.78147 -34601924.73044  21600200.6024                   21600198.1884
 -28101422.18446 -21849671.60243  23940985.6484                   23940986.0864
 -14758350.58247 -10893398.66845  21353967.9304                   21353965.1134
  16140318.66846  13314691.15243  24078674.0474                   24078674.3554
 11  7 28  1 55  0.0000000  0  9G17G02G05G10G09G04G27G12G25
 -62798593.34446 -48883210.60543  23179400.9454                   23179398.7504
 -33031224.30547 -25682283.23846  20535668.8284                   20535663.8324
  -4592606.45747  -3529447.32445  22027429.3914                   22027427.2624
 -22321847.51247 -17135618.46145  20843946.3834                   20843943.8204
 -14671389.94546 -11389972.78143  23724928.7034                   23724927.7624
 -44490681.09847 -34614551.47345  21597116.5704                   21597114.9224
 -28128861.37146 -21871052.89543  23935764.1024                   23935764.4964
 -14907604.12547 -11009700.09845  21325565.5004                   21325562.9024
  15949011.13346  13165620.53143  24042268.3674                   24042269.7154
 11  7 28  1 55 30.0000000  0  9G17G02G05G10G09G04G27G12G25
 -62834982.29746 -48911565.63743  23172476.0084                   23172474.1564
 -33124245.23047 -25754767.06246  20517967.1094                   20517962.5824
  -4776114.36747  -3672440.41845  21992508.9144                   21992507.4104
 -22418436.65647 -17210882.70345  20825566.4144                   20825563.6804
 -14682654.84446 -11398750.67643  23722785.1884                   23722784.9184
 -44506709.35247 -34627041.02345  21594066.2974                   21594064.7234
 -28156216.14846 -21892368.35943  23930559.1094                   23930559.7154
 -15056391.79347 -11125638.50445  21297251.8134                   21297249.4414
  15757908.63346  13016709.70343  24005902.7274                   24005904.0904
 11  7 28  1 56  0.0000000  0  9G17G02G05G10G09G04G27G12G25
 -62871191.18046 -48939780.34443  23165585.5314                   23165583.8834
 -33216946.67647 -25827001.93446  20500327.1334                   20500322.0124
  -4959302.14847  -3815184.05945  21957648.9844                   21957647.7814
 -22514370.96947 -17285636.69545  20807310.3754                   20807307.8754
 -14693744.99646 -11407392.37543  23720673.9384                   23720673.5784
 -44522563.66047 -34639395.03145  21591049.6724                   21591047.4264
 -28183489.19946 -21913620.18043  23925369.3914                   23925369.7384
 -15204711.23447 -11241212.05945  21269028.2584                   21269025.4774
  15567013.61346  12867960.52743  23969576.7114                   23969577.5824
 11  7 28  1 56 30.0000000  0  9G17G02G05G10G09G04G27G12G25
 -62907221.03546 -48967855.56243  23158729.1884                   23158727.7034
 -33309331.69547 -25898990.24246  20482747.0704                   20482742.0354
  -5142168.70347  -3957677.40245  21922851.1564                   21922849.4384
 -22609652.44547 -17359881.96545  20789179.0944                   20789176.9414
 -14704665.50046 -11415901.90243  23718596.7034                   23718595.7624
 -44538247.77747 -34651616.41845  21588064.9144                   21588063.0554
 -28210685.30145 -21934812.03543  23920193.4224                   23920194.3754
 -15352562.35947 -11356420.69945  21240893.2664                   21240890.2194
  15376326.93846  12719373.68043  23933289.9774                   23933291.0274
 11  7 28  1 57  0.0000000  0  9G17G02G05G10G09G04G27G12G25
 -62943071.40646 -48995790.90244  23151907.7194                   23151905.0004
 -33401401.00047 -25970732.54346  20465226.2974                   20465221.5554
  -5324711.28147  -4099918.29745  21888114.3524                   21888112.5084
 -22704280.35947 -17433617.98445  20771172.0084                   20771169.7894
 -14715419.16446 -11424281.42643  23716549.6024                   23716549.4384
 -44553763.45347 -34663706.54745  21585112.2194                   21585110.6804
 -28237806.95746 -21955945.89543  23915033.3674                   23915033.5044
 -15499942.34047 -11471262.22345  21212847.6884                   21212844.0084
  15185851.34846  12570951.29743  23897043.5164                   23897043.7384
 11  7 28  1 57 30.0000000  0  9G17G02G05G10G09G04G27G12G25
 -62978740.91046 -49023585.31643  23145120.2194                   23145117.6994
 -33493154.70747 -26042228.91846  20447766.2274                   20447761.5904
  -5506925.78147  -4241903.53545  21853439.7734                   21853438.3204
 -22798253.50847 -17506843.78545  20753289.4924                   20753286.7814
 -14726008.65246 -11432533.04343  23714535.0314                   23714534.6454
 -44569111.82847 -34675666.32045  21582191.5864                   21582189.7854
 -28264855.98846 -21977023.14143  23909885.2584                   23909886.0554
 -15646848.32447 -11585734.39145  21184892.3674                   21184889.4264
  14995590.44946  12422696.15643  23860837.7344                   23860838.2894
 11  7 28  1 58  0.0000000  0  9G17G02G05G10G09G04G27G12G25
 -63014231.43746 -49051240.27044  23138366.4064                   23138364.0664
 -33584596.21547 -26113482.01646  20430365.6094                   20430360.7154
  -5688811.73447  -4383632.78545  21818827.6094                   21818826.0664
 -22891573.80547 -17579560.86745  20735531.0314                   20735528.5354
 -14736440.16446 -11440661.54343  23712549.2034                   23712549.0634
 -44584297.33647 -34687499.18445  21579302.0394                   21579300.2504
 -28291837.60245 -21998047.80142  23904751.9304                   23904752.3524
 -15793280.88747 -11699837.67245  21157027.0554                   21157024.1804
  14805544.32846  12274608.37143  23824674.0084                   23824673.8284
 11  7 28  1 58 30.0000000  0  9G17G02G05G10G09G04G27G12G25
 -61474119.40246 -47851152.98044  23431439.2894                   23431437.6254
 -32100301.82847 -24956888.98446  20712817.1254                   20712812.1724
  -4294938.51647  -3297497.74245  22084073.0314                   22084071.2854
 -21408815.79747 -16424164.98845  21017690.3984                   21017687.8714
 -13171294.38746 -10221067.46543  24010387.6334                   24010386.8364
 -43023899.50847 -33471604.76645  21876236.2194                   21876233.9694
 -26743331.73045 -20791419.95343  24199420.7424                   24199423.7344
 -14363810.66447 -10585964.75445  21429046.0864                   21429043.2854
  16191143.86346  13354296.39143  24088344.8834                   24088344.9734
 11  7 28  1 59  0.0000000  0  9G17G02G05G10G09G04G27G12G25
 -61509245.98446 -47878524.34043  23424754.9064                   23424753.0704
 -32191117.62947 -25027654.52046  20695536.0864                   20695531.0664
  -4476154.41847  -3438704.86745  22049588.2114                   22049587.1454
 -21500824.79347 -16495860.28545  21000181.6094                   21000179.2584
 -13181414.36746 -10228953.19943  24008461.8284                   24008461.3634
 -43038760.26247 -33483184.57045  21873408.2584                   21873406.2274
 -26770181.80545 -20812342.18742  24194313.1254                   24194314.4534
 -14509284.21547 -10699320.75445  21401363.6414                   21401360.5904
  16001540.11346  13206553.24643  24052262.9844                   24052264.1134
 11  7 28  1 59 30.0000000  0  9G17G02G05G10G09G04G27G12G25
 -61544189.31646 -47905752.92243  23418105.8134                   23418103.6024
 -32281621.85247 -25098177.26646  20678313.2664                   20678308.4414
  -4657030.45747  -3579647.16845  22015169.1724                   22015167.7154
 -21592177.34047 -16567044.05545  20982798.1884                   20982795.7424
 -13191383.37546 -10236721.29342  24006564.5004                   24006564.2584
 -43053460.95747 -33494639.66045  21870610.7344                   21870608.8754
 -26796969.59845 -20833215.84842  24189215.0394                   24189217.6884
 -14654274.45347 -10812300.14545  21373772.6484                   21373769.4844
  15812161.99546  13058985.91643  24016226.3134                   24016226.3204
 11  7 28  2  0  0.0000000  0  9G17G02G05G10G09G04G27G12G25
 -61578949.52346 -47932838.80943  23411490.7974                   23411489.0474
 -32371816.01247 -25168458.39846  20661150.3914                   20661144.8984
  -4837564.43447  -3720322.92645  21980814.3054                   21980812.9924
 -21682874.03147 -16637716.77745  20965538.9454                   20965536.0664
 -13201205.46146 -10244374.91443  24004694.7734                   24004695.8594
 -43068004.30147 -33505972.12945  21867843.3524                   21867841.3554
 -26823698.28945 -20854043.48442  24184128.5084                   24184131.8794
 -14798779.56647 -10924901.52745  21346274.1414                   21346271.2384
  15623011.67246  12911596.07443  23980232.2114                   23980233.0204
 11  7 28  2  0 30.0000000  0  9G17G02G05G10G09G04G27G12G25
 -61613526.93046 -47959782.25843  23404910.8834                   23404909.3444
 -32461701.67647 -25238499.14546  20644045.0784                   20644040.3094
  -5017753.89147  -3860730.22745  21946526.2114                   21946523.8674
 -21772915.37947 -16707878.84445  20948404.9064                   20948401.6844
 -13210884.34046 -10251916.89842  24002852.2274                   24002853.4774
 -43082392.62147 -33517183.79344  21865105.2194                   21865103.2234
 -26850371.52345 -20874827.91842  24179054.1414                   24179056.1764
 -14942798.50047 -11037124.06245  21318868.2034                   21318865.5594
  15434091.14846  12764385.25443  23944281.7584                   23944282.5004
 11  7 28  2  1  0.0000000  0  9G17G02G05G10G09G04G27G12G25
 -61647919.22746 -47986581.46543  23398366.7894                   23398364.8164
 -32551278.80947 -25308299.48446  20626999.0084                   20626994.4304
  -5197594.72747  -4000865.87945  21912303.3674                   21912301.2734
 -21862299.53547 -16777528.80945  20931395.4144                   20931393.1914
 -13220422.05546 -10259348.97742  24001038.1414                   24001038.1954
 -43096626.34447 -33528275.01245  21862396.7814                   21862394.8284
 -26876990.61745 -20895570.12542  24173987.4774                   24173990.1644
 -15086327.73447 -11148965.00845  21291555.9224                   21291552.3754
  15245404.58246  12617356.73843  23908375.9064                   23908376.6214
 11  7 28  2  1 30.0000000  0  9G17G02G05G10G09G04G27G12G25
 -61682127.30546 -48013237.10243  23391857.0164                   23391855.5704
 -32640548.98847 -25377860.62946  20610011.7894                   20610006.4184
  -5377085.10947  -4140728.45345  21878147.4614                   21878145.2774
 -21951027.18747 -16846667.20745  20914511.2814                   20914509.1254
 -13229822.42245 -10266673.94542  23999248.7274                   23999249.4734
 -43110708.21547 -33539247.89145  21859716.7274                   21859714.8554
 -26903558.85945 -20916272.67642  24168932.9614                   24168935.4574
 -15229365.45347 -11260422.95345  21264336.2664                   21264333.5084
  15056953.80146  12470511.98843  23872514.1644                   23872516.0704
 11  7 28  2  2  0.0000000  0  9G17G02G05G10G09G04G27G12G25
 -61716149.87946 -48039748.21543  23385382.5004                   23385381.1724
 -32729513.12947 -25447183.30146  20593082.1804                   20593077.1174
  -5556221.26647  -4280315.00045  21844058.8984                   21844056.6914
 -22039097.86347 -16915293.68445  20897751.6884                   20897749.3444
 -13239088.69146 -10273894.44942  23997486.5394                   23997486.9144
 -43124639.85947 -33550103.72345  21857066.0004                   21857063.7274
 -26930078.57046 -20936937.44943  24163886.2194                   24163887.3524
 -15371909.44947 -11371496.19145  21237211.3134                   21237208.5354
  14868742.02346  12323853.44943  23836699.8594                   23836700.4694
 11  7 28  2  2 30.0000000  0  9G17G02G05G10G09G04G27G12G25
 -61749989.68046 -48066116.90244  23378943.4844                   23378941.8164
 -32818175.11747 -25516270.53546  20576210.2664                   20576205.6214
  -5735003.41447  -4419625.69945  21810037.2894                   21810035.5234
 -22126514.44947 -16983410.48045  20881117.2734                   20881114.8404
 -13248227.12145 -10281015.34442  23995747.6094                   23995748.0664
 -43138425.84847 -33560846.03945  21854442.2664                   21854440.5594
 -26956555.43745 -20957568.85242  24158847.5474                   24158849.8284
 -15513960.47747 -11482185.28545  21210179.6254                   21210176.8554
  14680768.82046  12177380.83643  23800929.2034                   23800929.7854
 11  7 28  2  3  0.0000000  0  9G17G02G05G10G09G04G27G12G25
 -61783643.58646 -48092340.70344  23372539.3054                   23372537.0944
 -32906533.58647 -25585121.25846  20559396.5234                   20559391.5554
  -5913426.38347  -4558656.52345  21776084.2584                   21776083.0704
 -22213274.53147 -17051015.71945  20864606.8594                   20864604.4654
 -13257238.66046 -10288037.33243  23994032.7664                   23994032.8714
 -43152065.67647 -33571474.46944  21851846.7894                   21851844.9384
 -26982989.500 5                  24153817.594
 -15655513.80547 -11592486.57045  21183243.0394                   21183240.0554
  14493039.60546  12031098.37543  23765205.3204                   23765206.5394
 11  7 28  2  3 30.0000000  0  9G17G02G05G10G09G04G27G12G25
 -61817112.12946 -48118420.08244  23366170.8914                   23366168.4024
 -32994590.78947 -25653737.22746  20542639.7814                   20542634.3954
  -6091488.67247  -4697406.28545  21742200.7114                   21742198.5824
 -22299379.19947 -17118110.23845  20848221.8054                   20848219.1454
 -13266127.74646 -10294963.94942  23992341.3524                   23992341.4344
 -43165562.42247 -33581991.41044  21849278.2344                   21849276.4184
 -27009384.89146 -20982275.78553  24148794.1094                   24148795.1334
 -15796568.77347 -11702399.50845  21156400.9694                   21156397.7274
  14305555.72347  11885007.09443  23729528.6334                   23729529.5594
 11  7 28  2  4  0.0000000  0  9G17G02G05G10G09G04G27G12G25
 -61850399.15646 -48144358.02044  23359836.1724                   23359834.0784
 -33082351.42647 -25722122.11746  20525939.0004                   20525934.3984
  -6269190.88347  -4835875.48445  21708384.9614                   21708383.0234
 -22384832.16847 -17184696.94545  20831961.1174                   20831957.7774
 -13274901.03146 -10301800.31242  23990671.7114                   23990671.8594
 -43178921.48047 -33592401.07045  21846736.3674                   21846734.0164
 -27035747.75446 -21002818.32442  24143777.2504                   24143778.7464
 -15937126.35247 -11811924.86745  21129653.8984                   21129650.9494
  14118316.34446  11739106.33643  23693898.5474                   23693899.1644
 11  7 28  2  4 30.0000000  0  9G17G02G05G10G09G04G27G12G25
 -61883499.48846 -48170150.48444  23353537.4144                   23353535.3244
 -33169812.09847 -25790273.25846  20509296.1024                   20509291.0634
  -6446525.88347  -4974058.54345  21674639.4844                   21674637.1564
 -22469629.02047 -17250772.38745  20815824.2424                   20815821.5044
 -13283557.79346 -10308545.87943  23989024.8284                   23989025.0474
 -43192140.19147 -33602701.35544  21844220.6644                   21844218.8094
 -27062076.28545 -21023334.09442  24138767.9384                   24138769.0044
 -16077180.84847 -11921058.21945  21103002.6334                   21102999.4924
  13931328.56346  11593401.64543  23658315.2504                   23658315.8404
 11  7 28  2  5  0.0000000  0  9G17G02G05G10G09G04G27G12G25
 -61916414.59046 -48195798.59044  23347273.4614                   23347271.7584
 -33256975.85947 -25858193.05146  20492709.2894                   20492704.5164
  -6623493.10547  -5111955.01645  21640963.3204                   21640960.9924
 -22553772.09447 -17316338.39845  20799812.2664                   20799810.0124
 -13292103.26646 -10315204.72743  23987399.4304                   23987397.8984
 -43205222.41847 -33612895.30544  21841731.4304                   21841728.8634
 -27088375.11346 -21043826.73843  24133763.8984                   24133764.0314
 -16216731.87147 -12029799.24245  21076447.1724                   21076443.8054
  13744592.94546  11447893.48844  23622781.0704                   23622781.4804
 11  7 28  2  5 30.0000000  0  9G17G02G05G10G09G04G27G12G25
 -61949144.02346 -48221302.04343  23341045.3914                   23341043.2934
 -33343843.71947 -25925882.27346  20476179.0944                   20476173.9614
  -6800089.14547  -5249562.26245  21607358.2344                   21607356.4774
 -22637261.09847 -17381394.73445  20783925.1804                   20783922.9264
 -13300540.24646 -10321779.03943  23985792.7034                   23985792.8754
 -43218169.76647 -33622984.13344  21839267.4144                   21839265.2154
 -27114646.85546 -21064298.24643  24128763.7664                   24128765.2274
 -16355777.10547 -12138146.14845  21049987.4774                   21049984.3284
  13558112.53446  11302584.16443  23587295.0004                   23587295.1684
 11  7 28  2  6  0.0000000  0  9G17G02G05G10G09G04G27G12G25
 -61981689.11746 -48246661.85943  23334853.6414                   23334850.2974
 -33430418.86347 -25993343.39846  20459704.5004                   20459699.2384
  -6976313.40247  -5386879.80145  21573823.6334                   21573821.3874
 -22720097.80947 -17445942.79345  20768161.3914                   20768159.1454
 -13308874.13346 -10328273.03143  23984207.3134                   23984207.1564
 -43230985.85547 -33632970.68744  21836828.6094                   21836826.3714
 -27140895.92646 -21084752.20343  24123768.2274                   24123770.1684
 -16494316.41047 -12246098.82445  21023624.5234                   21023621.1214
  13371888.11746  11157474.35243  23551856.7814                   23551857.8754
 11  7 28  2  6 30.0000000  0  9G17G02G05G10G09G04G27G12G25
 -62014049.18046 -48271877.46943  23328694.6724                   23328692.3014
 -33516702.07047 -26060577.04746  20443284.8284                   20443280.3324
  -7152162.87547  -5523905.31245  21540360.5784                   21540358.6134
 -22802282.57047 -17509982.84045  20752522.2194                   20752519.7934
 -13317108.19146 -10334689.24643  23982641.0474                   23982640.3324
 -43243672.62947 -33642856.48444  21834414.8054                   21834412.0904
 -27167125.09446 -21105190.59843  24118778.1484                   24118779.0784
 -16632347.77047 -12353655.69545  20997357.7034                   20997354.7234
  13185922.31646  11012566.02743  23516469.1804                   23516469.0944
 11  7 28  2  7  0.0000000  0  9G17G02G05G10G09G04G27G12G25
 -60470800.89546 -47069346.32443  23622365.1564                   23622362.8444
 -32027269.62547 -24899980.31646  20726714.6884                   20726709.8594
  -5752206.99247  -4433030.54345  21806763.5004                   21806761.0474
 -21308391.11747 -16345911.55945  21036800.3364                   21036798.0164
 -11749823.33246  -9113428.36743  24280885.0864                   24280884.7854
 -41680809.10547 -32425040.75844  22131817.0944                   22131815.4964
 -25617913.92646 -19898013.09843  24413583.3594                   24413584.5084
 -15194442.64147 -11233210.11345  21270981.8834                   21270979.0124
  14575646.29746  12095467.91843  23780924.7814                   23780924.9384
 11  7 28  2  7 30.0000000  0  9G17G02G05G10G09G04G27G12G25
 -60502788.04346 -47094271.38343  23616278.4614                   23616275.8634
 -32112970.60947 -24966760.28146  20710406.5474                   20710401.4224
  -5927297.01247  -4569464.24645  21773445.0234                   21773442.7734
 -21389271.08647 -16408934.88745  21021409.3674                   21021406.7734
 -11757865.64546  -9119695.14843  24279354.5864                   24279354.4224
 -41693240.24247 -32434727.35544  22129451.4304                   22129449.8134
 -25644109.28145 -19918425.13343  24408598.2894                   24408599.2154
 -15331450.35947 -11339969.34445  21244910.2584                   21244907.0744
  14390207.99246  11950970.64543  23745637.1724                   23745637.3364
 11  7 28  2  8  0.0000000  0  9G17G02G05G10G09G04G27G12G25
 -60534589.41446 -47119051.69943  23610225.8364                   23610224.1414
 -32198383.22347 -25033315.54346  20694152.7814                   20694147.6484
  -6102004.25447  -4705599.71145  21740199.5474                   21740196.9024
 -21469500.07047 -16471450.95345  21006142.2114                   21006139.6884
 -11765818.00846  -9125891.84043  24277840.8834                   24277840.8834
 -41705547.53147 -32444317.43744  22127109.9924                   22127107.7114
 -25670292.80545 -19938828.01242  24403615.9144                   24403616.7384
 -15467944.32447 -11446328.23845  21218935.9534                   21218933.2274
  14205036.32446  11806681.13343  23710399.5084                   23710400.0864
 11  7 28  2  8 30.0000000  0  9G17G02G05G10G09G04G27G12G25
 -60566204.16046 -47143686.55143  23604209.4304                   23604207.6454
 -32283508.15647 -25099646.64146  20677953.9454                   20677949.1054
  -6276325.76647  -4841434.59845  21707026.7504                   21707024.7034
 -21549077.96147 -16533459.66445  20990998.8754                   20990996.5274
 -11773683.17646  -9132020.60543  24276344.0634                   24276344.0664
 -41717732.47747 -32453812.20344  22124791.8204                   22124789.2854
 -25696466.93445 -19959223.55142  24398635.0944                   24398636.4414
 -15603922.42647 -11552285.16845  21193060.1254                   21193057.5474
  14020134.25446  11662601.65643  23675214.3364                   23675214.7154
 11  7 28  2  9  0.0000000  0  9G17G02G05G10G09G04G27G12G25
 -60597632.20346 -47168175.92643  23598229.1484                   23598226.8284
 -32368347.32448 -25165755.05946  20661809.5554                   20661804.6454
  -6450259.41447  -4976967.24645  21673928.6334                   21673926.1214
 -21628005.98447 -16594961.98045  20975979.3134                   20975976.9144
 -11781465.37546  -9138084.71543  24274863.7974                   24274863.6134
 -41729797.22747 -32463213.30945  22122494.9144                   22122493.4884
 -25722635.00045 -19979614.41042  24393655.4304                   24393656.9734
 -15739383.49247 -11657839.21945  21167282.7734                   21167279.7774
  13835503.76647  11518733.80543  23640080.1564                   23640080.2664
 11  7 28  2  9 30.0000000  0  9G17G02G05G10G09G04G27G12G25
 -60628874.93046 -47192520.92643  23592284.3984                   23592281.7734
 -32452903.44947 -25231642.93046  20645719.2344                   20645714.2114
  -6623803.46147  -5112196.32445  21640904.2894                   21640901.6724
 -21706285.58247 -16655959.05145  20961083.5784                   20961080.8094
 -11789169.03146  -9144087.59443  24273397.7034                   24273398.0784
 -41741744.86747 -32472523.16044  22120221.8914                   22120220.2304
 -25748800.48045 -20000003.13342  24388676.1644                   24388678.3244
 -15874326.47747 -11762989.56645  21141604.1174                   21141601.1454
  13651146.44546  11375078.83643  23604997.2814                   23604998.2424
 11  7 28  2 10  0.0000000  0  9G17G02G05G10G09G04G27G12G25
 -60659930.16046 -47216719.82443  23586374.9224                   23586372.7664
 -32537175.18747 -25297309.18446  20629682.4774                   20629677.7154
  -6796953.93747  -5247118.71945  21607954.5864                   21607952.0514
 -21783915.09447 -16716449.54745  20946311.1724                   20946308.2974
 -11796795.35546  -9150030.21542  24271946.6484                   24271946.2584
 -41753575.03147 -32481741.48044  22117970.5164                   22117968.7384
 -25774964.25844 -20020390.63742  24383699.8134                   24383700.5514
 -16008747.81647 -11867733.44146  21116024.8594                   21116021.7424
  13467067.02046  11231640.35543  23569968.9694                   23569968.8914
 11  7 28  2 10 30.0000000  0  9G17G02G05G10G09G04G27G12G25
 -60690799.49946 -47240773.82143  23580499.5864                   23580498.1134
 -32621166.06647 -25362756.60946  20613699.4304                   20613694.7304
  -6969709.84047  -5381733.65245  21575080.0634                   21575078.0474
 -21860897.50047 -16776435.80945  20931662.0004                   20931659.2584
 -11804349.98446  -9155916.99642  24270508.1804                   24270509.4264
 -41765291.99647 -32490871.59044  22115741.0474                   22115739.2664
 -25801131.45355 -20040780.77352  24378718.9614                   24378721.5204
 -16142648.07447 -11972071.27045  21090544.3134                   21090541.3634
  13283265.72346  11088418.61343  23534992.3284                   23534992.9654
 11  7 28  2 11  0.0000000  0  9G17G02G05G10G09G04G27G12G25
 -60721481.88746 -47264682.21943  23574661.3284                   23574659.4804
 -32704876.23447 -25427985.28946  20597770.1414                   20597764.9884
  -7142067.87947  -5516038.55545  21542281.0944                   21542279.0664
 -21937232.27347 -16835917.42245  20917135.8914                   20917133.0944
 -11811835.24645  -9161749.71142  24269084.8594                   24269084.6764
 -41776896.39547 -32499913.97344  22113532.6024                   22113531.0394
 -25827303.83645 -20061174.91442  24373737.6724                   24373741.0514
 -16276024.34847 -12076000.80145  21065163.8204                   21065160.1524
  13099746.19546  10945416.41443  23500070.1644                   23500069.9614
 11  7 28  2 11 30.0000000  0  9G17G02G05G10G09G04G27G12G25
 -60751978.08246 -47288445.49243  23568858.4454                   23568856.5394
 -32788308.62547 -25492997.51646  20581893.5474                   20581888.6994
  -7314026.79747  -5650032.46945  21509558.2424                   21509556.6684
 -22012921.12147 -16894895.71545  20902732.6334                   20902729.7344
 -11819255.84045  -9167532.08242  24267671.8914                   24267672.8324
 -41788391.46947 -32508871.18444  22111344.9844                   22111343.3134
 -25853485.44945 -20081576.28542  24368755.0394                   24368759.7344
 -16408876.30147 -12179521.77745  21039882.7274                   21039879.5864
  12916509.71546  10802634.78943  23465200.6954                   23465201.5084
 11  7 28  2 12  0.0000000  0  9G17G02G05G10G09G04G27G12G25
 -60782286.21146 -47312062.23843  23563090.6884                   23563089.0664
 -32871462.46547 -25557792.69546  20566069.6484                   20566064.7734
  -7485582.26647  -5783712.00845  21476912.1484                   21476910.2424
 -22087963.05147 -16953369.91845  20888452.5554                   20888449.9264
 -11826613.33245  -9173265.20342  24266272.3674                   24266272.9344
 -41799777.04347 -32517743.05944  22109178.5394                   22109177.0554
 -25879677.08645 -20101985.38742  24363770.1414                   24363775.3874
 -16541200.41447 -12282631.43445  21014702.3984                   21014699.0354
  12733560.68846  10660077.14843  23430386.7584                   23430387.3634
 11  7 28  2 12 30.0000000  0  9G17G02G05G10G09G04G27G12G25
 -60812406.89846 -47335532.89143  23557358.1414                   23557357.7544
 -32954339.83247 -25622372.43746  20550298.9224                   20550293.8674
  -7656732.61347  -5917075.85545  21444343.8134                   21444341.2194
 -22162359.50447 -17011341.15245  20874295.0084                   20874292.2034
 -11833912.00445  -9178952.57842  24264884.2344                   24264884.7934
 -41811056.14547 -32526531.96944  22107032.4694                   22107030.5124
 -25905882.41455 -20122405.29352  24358784.6954                   24358788.6684
 -16672995.69147 -12385329.02345  20989622.2034                   20989619.0634
  12550900.74246  10517744.75843  23395627.5784                   23395628.3134
 11  7 28  2 13  0.0000000  0  9G17G02G05G10G09G04G27G12G25
 -60842341.82846 -47358858.84443  23551661.4224                   23551661.2234
 -33036944.22347 -25686739.46946  20534579.7974                   20534574.8164
  -7827477.47747  -6050123.75045  21411852.2664                   21411850.1214
 -22236113.38347 -17068811.68045  20860260.7504                   20860257.4654
 -11841157.10945  -9184598.15642  24263503.9694                   24263506.7664
 -41822232.57047 -32535240.87944  22104905.4224                   22104903.9454
 -25932106.40245 -20142839.64842  24353794.0004                   24353798.4804
 -16804262.69147 -12487614.96545  20964643.3204                   20964640.1134
  12368530.39846  10375638.04744  23360923.8834                   23360924.3364
 11  7 28  2 13 30.0000000  0  9G17G02G05G10G09G04G27G12G25
 -60872087.42246 -47382037.23043  23546001.8204                   23546001.6334
 -33119273.05947 -25750891.79746  20518913.1094                   20518908.0394
  -7997810.72347  -6182850.90245  21379438.5004                   21379436.5234
 -22309221.93447 -17125779.35545  20846348.2814                   20846345.4884
 -11848348.41045  -9190201.80942  24262135.4534                   24262138.9844
 -41833304.30547 -32543868.20344  22102798.6334                   22102797.1644
 -25958347.93045 -20163287.68442  24348801.7194                   24348804.3204
 -16934996.33247 -12589485.31245  20939765.5314                   20939762.2974
  12186455.82846  10233761.80144  23326275.4774                   23326276.4694
 11  7 28  2 14  0.0000000  0  9G17G02G05G10G09G04G27G12G25
 -60901644.05146 -47405068.38743  23540378.2894                   23540376.1914
 -33201328.24647 -25814830.87946  20503298.2424                   20503293.2504
  -8167730.41047  -6315255.79745  21347104.0474                   21347101.4734
 -22381686.18447 -17182244.97745  20832558.9844                   20832555.7814
 -11855490.164 5                  24260777.555
 -41844273.75047 -32552415.81644  22100711.6804                   22100709.5084
 -25984610.17245 -20183751.89842  24343805.1254                   24343806.8094
 -17065195.23047 -12690938.97345  20914989.2814                   20914985.9184
  12004679.16046  10092117.71143  23291685.0944                   23291685.2584
 11  7 28  2 14 30.0000000  0  9G17G02G05G10G09G04G27G12G25
 -60931013.81646 -47427953.92243  23534788.8444                   23534787.3874
 -33283113.45747 -25878559.60246  20487735.3444                   20487730.3014
  -8337236.64847  -6447338.53545  21314847.7034                   21314845.8594
 -22453509.73047 -17238211.34845  20818891.4384                   20818888.3054
 -11862588.020 5                  24259427.398
 -41855145.21947 -32560887.09044  22098642.3914                   22098640.7154
 -26010898.53146 -20204236.45342  24338801.7034                   24338804.9064
 -17194860.64147 -12791976.93045  20890314.6414                   20890311.2974
  11823200.37946   9950705.73444  23257150.7894                   23257151.5314
 11  7 28  2 15  0.0000000  0  9G17G02G05G10G09G04G27G12G25
 -60960195.45346 -47450692.89143  23529235.3204                   23529234.0984
 -33364628.84047 -25942078.04746  20472223.1884                   20472218.1294
  -8506325.64147  -6579096.13745  21282671.1174                   21282669.1254
 -22524692.05547 -17293678.07445  20805345.6174                   20805342.8984
 -11869643.82446  -9197345.76652  24258084.4924                   24258084.2934
 -41865919.43047 -32569282.57044  22096592.0004                   22096589.8754
 -26037214.54746 -20224742.43742  24333794.1174                   24333797.4414
 -17323989.48847 -12892596.79345  20865742.3284                   20865739.5314
  11642023.28547   9809528.85544  23222674.6804                   23222674.3754
 11  7 28  2 15 30.0000000  0  9G17G02G05G10G09G04G27G12G25
 -60989188.40246 -47473284.80543  23523718.8524                   23523717.2624
 -33445875.62147 -26005387.21146  20456762.4064                   20456757.1724
  -8674994.69147  -6710526.52345  21250574.7734                   21250572.4414
 -22595233.58647 -17348645.46945  20791921.9454                   20791919.1804
 -11876660.72346  -9202813.52742  24256749.0394                   24256749.4804
 -41876597.55147 -32577603.18444  22094560.4844                   22094558.6214
 -26063560.68046 -20245271.91442  24328779.6724                   24328783.7704
 -17452580.16047 -12992797.28145  20841272.6564                   20841269.0474
  11461150.81346   9668589.32843  23188255.0084                   23188254.9024
 11  7 28  2 16  0.0000000  0  9G17G02G05G10G09G04G27G12G25
 -59442571.58646 -46268128.86343  23818029.8674                   23818028.6524
 -31951432.62547 -24840886.14546  20741145.7894                   20741140.5234
  -7267816.75847  -5614024.18045  21518351.7894                   21518349.4654
 -21089713.22747 -16175512.69945  21078413.2034                   21078410.1844
 -10308222.37546  -7980653.78542  24555213.0474                   24555213.0204
 -40311761.71947 -31358250.59444  22392338.8674                   22392336.7774
 -24514519.25845 -19038226.76642  24623553.1724                   24623555.6524
 -16005206.89147 -11864973.93445  21116698.2974                   21116694.9184
  12856010.88346  10755493.36344  23453688.5704                   23453688.0904
 11  7 28  2 16 30.0000000  0  8G17G02G05G10G09G04G12G25
 -59471185.92646 -46290425.78143  23812584.7424                   23812583.5664
 -32032145.17647 -24903779.02346  20725786.5784                   20725781.4494
  -7435637.89147  -5744793.85945  21486416.1724                   21486414.4064
 -21158975.19147 -16229483.03545  21065233.0164                   21065229.8324
 -10315170.82446  -7986068.23843  24553890.5704                   24553891.2584
 -40322252.35947 -31366425.11744  22390341.9774                   22390340.3794
 -16132715.55947 -11964331.32045  21092434.1334                   21092431.1214
  12675755.75446  10615034.91044  23419386.6954                   23419386.7304
 11  7 28  2 17  0.0000000  0  8G17G02G05G10G09G04G12G25
 -59499610.25846 -46312574.61743  23807176.5234                   23807173.9144
 -32112591.79747 -24966464.68446  20710477.4534                   20710473.1484
  -7603031.36347  -5875230.28145  21454562.6174                   21454560.0864
 -21227598.57047 -16282955.78545  21052173.9534                   21052171.0124
 -10322089.66046  -7991459.64543  24552574.7974                   24552574.5554
 -40332651.55547 -31374528.39144  22388363.4924                   22388361.1254
 -16259680.66047 -12063265.13345  21068273.0474                   21068270.0634
  12495813.50047  10474820.22744  23385145.5234                   23385145.0944
 11  7 28  2 17 30.0000000  0  8G17G02G05G10G09G04G12G25
 -59527843.37546 -46334574.42643  23801803.9774                   23801801.6644
 -32192772.70347 -25028943.29346  20695220.0234                   20695214.8324
  -7769993.52047  -6005330.62145  21422790.8984                   21422788.1644
 -21295582.96147 -16335930.60945  21039237.0864                   21039234.7974
 -10328980.94946  -7996829.55943  24551262.6804                   24551263.5784
 -40342960.04747 -31382560.97744  22386401.6804                   22386399.3714
 -16386099.36347 -12161773.18745  21044216.3134                   21044213.6294
  12316187.91846  10334852.32444  23350963.0164                   23350963.6054
 11  7 28  2 18  0.0000000  0  8G17G02G05G10G09G04G12G25
 -59555880.77746 -46356421.78943  23796468.9694                   23796466.4534
 -32272684.96547 -25091212.57046  20680012.7894                   20680007.8794
  -7936517.53147  -6135089.54745  21391102.4844                   21391099.7384
 -21362924.89847 -16388404.82845  21026422.2114                   21026419.5554
 -10335843.52046  -8002177.07043  24549957.1484                   24549957.5784
 -40353174.91847 -31390520.62544  22384457.8364                   22384455.1914
 -16511965.89147 -12259850.96145  21020265.2034                   21020262.0204
  12136885.85947  10195136.49644  23316843.2114                   23316843.3134
 11  7 28  2 18 30.0000000  0  8G17G02G05G10G09G04G12G25
 -59583723.06646 -46378117.04743  23791169.5554                   23791168.4614
 -32352330.68747 -25153274.15646  20664857.1484                   20664852.0084
  -8102601.82047  -6264505.83245  21359497.1954                   21359494.7974
 -21429626.64147 -16440380.20345  21013729.2424                   21013726.8204
 -10342681.55546  -8007505.46943  24548655.9924                   24548656.4264
 -40363298.77047 -31398409.33644  22382531.6564                   22382529.2344
 -16637280.10947 -12357498.38345  20996418.5704                   20996415.6604
  11957908.96946  10055674.07044  23282784.4924                   23282784.8164
 11  7 28  2 19  0.0000000  0  8G17G02G05G10G09G04G12G25
 -59611370.96146 -46399660.87543  23785909.3754                   23785907.0314
 -32431711.80547 -25215129.54746  20649751.5164                   20649746.3794
  -8268244.98847  -6393578.39145  21327976.0004                   21327973.8094
 -21495689.45747 -16491857.68745  21001158.1954                   21001155.2034
 -10349498.82046  -8012817.72743  24547358.3984                   24547359.0084
 -40373334.05147 -31406229.03944  22380621.4844                   22380619.0204
 -16762040.88347 -12454714.54346  20972677.3204                   20972674.1954
  11779259.17247   9916466.49644  23248788.6804                   23248788.6024
 11  7 28  2 19 30.0000000  0  8G17G02G05G10G09G04G12G25
 -59638827.10546 -46421055.25443  23780684.7424                   23780682.4224
 -32510832.63747 -25276782.13346  20634695.2034                   20634690.0784
  -8433447.73447  -6522307.75845  21296538.9144                   21296536.7194
 -21561117.93047 -16542840.88345  20988707.6644                   20988704.5354
 -10356301.84046  -8018118.87943  24546064.6804                   24546064.3834
 -40383285.50847 -31413983.41044  22378728.0944                   22378725.3754
 -16886250.01647 -12551500.85545  20949041.5314                   20949037.7504
  11600935.89847   9777513.35544  23214854.7814                   23214855.4454
 11  7 28  2 20  0.0000000  0  8G17G02G05G10G09G04G12G25
 -59666090.06246 -46442299.10543  23775496.1884                   23775494.0984
 -32589693.17247 -25338231.89146  20619687.9844                   20619683.2384
  -8598205.80547  -6650690.62545  21265186.6724                   21265184.0554
 -21625911.40647 -16593329.28145  20976377.9304                   20976374.9774
 -10363092.24246  -8023410.17243  24544772.3754                   24544772.7274
 -40393153.18447 -31421672.51244  22376850.1724                   22376848.1954
 -17009904.17647 -12647854.73045  20925510.4774                   20925507.1564
  11422943.25447   9638817.88344  23180984.1334                   23180984.2664
 11  7 28  2 20 30.0000000  0  8G17G02G05G10G09G04G12G25
 -59693161.59046 -46463393.79743  23770345.5004                   23770342.5234
 -32668296.28148 -25399481.05546  20604730.7584                   20604725.7384
  -8762519.09047  -6778726.90645  21233919.1254                   21233916.5234
 -21690073.08647 -16643325.37545  20964168.1174                   20964165.3094
 -10369875.59846  -8028695.96543  24543481.5164                   24543482.0164
 -40402941.02047 -31429299.39844  22374987.7114                   22374985.5904
 -17133004.47347 -12743777.02045  20902085.6724                   20902082.3444
  11245281.72346   9500380.39544  23147176.0474                   23147175.9844
 11  7 28  2 21  0.0000000  0  8G17G02G05G10G09G04G12G25
 -59720041.19146 -46484338.95743  23765229.8594                   23765228.4184
 -32746643.07847 -25460530.49246  20589822.1174                   20589816.8204
  -8926384.96147  -6906414.55545  21202736.2344                   21202733.8484
 -21753603.62547 -16692829.68445  20952078.8134                   20952076.0434
 -10376654.75845  -8033978.48843  24542192.0634                   24542191.8524
 -40412650.03947 -31436864.87544  22373140.3364                   22373138.3714
 -17255549.31647 -12839266.48045  20878766.1094                   20878762.8674
  11067954.23047   9362203.19144  23113431.8674                   23113431.5984
 11  7 28  2 21 30.0000000  0  8G17G02G05G10G09G04G12G25
 -59746728.83246 -46505134.52043  23760151.2584                   23760149.6564
 -32824734.93047 -25521381.28146  20574961.5554                   20574956.3444
  -9089801.31247  -7033751.92645  21171638.8834                   21171636.9064
 -21816504.17647 -16741843.07445  20940108.7584                   20940106.3284
 -10383432.84045  -8039260.19942  24540901.5784                   24540902.1214
 -40422281.91847 -31444370.24244  22371307.0784                   22371305.5004
 -17377536.97347 -12934321.78545  20855552.2584                   20855549.1724
  10890963.37947   9224288.28544  23079751.6094                   23079751.5784
 11  7 28  2 22  0.0000000  0  8G17G02G05G10G09G04G12G25
 -59773225.02046 -46525780.91843  23755109.3914                   23755107.5744
 -32902573.54347 -25582034.71946  20560149.1024                   20560143.9144
  -9252766.03547  -7160737.37545  21140628.0784                   21140625.4454
 -21878776.54747 -16790366.98445  20928259.0234                   20928256.2154
 -10390213.34045  -8044543.75443  24539611.2664                   24539611.7344
 -40431838.75847 -31451817.14144  22369488.5784                   22369486.8094
 -17498966.73847 -13028942.36345  20832444.9534                   20832441.3874
  10714311.16847   9086637.29344  23046135.7424                   23046135.4774
 11  7 28  2 22 30.0000000  0  8G17G02G05G10G09G04G12G25
 -59799530.08246 -46546278.36743  23750103.7894                   23750101.6524
 -32980160.59447 -25642492.15246  20545385.2974                   20545379.9454
  -9415277.87547  -7287369.94145  21109703.0234                   21109700.5394
 -21940422.55947 -16838402.79745  20916528.3834                   20916525.1374
 -10397000.19145  -8049832.28542  24538319.1174                   24538321.0234
 -40441322.87147 -31459207.37944  22367683.5944                   22367682.0554
 -17619837.83247 -13123127.61746  20809443.6094                   20809440.3834
  10537999.52347   8949251.66044  23012584.8284                   23012584.5314
 11  7 28  2 23  0.0000000  0  8G17G02G05G10G09G04G12G25
 -59825644.79746 -46566627.52043  23745134.4304                   23745132.3324
 -33057498.43047 -25702755.38346  20530667.7344                   20530662.9414
  -9577335.46947  -7413648.54345  21078864.4774                   21078861.9344
 -22001444.27747 -16885952.17645  20904916.3594                   20904913.7544
 -10403797.32415                  24537025.281
 -40450736.86347 -31466542.95344  22365892.4694                   22365890.8554
 -17740150.20347 -13216877.49646  20786549.1564                   20786545.9654
  10362029.96547   8812132.57044  22979098.0004                   22979098.8444
 11  7 28  2 23 30.0000000  0  8G17G02G05G10G09G04G12G25
 -59851571.20746 -46586829.93443  23740200.2274                   23740198.6954
 -33134590.60947 -25762827.20346  20515997.7274                   20515992.9064
  -9738938.44147  -7539572.89145  21048112.7584                   21048109.6564
 -22061845.39547 -16933017.96945  20893422.5784                   20893419.1914
 -10410610.176 5                  24535730.797
 -40460084.32847 -31473826.69544  22364113.2974                   22364111.7814
 -17859904.52347 -13310192.53546  20763761.2274                   20763757.2934
  10186402.96947   8675280.43844  22945677.8204                   22945677.7344
 11  7 28  2 24  0.0000000  0  8G17G02G05G10G09G04G12G25
 -59877306.64846 -46606883.56243  23735302.8524                   23735301.5124
 -33211435.47347 -25822706.30546  20501375.0784                   20501369.9414
  -9900081.92647  -7665139.20345  21017448.3204                   21017445.5594
 -22121624.20747 -16979598.82845  20882046.2664                   20882043.4614
 -10417439.359 5                  24534430.172
 -40469364.25847 -31481057.78944  22362348.1884                   22362345.9264
 -17979096.93747 -13403069.71946  20741079.0164                   20741075.9024
  10011123.77047   8538699.31344  22912323.5864                   22912323.3834
 11  7 28  2 24 30.0000000  0  8G17G02G05G10G09G04G12G25
 -58327431.21146 -45399188.43043  24030235.0164                   24030232.7624
 -31712612.77047 -24654792.49246  20786590.8594                   20786586.1454
  -8485339.72347  -6562742.63745  21286663.9924                   21286661.5744
 -20605361.01647 -15798095.03545  21170582.3834                   21170578.9844
  -8848868.707 5                  24832920.156
 -38903158.67647 -30260637.86344  22660386.6094                   22660384.8404
 -16522303.22747 -12267905.77745  21018297.7344   21018294.3054   11411619.73847
   9629994.92244                  23178829.0394                   23178828.7274
 11  7 28  2 25  0.0000000  0  8G17G02G05G10G09G04G12G25
 -58352785.19946 -45418944.81643  24025410.4384                   24025407.8984
 -31788967.52347 -24714289.69546  20772061.0784                   20772056.3714
  -8645558.63347  -6687588.50845  21256175.4224                   21256173.0984
 -20663899.92247 -15843709.74645  21159442.3834                   21159439.5474
  -8855740.520 5                  24831611.609
 -38912308.61347 -30267767.66844  22658645.5704                   22658643.8324
 -16640368.78547 -12359904.89846  20995830.4534   20995827.6094   11237043.00447
   9493961.13744                  23145607.6724                   23145607.6374
 11  7 28  2 25 30.0000000  0  8G17G02G05G10G09G04G12G25
 -58377948.16046 -45438552.36743  24020622.2584                   24020619.7624
 -31865079.47747 -24773597.68746  20757577.8524                   20757572.6804
  -8805312.13347  -6812071.71945  21225775.6024                   21225773.0864
 -20721821.24247 -15888843.22745  21148420.6024                   21148417.7034
  -8862638.551 5                  24830299.609
 -38921396.10247 -30274848.85244  22656915.9064                   22656914.6804
 -16757869.26647 -12451463.69146  20973471.0634   20973467.9494   11062821.00047
   9358203.80144                  23112454.8754                   23112454.5634
 11  7 28  2 26  0.0000000  0  8G17G02G05G10G09G04G12G25
 -58402920.41046 -45458011.26243  24015869.5944                   24015867.7734
 -31940949.90647 -24832717.49646  20743139.9534                   20743135.0394
  -8964598.25447  -6936190.73445  21195464.6334                   21195461.8444
 -20779126.85247 -15933496.92645  21137515.3524                   21137512.8014
  -8869566.15645  -6831083.52352  24828980.8134                   24828980.9804
 -38930423.09847 -30281882.88744  22655198.5864                   22655196.8164
 -16874804.09847 -12542581.73446  20951219.3984   20951216.0044   10888956.09847
   9222724.71144                  23079368.9844                   23079369.0864
 11  7 28  2 26 30.0000000  0  8G17G02G05G10G09G04G12G25
 -58427700.91846 -45477320.74243  24011154.4534                   24011152.1134
 -32016578.89547 -24891649.16046  20728748.1804                   20728743.4414
  -9123413.66447  -7059942.96145  21165242.7974                   21165240.0904
 -20835816.75047 -15977670.85545  21126727.6804                   21126725.1914
  -8876525.785 6                  24827656.836
 -38939389.61347 -30288869.77044  22653492.1334                   22653490.7034
 -16991170.67247 -12633256.97346  20929075.1644   20929072.1564   10715451.98847
   9087526.75044                  23046352.7194                   23046351.9344
 11  7 28  2 27  0.0000000  0  8G17G02G05G10G09G04G12G25
 -58452290.18446 -45496481.24243  24006475.3594                   24006473.4734
 -32091968.33647 -24950394.16046  20714402.0234                   20714397.0784
  -9281757.07447  -7183327.39545  21135111.1644                   21135108.6454
 -20891892.81647 -16021366.46945  21116056.5944                   21116053.3284
  -8883520.477 5                  24826325.328
 -38948298.11347 -30295811.46544  22651797.4614                   22651795.7274
 -17106968.69547 -12723489.18045  20907039.6484   20907036.3984   10542310.52047
   8952611.36344                  23013404.5234                   23013403.8554
 11  7 28  2 27 30.0000000  0  8G17G02G05G10G09G04G12G25
 -58476689.13346 -45515493.37543  24001832.3284                   24001830.1174
 -32167120.38347 -25008954.17246  20700101.1094                   20700096.4184
  -9439626.93047  -7306342.82445  21105069.5634                   21105066.5164
 -20947357.66447 -16064585.81245  21105501.9534                   21105499.4654
  -8890554.469 5                  24824987.930
 -38957150.77047 -30302709.63344  22650112.9224                   22650110.7664
 -17222197.42247 -12813277.77346  20885112.0704   20885108.7664   10369533.40247
   8817979.90644                  22980526.0084                   22980525.5984
 11  7 28  2 28  0.0000000  0  8G17G02G05G10G09G04G12G25
 -58500898.13746 -45534357.54743  23997225.9384                   23997223.7544
 -32242036.90647 -25067330.66446  20685845.3284                   20685840.3134
  -9597021.96947  -7428988.26245  21075118.0634                   21075115.6024
 -21002213.51247 -16107330.61345  21095063.3594                   21095060.5164
  -8897631.555 6                  24823641.531
 -38965949.89147 -30309566.08244  22648438.6024                   22648436.1484
 -17336857.26647 -12902623.09045  20863292.8754   20863290.3634   10197122.32047
   8683633.65644                  22947717.3594                   22947716.8484
 11  7 28  2 28 30.0000000  0  8G17G02G05G10G09G04G12G25
 -58524915.49646 -45553072.40243  23992654.4614                   23992653.1684
 -32316717.48047 -25125523.29746  20671634.1804                   20671628.5864
  -9753938.41847  -7551260.78545  21045257.8284                   21045255.1684
 -21056460.07847 -16149600.63745  21084740.4844                   21084737.8984
  -8904753.28946  -6840496.28552  24822285.7424                   24822286.5744
 -38974695.27747 -30316380.65644  22646774.0234                   22646772.1094
 -17450944.82847 -12991522.45745  20841583.1884   20841579.6604   10025081.50447
   8549575.93444                  22914979.0784                   22914978.2544
 11  7 28  2 29  0.0000000  0  8G17G02G05G10G09G04G12G25
 -58548743.00446 -45571639.27343  23988120.7344                   23988119.0984
 -32391165.06247 -25183534.38346  20657466.5554                   20657462.1214
  -9910376.05147  -7673160.20345  21015488.4304                   21015485.9344
 -21110100.67247 -16191398.48445  21074533.0554                   21074530.1724
  -8911924.46546  -6846084.21942  24820920.8054                   24820921.4844
 -38983389.93047 -30323155.71143  22645119.6644                   22645117.4734
 -17564460.99247 -13079976.59446  20819981.8364   20819978.1914
   9853411.67246   8415807.29344  22882311.0314                   22882310.6804
 11  7 28  2 29 30.0000000  0  8G17G02G05G10G09G04G12G25
 -58572378.94946 -45590056.90643  23983622.6804                   23983621.0744
 -32465379.65647 -25241363.91846  20643344.4924                   20643339.2034
 -10066331.16847  -7794683.63345  20985811.5234                   20985808.8954
 -21163135.54347 -16232724.33245  21064440.7034                   21064437.8484
  -8919146.60546  -6851711.86342  24819546.9774                   24819548.7974
 -38992034.03147 -30329891.37944  22643474.4224                   22643472.4264
 -17677403.40647 -13167983.64546  20798489.4224   20798485.9694
   9682116.63747   8282330.69544  22849714.6954                   22849714.8014
 11  7 28  2 30  0.0000000  0  7G17G02G05G10G04G12G25
 -58595824.92246 -45608326.46543  23979160.7114                   23979159.2974
 -32539363.87547 -25299013.93746  20629266.0084                   20629260.2544
 -10221803.06647  -7915830.52345  20956226.0084                   20956223.4144
 -21215567.34447 -16273580.25845  21054463.6724                   21054460.6724
 -39000630.39547 -30336589.82043  22641838.2344                   22641836.7734
 -17789772.74247 -13255544.14845  20777106.2424   20777103.2894
   9511197.75447   8149147.21144  22817190.3914                   22817189.8954
 11  7 28  2 30 30.0000000  0  7G17G02G05G10G04G12G25
 -58619079.71545 -45626447.06643  23974735.8284                   23974734.0394
 -32613117.32847 -25356484.14846  20615230.6954                   20615225.4884
 -10376788.82447  -8036598.61345  20926733.1954                   20926730.6484
 -21267396.54347 -16313966.63345  21044600.5944                   21044597.6724
 -39009179.23447 -30343251.27344  22640212.0944                   22640209.6764
 -17901566.55147 -13342656.18445  20755832.3364   20755829.2154
   9340658.60947   8016259.63744  22784737.8444                   22784737.1914
 11  7 28  2 31  0.0000000  0  7G17G02G05G10G04G12G25
 -58642141.16046 -45644417.01243  23970348.1254                   23970345.2384
 -32686639.33247 -25413774.00046  20601240.4144                   20601234.8674
 -10531284.25447  -8156984.63745  20897333.3364                   20897331.2464
 -21318622.69947 -16353883.10245  21034852.1334                   21034849.4494
 -39017679.78147 -30349875.08644  22638594.3134                   22638592.3054
 -18012781.77347 -13429317.37146  20734668.6484   20734665.4694
   9170503.82847   7883671.55144  22752357.8834                   22752357.7034
 11  7 28  2 31 30.0000000  0  7G17G02G05G10G04G12G25
 -58665004.96545 -45662232.95743  23965996.7504                   23965994.5434
 -32759926.77747 -25470881.08246  20587293.5634                   20587288.7464
 -10685282.89547  -8276983.53145  20868028.6804                   20868025.9844
 -21369243.32047 -16393327.72345  21025220.0944                   21025216.5704
 -39026129.30547 -30356459.12544  22636986.5394                   22636984.4264
 -18123413.11747 -13515523.59046  20713616.4534   20713613.3484
   9000740.08647   7751388.18044  22720053.1804                   22720052.8244
 11  7 28  2 32  0.0000000  0  7G17G02G05G10G04G12G25
 -58687670.63346 -45679894.52343  23961684.5634                   23961681.9264
 -32832980.41447 -25527805.97346  20573392.0634                   20573386.7154
 -10838782.23447  -8396593.37145  20838818.9924                   20838816.3914
 -21419259.59047 -16432301.42245  21015702.0084                   21015699.5234
 -39034528.47747 -30363003.92244  22635387.7664                   22635386.0864
 -18233459.27747 -13601273.82446  20692675.3674   20692672.0664
   8831370.44547   7619411.88344  22687822.8444                   22687822.7774
 11  7 28  2 32 30.0000000  0  7G17G02G05G10G04G12G25
 -58710139.50446 -45697402.71543  23957407.0004                   23957405.8714
 -32905802.60247 -25584550.50046  20559534.0394                   20559529.3484
 -10991781.55547  -8515813.59045  20809703.7734                   20809701.2194
 -21468674.32047 -16470806.39145  21006298.8524                   21006296.2274
 -39042880.08247 -30369511.64844  22633798.8834                   22633796.7464
 -18342920.45747 -13686568.22745  20671845.5944   20671842.0354
   8662396.07847   7487743.60944  22655668.3834                   22655668.7344
 11  7 28  2 33  0.0000000  0  7G17G02G05G10G04G12G25
 -57156994.86346 -44487160.13743  24252961.4454                   24252959.4534
 -31402976.69947 -24413517.30546  20845513.0004                   20845508.0554
  -9568858.51647  -7407042.34845  21080476.8754                   21080474.2544
 -19942072.09047 -15281246.19545  21296801.2344                   21296798.6134
 -37475769.52747 -29148386.53544  22932010.3284                   22932008.3984
 -16876376.77047 -12543806.88746  20950919.4614   20950916.3484   10069240.52747
   8583986.07044                  22923382.0474                   22923381.9804
 11  7 28  2 33 30.0000000  0  7G17G02G05G10G04G12G25
 -57179078.45746 -44504368.16043  24248759.2424                   24248757.1414
 -31475348.91447 -24469911.22346  20831741.1174                   20831735.4024
  -9720861.28547  -7525486.02345  21051551.5864                   21051549.4144
 -19990297.78147 -15318824.63745  21287624.6724                   21287621.1334
 -37484038.96947 -29154830.24644  22930435.6174                   22930434.2274
 -16984674.96147 -12628195.07445  20930311.1174                   20930307.6334
   9901054.99247   8452932.45744  22891377.1174                   22891377.0474
 11  7 28  2 34  0.0000000  0  7G17G02G05G10G04G12G25
 -57200967.68446 -44521424.71143  24244593.8364                   24244591.9224
 -31547496.16447 -24526129.82846  20818011.4694                   20818006.2734
  -9872361.13747  -7643537.81245  21022722.1484                   21022719.6024
 -20037929.82447 -15355940.49245  21278560.2274                   21278557.3364
 -37492267.69146 -29161242.21943  22928870.1094                   22928868.0354
 -17092388.53947 -12712127.71546  20909813.8524                   20909810.5944
   9733269.23847   8322190.34444  22859448.7274                   22859448.3674
 11  7 28  2 34 30.0000000  0  7G17G02G05G10G04G12G25
 -57222664.75846 -44538331.52743  24240465.5944                   24240463.2384
 -31619421.32447 -24582175.39145  20804324.8284                   20804319.7154
 -10023357.86347  -7761197.56645  20993988.5394                   20993986.2114
 -20084971.74247 -15392596.52345  21269608.4534                   21269605.3134
 -37500458.88346 -29167624.98844  22927311.6254                   22927309.9264
 -17199518.53147 -12795605.60945  20889427.4924                   20889424.3714
   9565883.96547   8191760.28945  22827596.3674                   22827595.9964
 11  7 28  2 35  0.0000000  0  7G17G02G05G10G04G12G25
 -57244170.93746 -44555089.57843  24236372.7814                   24236370.3524
 -31691126.95347 -24638049.89146  20790679.5784                   20790674.3164
 -10173850.92247  -7878464.85545  20965350.7034                   20965348.0554
 -20131426.96147 -15428795.39145  21260768.3914                   21260765.1764
 -37508614.87547 -29173980.28944  22925759.9384                   22925757.9064
 -17306065.37947 -12878629.11746  20869152.6024                   20869149.1914
   9398900.33647   8061643.19944  22795819.6254                   22795819.8754
 11  7 28  2 35 30.0000000  0  7G17G02G05G10G04G12G25
 -57265485.35246 -44571698.19143  24232316.2504                   24232314.4104
 -31762613.91447 -24693753.98846  20777076.0554                   20777070.7304
 -10323838.09847  -7995337.94146  20936808.7584                   20936806.3094
 -20177296.88747 -15464538.18045  21252039.8674                   21252036.6954
 -37516736.90246 -29180309.16444  22924213.7974                   22924212.1844
 -17412028.03147 -12961197.40646  20848988.5004                   20848985.0594
   9232321.13747   7931841.24644  22764120.8834                   22764120.8404
 11  7 28  2 36  0.0000000  0  7G17G02G05G10G04G12G25
 -57286609.19146 -44588158.30543  24228296.5864                   24228294.9694
 -31833883.88347 -24749289.00846  20763514.0634                   20763508.4454
 -10473318.24247  -8111815.93445  20908363.7584                   20908361.1804
 -20222583.88747 -15499826.72345  21243421.7274                   21243418.5274
 -37524826.71546 -29186612.92644  22922674.7974                   22922672.6724
 -17517406.34447 -13043310.36746  20828936.0164                   20828932.3914
   9066148.22747   7802355.88744  22732499.5234                   22732499.5314
 11  7 28  2 36 30.0000000  0  7G17G02G05G10G04G12G25
 -57307541.71546 -44604469.35243  24224313.3444                   24224311.4184
 -31904937.52747 -24804655.46546  20749993.1414                   20749987.8094
 -10622288.79347  -8227896.84845  20880015.8364                   20880013.2304
 -20267289.27747 -15534662.08245  21234913.8444                   21234911.4344
 -37532884.92646 -29192892.04743  22921140.4694                   22921139.4264
 -17622199.03147 -13124966.99245  20808994.4454                   20808990.9964
   8900384.57047   7673189.41844  22700956.2274                   22700955.3054
 11  7 28  2 37  0.0000000  0  7G17G02G05G10G04G12G25
 -57328283.31246 -44620631.62143  24220366.3984                   24220364.4454
 -31975776.18747 -24859854.40246  20736512.5004                   20736507.6054
 -10770748.02347  -8343579.33245  20851764.8914                   20851762.1684
 -20311415.20747 -15569045.91045  21226517.3364                   21226514.5824
 -37540913.23846 -29199147.88343  22919613.4694                   22919611.5124
 -17726405.84847 -13206167.09846  20789164.5084                   20789161.1724
   8735032.29347   7544343.53144  22669490.4774                   22669489.8674
 11  7 28  2 37 30.0000000  0  7G17G02G05G10G04G12G25
 -57348834.43746 -44636645.52342  24216455.8364                   24216453.6254
 -32046401.62547 -24914887.20346  20723072.9064                   20723067.9224
 -10918694.96547  -8458862.63345  20823611.5234                   20823608.9304
 -20354963.88747 -15602979.93745  21218230.2274                   21218227.4344
 -37548913.52046 -29205381.89143  22918091.5864                   22918089.4304
 -17830026.44947 -13286910.41046  20769445.6724                   20769442.6054
   8570093.16047   7415819.55944  22638103.0944                   22638103.0004
 11  7 28  2 38  0.0000000  0  7G17G02G05G10G04G12G25
 -57369194.48846 -44652510.43443  24212582.0004                   24212579.9884
 -32116814.41047 -24969754.28946  20709673.8984                   20709668.8244
 -11066127.49247  -8573745.09445  20795555.6414                   20795553.3794
 -20397936.78547 -15636465.30945  21210053.1484                   21210050.0474
 -37556886.20746 -29211594.36743  22916574.0164                   22916571.9654
 -17933059.84447 -13367196.16446  20749839.3594                   20749835.7344
   8405570.20747   7287619.91044  22606795.9454                   22606795.0824
 11  7 28  2 38 30.0000000  0  7G17G02G05G10G04G12G25
 -57389364.54745 -44668227.35242  24208743.2274                   24208741.5664
 -32187016.73447 -25024457.38746  20696314.5004                   20696309.8014
 -11213044.41047  -8688225.77046  20767598.6804                   20767595.8404
 -20440336.87947 -15669504.33645  21201984.6484                   21201981.9024
 -37564833.57846 -29217787.13343  22915061.8364                   22915059.8634
 -18035506.40647 -13447024.64546  20730344.3754                   20730340.8834
   8241465.05547   7159745.79744  22575567.9844                   22575567.1764
 11  7 28  2 39  0.0000000  0  7G17G02G05G10G04G12G25
 -57409344.91845 -44683796.45742  24204940.5944                   24204939.9844
 -32257010.12547 -25078997.68446  20682995.2424                   20682990.1724
 -11359444.22747  -8802303.51245  20739739.2894                   20739737.2034
 -20482166.00047 -15702098.44545  21194024.9144                   21194021.9774
 -37572757.09846 -29223961.29343  22913554.1484                   22913551.6054
 -18137365.50847 -13526395.36346  20710961.2344                   20710958.1214
   8077779.69547   7032198.82844  22544419.2814                   22544418.7624
 11  7 28  2 39 30.0000000  0  7G17G02G05G10G04G12G25
 -57429137.61745 -44699219.35242  24201174.1644                   24201173.3054
 -32326797.43047 -25133377.38745  20669715.1174                   20669709.9574
 -11505327.48447  -8915978.74646  20711978.9534                   20711975.8524
 -20523428.47747 -15734251.00845  21186173.1254                   21186169.6094
 -37580660.16446 -29230119.52743  22912050.1174                   22912047.8914
 -18238638.55547 -13605309.41446  20691689.4304                   20691686.3284
   7914514.43047   6904979.20344  22513350.8524                   22513350.3554
 11  7 28  2 40  0.0000000  0  8G17G02G05G10G29G04G12G25
 -57448746.70745 -44714499.16042  24197443.0234                   24197441.9534
 -32396383.49247 -25187600.28146  20656473.6564                   20656468.3674
 -11650695.55947  -9029252.53145  20684316.5944                   20684313.5124
 -20564129.80147 -15765966.31645  21178427.3754                   21178424.9224
  29672106.54356  23163672.98853  24516596.1254                   24516595.4144
 -37588547.55146 -29236265.55944  22910549.6174                   22910547.1604
 -18339328.66847 -13683769.22346  20672528.5554                   20672525.5944
   7751668.03547   6778085.97744  22482361.9454                   22482360.7274
 11  7 28  2 40 30.0000000  0  8G17G02G05G10G29G04G12G25
 -57468171.30945 -44729635.22742  24193746.3364                   24193745.2234
 -32465768.69947 -25241666.65646  20643270.2974                   20643265.0044
 -11795546.58647  -9142123.42245  20656751.7194                   20656749.2504
 -20604271.44547 -15797245.52745  21170788.8284                   21170785.8244
  29501137.12546  23030450.09043  24484062.3524                   24484061.2194
 -37596419.57446 -29242399.61743  22909050.6174                   22909049.4964
 -18439434.86347 -13761774.03546  20653479.1724                   20653475.9184
   7589243.55547   6651521.50844  22451453.7814                   22451453.1294
 11  7 28  2 41  0.0000000  0  8G17G02G05G10G29G04G12G25
 -57487411.19145 -44744627.32842  24190085.2194                   24190083.7344
 -32534953.91847 -25295577.20746  20630104.8284                   20630099.4964
 -11939878.52347  -9254589.84046  20629286.4614                   20629283.9344
 -20643855.00047 -15828089.85245  21163256.0474                   21163253.3484
  29330104.08246  22897177.57043  24451516.2504                   24451514.8284
 -37604277.21146 -29248522.46943  22907555.8444                   22907553.9774
 -18538956.27047 -13839323.17246  20634540.9384                   20634537.3954
   7427243.65647   6525287.89144  22420625.8984                   22420625.6684
 11  7 28  2 41 30.0000000  0  8G17G02G05G10G29G04G12G25
 -55931046.10946 -43531875.30943  24486252.2664                   24486249.9304
 -31028518.12147 -24121731.11746  20916769.7664                   20916764.2974
 -10508265.05547  -8139046.83245  20901713.5704                   20901710.6484
 -19107461.55947 -14630900.14545  21455621.7114                   21455619.1414
  30734433.47346  23991460.22743  24718750.7664                   24718749.9224
 -36036701.56246 -28027034.94543  23205855.3984                   23205853.8674
 -17062469.51247 -12688814.00046  20915507.2504                   20915504.0634
   8841095.78947   7626990.92644  22689672.5634                   22689672.6374
 11  7 28  2 42  0.0000000  0  8G17G02G05G10G29G04G12G25
 -55949915.18746 -43546578.50443  24482660.7734                   24482658.9534
 -31097305.22747 -24175331.44946  20903680.1484                   20903674.8204
 -10651552.22747  -8250699.13346  20874446.8054                   20874444.3134
 -19145933.59847 -14660878.34845  21448301.2034                   21448298.2234
  30563276.13746  23858090.86743  24686180.5554                   24686179.4224
 -36044532.28546 -28033136.83643  23204365.8754                   23204363.8054
 -17160818.48047 -12765449.53546  20896791.9064                   20896788.5124
   8679953.64147   7501425.68044  22659008.8524                   22659008.4264
 11  7 28  2 42 30.0000000  0  8G17G02G05G10G29G04G12G25
 -55968593.96146 -43561133.40243  24479106.5314                   24479104.4224
 -31165889.98847 -24228774.11746  20890628.6414                   20890623.4384
 -10794309.41447  -8361938.45746  20847281.1724                   20847278.2894
 -19183847.91447 -14690421.96945  21441086.7664                   21441083.3364
  30392062.78146  23724677.83243  24653599.7664                   24653598.1484
 -36052346.25446 -28039225.64143  23202878.5234                   23202876.6844
 -17258575.48447 -12841623.81245  20878189.1334                   20878186.1604
   8519248.91847   7376201.27744  22628427.3834                   22628426.3874
 11  7 28  2 43  0.0000000  0  8G17G02G05G10G29G04G12G25
 -55987085.47746 -43575542.38743  24475587.8284                   24475585.6724
 -31234276.10247 -24282061.98446  20877615.2274                   20877610.3594
 -10936537.90247  -8472765.82046  20820215.7584                   20820212.9024
 -19221209.63747 -14719534.97745  21433976.9614                   21433973.7974
  30220790.85946  23591219.14843  24621008.3754                   24621006.3754
 -36060147.27346 -28045304.36743  23201393.8754                   23201391.7544
 -17355742.41847 -12917338.28946  20859699.0784                   20859695.5944
   8358981.07047   7251317.29344  22597929.1174                   22597929.3954
 11  7 28  2 43 30.0000000  0  8G17G02G05G10G29G04G12G25
 -56005389.10946 -43589804.91843  24472103.8364                   24472103.0784
 -31302464.08247 -24335195.46146  20864639.7814                   20864634.4694
 -11078235.51247  -8583179.49645  20793251.3674                   20793249.1954
 -19258020.10947 -14748218.47745  21426971.9454                   21426968.8164
  30049461.77346  23457715.89842  24588404.7424                   24588404.3054
 -36067936.05146 -28051373.55543  23199911.1644                   23199909.7624
 -17452319.06247 -12992592.80546  20841320.7974                   20841317.7734
   8199153.07447   7126776.05944  22567515.0784                   22567514.7234
 11  7 28  2 44  0.0000000  0  8G17G02G05G10G29G04G12G25
 -56023503.74246 -43603920.22343  24468656.9304                   24468655.9924
 -31370453.72747 -24388174.39546  20851701.4224                   20851696.4454
 -11219399.28547  -8693177.20346  20766388.8754                   20766386.1374
 -19294280.05147 -14776472.95745  21420072.0554                   21420069.0554
  29878077.17646  23324169.44142  24555792.0394                   24555791.1524
 -36075712.13346 -28057432.85543  23198431.7814                   23198430.1884
 -17548303.14547 -13067385.58645  20823056.1334                   20823052.9534
   8039768.65247   7002580.45745  22537185.5634                   22537185.1214
 11  7 28  2 44 30.0000000  0  8G17G02G05G10G29G04G12G25
 -56041429.28946 -43617888.18743  24465246.0394                   24465244.8834
 -31438246.21547 -24440999.70746  20838801.2034                   20838795.5124
 -11360027.76247  -8802757.80946  20739628.3754                   20739625.4064
 -19329991.83647 -14804300.32445  21413276.3204                   21413273.0984
  29706637.69546  23190580.25442  24523167.9064                   24523168.1644
 -36083476.59446 -28063483.07843  23196953.5784                   23196952.3554
 -17643694.67247 -13141716.63746  20804903.6724                   20804900.1764
   7880829.93047   6878732.13345  22506940.0704                   22506940.1914
 11  7 28  2 45  0.0000000  0  8G17G02G05G10G29G04G12G25
 -56059167.85246 -43631710.39543  24461871.1334                   24461869.3014
 -31505844.42647 -24493673.62546  20825937.3674                   20825932.4494
 -11500121.39847  -8911921.64546  20712969.4454                   20712966.8244
 -19365159.38347 -14831703.61745  21406583.7734                   21406581.0554
  29535142.11345  23056947.19942  24490533.2274                   24490533.9574
 -36091232.73846 -28069526.83643  23195478.9224                   23195476.7544
 -17738494.91447 -13215586.96146  20786864.0944                   20786860.4024
   7722337.36347   6755231.46145  22476780.0554                   22476779.5234
 11  7 28  2 45 30.0000000  0  8G17G02G05G10G29G04G12G25
 -56076719.80545 -43645387.25042  24458531.8834                   24458529.5434
 -31573249.64147 -24546197.15646  20813110.4774                   20813105.7464
 -11639678.71147  -9020667.56246  20686412.5004                   20686409.5594
 -19399784.89847 -14858684.52745  21399995.1024                   21399992.1684
  29363590.418 5                  24457889.078
 -36098981.53546 -28075564.84043  23194004.3834                   23194002.1174
 -17832704.25047 -13288996.82045  20768936.5394                   20768932.8054
   7564292.91847   6632079.97745  22446705.2584                   22446705.2274
 11  7 28  2 46  0.0000000  0  8G17G02G05G10G29G04G12G25
 -56094080.78145 -43658915.25842  24455227.4454                   24455226.4414
 -31640458.36747 -24598567.58246  20800321.1724                   20800315.7894
 -11778693.73847  -9128990.91446  20659958.8594                   20659956.0664
 -19433866.10947 -14885241.31245  21393509.5944                   21393506.5634
                                  24425231.922
 -36106719.48046 -28081594.41443  23192532.4454                   23192529.6994
 -17926317.56247 -13361942.25445  20751122.0944                   20751118.9414
   7406703.41447   6509282.97745  22416717.0084                   22416716.6484
 11  7 28  2 46 30.0000000  0  8G17G02G05G10G29G04G12G25
 -56111251.87945 -43672295.30142  24451958.3984                   24451958.5514
 -31707472.72347 -24650786.54346  20787568.8364                   20787563.6684
 -11917166.12947  -9236891.44946  20633608.5634                   20633605.4534
 -19467406.34447 -14911376.55145  21387127.0864                   21387124.3014
  29020334.25415                  24392567.203
 -36114448.90246 -28087617.33643  23191060.5554                   23191058.4184
 -18019335.71947 -13434423.93446  20733421.2664                   20733418.1844
   7249570.25447   6386841.55544  22386815.8054                   22386815.3364
 11  7 28  2 47  0.0000000  0  8G17G02G05G10G29G04G12G25
 -56128234.72345 -43685528.71542  24448727.4144                   24448727.5904
 -31774295.10547 -24702855.91846  20774852.8054                   20774847.5784
 -12055095.75447  -9344369.04345  20607361.0784                   20607358.4104
 -19500409.29347 -14937093.14545  21380847.0634                   21380844.1374
  28848628.66846  22982969.16853  24359893.6484                   24359892.1374
 -36122171.89846 -28093635.24643  23189591.2274                   23189588.8134
 -18111759.73447 -13506442.64846  20715833.9844                   20715830.0474
   7092894.12947   6264756.27045  22357001.4694                   22357000.4304
 11  7 28  2 47 30.0000000  0  8G17G02G05G10G29G04G12G25
 -56145028.35245 -43698614.66042  24445531.7814                   24445531.2344
 -31840925.35947 -24754775.57046  20762173.8134                   20762168.7704
 -12192479.96147  -9451421.64146  20581217.2894                   20581214.9694
 -19532875.85547 -14962391.76245  21374668.7274                   21374665.3014
  28676873.05146  22849133.67643  24327209.9384                   24327208.5784
 -36129888.39846 -28099648.12543  23188122.8284                   23188120.9184
 -18203588.33247 -13577997.39146  20698359.2424                   20698356.5704
   6936678.61347   6143029.91045  22327274.1564                   22327274.1844
 11  7 28  2 48  0.0000000  0  8G17G02G05G10G29G04G12G25
 -56161633.50845 -43711553.68042  24442372.3364                   24442371.2424
 -31907365.35247 -24806546.97746  20749530.0704                   20749525.2304
 -12329317.90647  -9558048.58646  20555178.6954                   20555175.6804
 -19564809.01247 -14987274.73845  21368591.8754                   21368588.9964
  28505067.33246  22715259.20743  24294516.2734                   24294515.4454
 -36137600.13346 -28105657.26243  23186656.1644                   23186653.5824
 -18294822.13747 -13649088.67246  20680998.2664                   20680994.6764
   6780925.19147   6021663.62145  22297635.2664                   22297634.9654
 11  7 28  2 48 30.0000000  0  7G02G05G10G29G04G12G25
 -31973616.66847 -24858171.35545  20736923.3524                   20736918.1454
 -12465609.08647  -9664249.46946  20529242.9064                   20529239.9804
 -19596211.68747 -15011744.35245  21362616.0004                   21362612.5474
  28333211.34446  22581345.52043  24261812.7194                   24261812.2154
 -36145308.79746 -28111664.02743  23185188.2504                   23185186.2304
 -18385461.34447 -13719716.62146  20663749.8674                   20663746.5354
   6625635.35947   5900658.56645  22268084.5234                   22268084.6844
 11  7 28  2 49  0.0000000  0  7G02G05G10G29G04G12G25
 -32039678.37547 -24909648.00046  20724352.0784                   20724346.7664
 -12601349.97347  -9770021.56646  20503412.6334                   20503409.4574
 -19627084.24647 -15035800.87145  21356741.6174                   21356738.2154
  28161307.66446  22447394.70343  24229100.1254                   24229099.3634
 -36153013.41846 -28117667.63743  23183722.6804                   23183720.0434
 -18475504.19947 -13789879.89146  20646615.2664                   20646611.9184
   6470813.29347   5780018.00045  22238623.4774                   22238622.3794
 11  7 28  2 49 30.0000000  0  7G02G05G10G29G04G12G25
 -32105548.33647 -24960975.23046  20711817.1094                   20711812.3054
 -12736536.22747  -9875361.48046  20477687.1094                   20477684.0704
 -19657425.90247 -15059443.71544  21350967.4534                   21350964.3164
  27989360.47346  22313409.98443  24196379.4384                   24196379.2734
 -36160711.65646 -28123666.26643  23182256.9224                   23182254.7934
 -18564947.13747 -13859575.68446  20629595.5084                   20629591.9184
   6316464.48447   5659746.21544  22209251.3594                   22209250.7234
 11  7 28  2 50  0.0000000  0  7G02G05G10G29G04G12G25
 -32171226.71947 -25012153.17246  20699319.7424                   20699313.6174
 -12871165.70347  -9980267.54345  20452068.0394                   20452065.0164
 -19687237.80947 -15082673.75445  21345294.8054                   21345291.4104
  27817370.79346  22179392.11743  24163651.2814                   24163650.4264
 -36168403.75846 -28129660.09843  23180793.6644                   23180791.2074
 -18653789.55547 -13928803.53946  20612689.2734                   20612685.7464
   6162591.70747   5539845.38345  22179970.1884                   22179969.9694
 11  7 28  2 50 30.0000000  0  7G02G05G10G29G04G12G25
 -30661292.71547 -23835581.19946  20986649.8984                   20986644.7934
 -11429813.29347  -8857135.77746  20726348.3284                   20726345.5124
 -18141102.14147 -13877892.70745  21639514.7814                   21639511.3554
  29220764.65646  23272945.84443  24430708.6954                   24430707.5784
 -34600671.09846 -26908050.23443  23479123.1644                   23479121.0594
 -17166608.29747 -12769960.98845  20895689.8284                   20895686.5904
   7584621.80947   6647920.79745  22450574.0164                   22450573.2384
 11  7 28  2 51  0.0000000  0  7G02G05G10G29G04G12G25
 -30726594.25847 -23886465.51245  20974223.8444                   20974218.1054
 -11563328.63347  -8961173.69146  20700941.0634                   20700938.0664
 -18169865.46547 -13900305.68444  21634040.7734   21634037.5784   29048689.35946
  23138861.25843  24397963.5634   24397962.2544
 -34608356.94946 -26914039.23843  23477660.2504                   23477658.6294
 -17254252.54347 -12838255.20345  20879012.1884                   20879008.0784
   7431704.65647   6528764.62945  22421474.4144                   22421474.0984
 11  7 28  2 51 30.0000000  0  7G02G05G10G29G04G12G25
 -30791710.93447 -23937205.75845  20961832.6804                   20961827.3444
 -11696286.92647  -9064777.54346  20675639.7504                   20675636.9844
 -18198110.05947 -13922314.44145  21628665.9144   21628662.7274   28876570.19946
  23004742.44543                  24365210.4224                   24365208.8444
 -34616042.98846 -26920028.39543  23476198.1804                   23476195.9844
 -17341299.56247 -12906084.03545  20862447.7504                   20862444.3524
   7279266.40647   6409981.60244  22392466.5234                   22392465.5514
 11  7 28  2 52  0.0000000  0  7G02G05G10G29G04G12G25
 -30856643.28547 -23987802.38746  20949476.1024                   20949471.0394
 -11828686.45747  -9167945.98446  20650444.9304                   20650442.1374
 -18225837.98847 -13943920.60245  21623389.3914   21623386.6254   28704408.29746
  22870590.34443                  24332448.0944                   24332447.0514
 -34623729.91046 -26926018.22743  23474735.5234                   23474732.9064
 -17427749.10247 -12973447.30546  20845996.7504                   20845993.2424
   7127309.60247   6291573.75445  22363550.2734                   22363549.7774
 11  7 28  2 52 30.0000000  0  7G02G05G10G29G04G12G25
 -30921391.86347 -24038255.80946  20937154.7344                   20937149.6954
 -11960525.92247  -9270678.03146  20625356.8914                   20625354.1644
 -18253050.89847 -13965125.45744  21618211.1724   21618207.9144   28532204.72746
  22736405.84042                  24299679.8984                   24299678.4104
 -34631418.07846 -26932008.99243  23473272.2664                   23473270.5664
 -17513600.82447 -13040344.74245  20829659.4534                   20829655.9454
   6975836.81647   6173543.03945  22334725.3284                   22334724.7504
 11  7 28  2 53  0.0000000  0  7G02G05G10G29G04G12G25
 -30985959.74647 -24088568.44145  20924867.7274                   20924862.9734
 -12091805.94947  -9372974.13346  20600374.9844                   20600372.5004
 -18279753.15647 -13985932.38344  21613130.3444   21613126.7584   28359958.27745
  22602187.87142                  24266902.3054                   24266901.1024
 -34639110.54746 -26938003.15243  23471808.4454                   23471806.6884
 -17598856.71147 -13106777.89545  20813435.2974                   20813432.6954
   6824848.05547   6055889.51645  22305993.1724                   22305992.9654
 11  7 28  2 53 30.0000000  0  7G02G05G10G29G04G12G25
 -31050348.82047 -24138741.73445  20912615.0784                   20912609.7934
 -12222526.28947  -9474834.11746  20575500.1804                   20575496.9144
 -18305948.54347 -14006344.36344  21608144.9694   21608141.6764   28187668.71146
  22467936.33243                  24234116.2194                   24234115.1804
 -34646809.02346 -26944001.95343  23470343.1094                   23470341.7704
 -17683517.81247 -13172747.57046  20797325.2974                   20797321.9024
   6674344.50447   5938614.07845  22277353.0394                   22277352.2384
 11  7 28  2 54  0.0000000  0  7G02G05G10G29G04G12G25
 -31114560.93747 -24188777.14145  20900396.1804                   20900390.7974
 -12352686.76647  -9576257.84446  20550730.7584                   20550728.3204
 -18331640.34847 -14026363.93444  21603255.9384   21603253.0394   28015336.08646
  22333651.18442                  24201321.8594                   24201321.6454
 -34654515.23046 -26950006.80543  23468876.9144                   23468875.3834
 -17767585.35947 -13238254.75045  20781327.9304                   20781324.1844
   6524327.30947   5821717.60245  22248805.6254                   22248805.8284
 11  7 28  2 54 30.0000000  0  7G02G05G10G29G04G12G25
 -31178595.43447 -24238674.14545  20888210.5634                   20888205.5904
 -12482284.50447  -9677243.06646  20526069.3364                   20526066.5904
 -18356828.91447 -14045991.36744  21598462.7274   21598459.8134   27842962.65645
  22199334.26642                  24168520.7504                   24168519.9654
 -34662228.44946 -26956017.12143  23467408.5784                   23467407.4574
 -17851057.79747 -13303298.19546  20765443.9534                   20765439.8954
   6374800.19947   5705203.02745  22220351.9384                   22220350.6564
 11  7 28  2 55  0.0000000  0  7G02G05G10G29G04G12G25
 -31242454.39847 -24288434.37145  20876058.7114                   20876053.3284
 -12611319.70747  -9777789.95346  20501514.7584                   20501512.2274
 -18381518.21147 -14065229.76644  21593764.5394   21593761.2074   27670548.14545
  22064985.35542                  24135711.1724                   24135710.8524
 -34669950.54746 -26962034.34443  23465939.7974                   23465937.8914
 -17933936.19147 -13367878.75846  20749672.1804                   20749669.0164
   6225764.14147   5589071.06645  22191991.3984                   22191990.9654
 11  7 28  2 55 30.0000000  0  7G02G05G10G29G04G12G25
 -31306137.36747 -24338057.45345  20863940.4694                   20863935.0824
 -12739789.41047  -9877896.18446  20477068.0944                   20477065.2344
 -18405709.09047 -14084079.78944  21589161.3364   21589158.1844   27498095.11746
  21930606.44542                  24102895.2424                   24102894.6484
 -34677680.88346 -26968058.00843  23464468.8754                   23464467.0434
 -18016219.32047 -13431995.47746  20734014.5164                   20734010.8594
   6077222.73047   5473324.56345  22163724.7584                   22163723.8984
 11  7 28  2 56  0.0000000  0  7G02G05G10G29G04G12G25
 -31369645.25047 -24387544.11346  20851855.2344                   20851849.5944
 -12867693.09047  -9977561.35946  20452729.0004                   20452725.6414
 -18429404.32447 -14102543.60244  21584652.2274   21584648.7544   27325604.03146
  21796197.88342                  24070070.2664                   24070070.2664
 -34685420.66846 -26974089.01643  23462995.6174                   23462994.3324
 -18097907.87147 -13495648.88345  20718469.8984                   20718466.1094
   5929177.58647   5357964.73445  22135552.6564                   22135551.7274
 11  7 28  2 56 30.0000000  0  7G02G05G10G29G04G12G25
 -31432981.00847 -24436896.64545  20839802.4534                   20839797.5314
 -12995031.77347 -10076786.28946  20428497.4534                   20428493.7624
 -18452608.31647 -14120624.62144  21580236.8914   21580233.6454   27153073.25446
  21661758.44143                  24037239.0314                   24037237.8914
 -34693172.81646 -26980129.67643  23461521.0234                   23461519.1914
 -18179004.32047 -13558840.91445  20703037.5944                   20703034.2814
   5781628.55147   5242991.50445  22107475.0944                   22107474.5744
 11  7 28  2 57  0.0000000  0  7G02G05G10G29G04G12G25
 -31496145.64847 -24486115.83646  20827783.0084                   20827777.7154
 -13121804.60247 -10175570.28146  20404372.7734                   20404370.0554
 -18475323.30147 -14138324.60244  21575914.0784   21575911.2504   26980503.78546
  21527288.75442                  24004399.7034                   24004398.5514
 -34700937.94146 -26986180.43443  23460042.8834                   23460041.5354
 -18259508.35947 -13621571.34045  20687718.0944                   20687714.6994
   5634577.89847   5128406.60945  22079492.0554                   22079491.4454
 11  7 28  2 57 30.0000000  0  7G02G05G10G29G04G12G25
 -31559138.05547 -24535200.82045  20815795.7424                   20815790.3834
 -13248007.71947 -10273910.34846  20380357.0394                   20380353.8834
 -18497550.04347 -14155644.12144  21571684.2344   21571681.4734   26807898.93046
  21392791.56643                  23971554.9694                   23971553.7894
 -34708714.50846 -26992240.11343  23458563.1724                   23458561.7424
 -18339418.19147 -13683838.73446  20672511.5784                   20672508.4964
   5488029.80147   5014213.30545  22051605.5164                   22051604.5314
 11  7 28  2 58  0.0000000  0  7G02G05G10G29G04G12G25
 -31621959.95347 -24584152.95746  20803841.1254                   20803836.2154
 -13373641.48447 -10371806.75846  20356449.3204                   20356446.8134
 -18519291.87147 -14172585.79344  21567547.1094   21567543.6454   26635258.54746
  21258266.68443                  23938702.2194                   23938701.5554
 -34716504.37146 -26998310.18043  23457081.1884                   23457079.4654
 -18418735.09847 -13745644.12145  20657418.2344                   20657414.7114
   5341985.22347   4900412.37145  22023813.3364                   22023812.9064
 11  7 28  2 58 30.0000000  0  7G02G05G10G29G04G12G25
 -31684611.88347 -24632972.62546  20791919.0394                   20791913.6684
 -13498704.76647 -10469258.63746  20332650.8054                   20332648.4224
 -18540550.79347 -14189151.17244  21563501.8984   21563498.6094   26462583.95346
  21123715.10543                  23905843.8204                   23905842.3204
 -34724307.80146 -27004390.80143  23455596.1724                   23455594.5704
 -18497458.79747 -13806987.25446  20642437.4924                   20642433.9964
   5196446.52747   4787005.60945  21996118.3444                   21996117.4264
 11  7 28  2 59  0.0000000  0  7G02G05G10G29G04G12G25
 -30171671.48447 -23454058.02745  21079822.1334                   21079817.3094
 -12047770.98447  -9338660.84846  20608754.2894                   20608751.3834
 -16985907.48447 -12977740.78544  21859340.4304                   21859337.1954
  27865302.69146                  22216742.78143  24172771.9144   24172770.3634
 -33156704.35246 -25782881.60943  23753901.0944                   23753899.1724
 -17000166.41047 -12640265.91446  20927362.7504                   20927359.4184
   6626841.56647   5901599.16845  22268312.9924                   22268313.1254
 11  7 28  2 59 30.0000000  0  7G02G05G10G29G04G12G25
 -30233984.17247 -23502613.35945  21067964.0314                   21067959.0594
 -12171688.19547  -9435219.69146  20585173.7584                   20585170.5314
 -17006206.50047 -12993558.18744  21855477.4064                   21855474.7274
  27692563.78146                  22082141.15243  24139901.3674   24139899.6214
 -33164535.53546 -25788983.82843  23752410.8914                   23752409.0824
 -17077703.47747 -12700684.39546  20912608.2734                   20912604.4304
   6482322.09047   5788986.61745  22240812.5704                   22240811.6214
 11  7 28  3  0  0.0000000  0  7G02G05G10G29G04G12G25
 -30296129.92647 -23551038.61745  21056138.3594                   21056133.5664
 -12295032.47747  -9531332.09446  20561701.7114                   20561698.9614
 -17026030.86747 -13009005.73844  21851705.7034                   21851702.0864
  27519792.63346                  21947514.37943  24107023.2814   24107021.9844
 -33172383.06246 -25795098.80143  23750917.5314                   23750915.7234
 -17154649.44947 -12760642.29345  20897965.8914                   20897962.6604
   6338313.78947   5676772.37545  22213408.5554                   22213407.9104
 11  7 28  3  0 30.0000000  0  7G02G05G10G29G04G12G25
 -30358109.93047 -23599334.72346  21044343.8914                   21044338.6804
 -12417803.20347  -9626997.56246  20538339.5084                   20538336.5124
 -17045383.13747 -13024085.41445  21848022.5704                   21848019.4064
  27346990.17246                  21812863.20743  24074139.9774   24074138.4884
 -33180247.74646 -25801227.12143  23749420.8834                   23749419.2584
 -17231005.07047 -12820140.17245  20883435.7974                   20883432.2974
   6194818.38747   5564957.80545  22186102.0944                   22186101.7114
 11  7 28  3  1  0.0000000  0  7G02G05G10G29G04G12G25
 -30419923.77047 -23647501.34046  21032581.1334                   21032576.3554
 -12539998.18447  -9722214.39546  20515086.3984                   20515083.5944
 -17064264.73447 -13038798.34444  21844429.5474                   21844426.5554
  27174158.29346                  21678189.07443  24041251.2034   24041249.7194
 -33188129.33246 -25807368.66443  23747920.5634                   23747919.3094
 -17306768.78547 -12879176.83245  20869018.4384                   20869014.8324
   6051838.83647   5453545.18445  22158893.8054                   22158893.1414
 11  7 28  3  1 30.0000000  0  7G02G05G10G29G04G12G25
 -30481574.98447 -23695541.24246  21020849.5784                   21020843.6024
 -12661619.45747  -9816984.18446  20491942.8914                   20491939.7974
 -17082680.62547 -13053148.37944  21840925.3364                   21840922.3014
  27001295.48046                  21543490.87543  24008355.9384   24008355.7424
 -33196030.89546 -25813525.72343  23746417.3674                   23746415.6994
 -17381944.23447 -12937755.09445  20854712.8284                   20854709.4184
   5909374.55147   5342534.07845  22131784.0084                   22131783.8324
 11  7 28  3  2  0.0000000  0  7G02G05G10G29G04G12G25
 -30543063.13747 -23743454.07445  21009148.6254                   21009143.5354
 -12782664.99647  -9911305.35246  20468908.9534                   20468906.3014
 -17100632.54747 -13067136.87544  21837508.6094                   21837506.2274
  26828403.82445                  21408770.21543  23975455.2734   23975454.8594
 -33203951.98846 -25819698.03943  23744909.6174                   23744908.7154
 -17456530.75447 -12995874.45745  20840519.4224                   20840516.0594
   5767428.39547   5231926.72345  22104772.6564                   22104771.8554
 11  7 28  3  2 30.0000000  0  7G02G05G10G29G04G12G25
 -30604387.61747 -23791239.38345  20997478.6334                   20997473.2854
 -12903132.02747 -10005175.73446  20445984.6334                   20445981.5554
 -17118121.55147 -13080764.66844  21834180.7814                   21834178.1604
  26655485.66446                  21274028.86743  23942551.7344   23942549.0234
 -33211891.74246 -25825884.89543  23743399.2584                   23743397.5004
 -17530527.24247 -13053534.04745  20826438.8674                   20826435.0354
   5626003.84447   5121725.79345  22077860.7034                   22077859.5664
 11  7 28  3  3  0.0000000  0  7G02G05G10G29G04G12G25
 -30665551.16447 -23838899.28546  20985839.5704                   20985834.3164
 -13023022.32847 -10098596.71146  20423170.2814                   20423166.7704
 -17135152.21547 -13094035.30944  21830939.7344                   21830937.2774
  26482540.18046                  21139266.19543  23909640.7504   23909639.1484
 -33219852.92246 -25832088.47743  23741884.5474                   23741882.6564
 -17603936.60247 -13110736.14145  20812469.1644                   20812466.0164
   5485100.72347   5011931.18845  22051047.5164                   22051047.3554
 11  7 28  3  3 30.0000000  0  7G02G05G10G29G04G12G25
 -30726552.87947 -23886433.07445  20974231.2894                   20974226.1914
 -13142333.60947 -10191566.50446  20400466.0004                   20400463.0354
 -17151725.89147 -13106949.85544  21827786.1804                   21827783.6334
  26309569.86346                  21004484.17243  23876724.9694   23876723.1994
 -33227834.60546 -25838307.94143  23740365.9534                   23740363.7384
 -17676757.55147 -13167479.72345  20798611.9774                   20798608.4344
   5344722.10547   4902545.26645  22024334.6024                   22024333.7034
 11  7 28  3  4  0.0000000  0  7G02G05G10G29G04G12G25
 -30787394.70747 -23933842.28145  20962653.8524                   20962648.1644
 -13261065.50847 -10284084.83246  20377872.0634                   20377868.4224
 -17167845.47347 -13119510.55944  21824718.6334                   21824715.9734
  26136575.17646                  20869683.19143  23843804.5314   23843803.9694
 -33235838.00446 -25844544.35242  23738842.7194                   23738840.7234
 -17748990.94547 -13223765.48445  20784866.2274                   20784863.0634
   5204869.35947   4793569.12145  21997721.3134                   21997721.1684
 11  7 28  3  4 30.0000000  0  7G02G05G10G29G04G12G25
 -30848076.72347 -23981126.95345  20951106.3594                   20951100.5594
 -13379217.05547 -10376150.94146  20355388.3364                   20355385.3594
 -17183513.39547 -13131719.31644  21821736.7504                   21821734.4384
  25963557.85246                  20734864.57043  23810881.7584   23810879.4104
 -33243863.25846 -25850797.85543  23737315.0164                   23737313.3244
 -17820637.49647 -13279593.96145  20771232.6254                   20771229.2424
   5065544.76247   4685004.53545  21971208.3524                   21971208.0084
 11  7 28  3  5  0.0000000  0  7G02G05G10G29G04G12G25
 -30908600.01247 -24028287.95345  20939589.1094                   20939583.6604
 -13496787.96547 -10467764.60246  20333015.1644                   20333012.3714
 -17198732.34447 -13143578.23444  21818841.4534                   21818838.8524
  25790517.85946                  20600028.31643  23777952.9384   23777950.6724
 -33251911.35946 -25857069.09842  23735783.8134                   23735782.1174
 -17891698.25447 -13334965.97345  20757709.8204                   20757706.5824
   4926749.60547   4576852.48445  21944795.8984                   21944795.8404
 11  7 28  3  5 30.0000000  0  7G02G05G10G29G04G12G25
 -30968965.98847 -24075326.36345  20928101.4304                   20928096.9184
 -13613778.04747 -10558925.67246  20310753.1094                   20310749.5274
 -17213505.52347 -13155089.78944  21816030.0784                   21816027.0784
  25617456.03546                  20465175.00043  23745020.3524   23745018.1684
 -33259983.47346 -25863359.11343  23734247.9064                   23734246.1884
 -17962173.80947 -13389881.99246  20744298.8364                   20744295.2814
   4788485.13747   4469113.96545  21918486.2034                   21918485.6134
 11  7 28  3  6  0.0000000  0  7G02G05G10G29G04G12G25
 -31029175.55947 -24122242.90645  20916644.0474                   20916638.8134
 -13730186.84047 -10649633.78946  20288601.0164                   20288597.8014
 -17227835.73047 -13166256.17244  21813302.8444                   21813300.4344
  25444373.69946                  20330305.73843  23712083.1094   23712081.8404
 -33268080.21546 -25869668.28143  23732707.2274                   23732705.3134
 -18032065.23047 -13444342.82846  20730998.9774                   20730995.6914
   4650753.03947   4361790.27045  21892276.1254                   21892275.6954
 11  7 28  3  6 30.0000000  0  7G02G05G10G29G04G12G25
 -31089228.75447 -24169037.59045  20905216.9144                   20905210.9694
 -13846013.29747 -10739888.13746  20266560.2194                   20266557.1094
 -17241725.13347 -13177079.08644  21810659.3834                   21810657.2974
  25271272.14146                  20195421.50443  23679143.8444   23679141.3404
 -33276201.55546 -25875996.60943  23731161.8284                   23731160.1954
 -18101373.05547 -13498348.92246  20717810.1724                   20717807.1524
   4513555.53147   4254883.14145  21866168.2974                   21866167.8364
 11  7 28  3  7  0.0000000  0  7G02G05G10G29G04G12G25
 -31149127.29347 -24215711.77045  20893817.7344                   20893812.6994
 -13961257.55547 -10829688.82846  20244629.4694                   20244626.7424
 -17255177.46947 -13187561.43444  21808099.7344                   21808097.3164
  25098151.43046                  20060522.34043  23646199.8914   23646198.0864
 -33284349.32046 -25882345.57843  23729611.2974                   23729609.4694
 -18170098.68747 -13551901.35545  20704732.0554                   20704728.9104
   4376893.26247   4148393.08645  21840162.1954                   21840161.9844
 11  7 28  3  7 30.0000000  0  7G02G05G10G29G04G12G25
 -31208871.82047 -24262265.93045  20882449.2974                   20882444.2344
 -14075918.74247 -10919035.17646  20222810.6334                   20222807.7194
 -17268194.82847 -13197704.80944  21805622.6954                   21805620.1054
  24925013.25446                  19925609.59043  23613252.0164   23613250.6724
 -33292523.52746 -25888715.11343  23728054.9224                   23728054.4184
 -18238242.43047 -13605000.37946  20691764.4694                   20691761.5084
   4240768.28947   4042321.69545  21814258.5004                   21814257.6094
 11  7 28  3  8  0.0000000  0  7G02G05G10G29G04G12G25
 -29693041.42647 -23081099.37545  21170902.0704                   21170896.5784
 -12614573.36747  -9780324.46546  20500895.1174                   20500891.8954
 -15705360.34047 -11979911.71144  22103020.4774                   22103017.5514
  26327283.69946                  21018287.98843  23880095.7664   23880093.5164
 -31725304.76646 -24667505.77343  24026288.0784                   24026286.0664
 -16730383.44547 -12430045.32045  20978700.9224                   20978697.5204
   5680606.25447   5164273.37545  22088250.9144                   22088250.0824
 11  7 28  3  8 30.0000000  0  7G02G05G10G29G04G12G25
 -29752481.82447 -23127416.55145  21159590.5474                   21159585.5784
 -12728069.15247  -9868762.70346  20479297.6174                   20479294.6174
 -15717518.28947 -11989385.40644  22100706.8674                   22100704.2074
  26154111.32046                  20883348.56643  23847142.3524   23847139.9064
 -31733535.27346 -24673919.20343  24024721.6644                   24024719.7154
 -16797368.05947 -12482241.11346  20965954.2504                   20965950.6054
   5545558.74247   5059041.57445  22062551.9844                   22062551.5984
 11  7 28  3  9  0.0000000  0  7G02G05G10G29G04G12G25
 -29811771.97347 -23173616.65245  21148308.4224                   21148302.8674
 -12840981.89547  -9956746.62146  20457810.8594                   20457807.6254
 -15729250.65247 -11998527.50044  22098474.5234                   22098471.1604
  25980923.14146                  20748396.85543  23814185.4304   23814183.2664
 -31741795.40246 -24680355.71543  24023149.8284                   24023147.7624
 -16863775.00847 -12533986.78945  20953317.3134                   20953314.1334
   5411051.88747   4954231.05945  22036956.1334                   22036955.6094
 11  7 28  3  9 30.0000000  0  7G02G05G10G29G04G12G25
 -29870910.14147 -23219698.31245  21137054.6564                   21137049.6914
 -12953309.14147 -10044274.33246  20436435.7034                   20436432.7704
 -15740557.98047 -12007338.40244  22096322.5634                   22096319.3914
  25807722.49646                  20613435.41043  23781225.5314   23781224.2304
 -31750083.18446 -24686813.76243  24021572.5474                   24021571.1914
 -16929602.82047 -12585281.18045  20940790.3594                   20940787.0594
   5277089.62947   4849844.90645  22011464.0004                   22011463.5704
 11  7 28  3 10  0.0000000  0  7G02G05G10G29G04G12G25
 -29929898.29347 -23265663.10245  21125830.2034                   21125824.6414
 -13065051.78547 -10131346.48846  20415172.3914                   20415168.7704
 -15751444.48847 -12015821.37944  22094250.9384                   22094248.0234
  25634509.08246                  20478464.06343  23748264.7894   23748262.7384
 -31758400.49646 -24693294.77343  24019990.5944                   24019988.1174
 -16994853.43447 -12636125.81245  20928374.1024                   20928370.4264
   5143672.10547   4745883.22745  21986075.2034                   21986074.9774
 11  7 28  3 10 30.0000000  0  7G02G05G10G29G04G12G25
 -29988739.11347 -23311513.06645  21114632.0234                   21114627.0984
 -13176210.73847 -10217963.83246  20394019.2344                   20394015.7384
 -15761914.49247 -12023979.80944  22092257.8204                   22092255.7544
  25461282.25446                  20343482.18843  23715300.6724   23715298.6994
 -31766749.75446 -24699800.75043  24018400.7894                   24018399.2464
 -17059529.58247 -12686522.80945  20916066.1644                   20916063.0354
   5010799.02047   4642345.77345  21960790.5234                   21960789.5704
 11  7 28  3 11  0.0000000  0  7G02G05G10G29G04G12G25
 -30047431.31647 -23357247.23045  21103463.4304                   21103458.7814
 -13286784.20347 -10304124.94546  20372978.1094                   20372974.4614
 -15771968.98847 -12031814.47344  22090344.9694                   22090342.2194
  25288045.21146                  20208492.40243  23682333.7664   23682332.7344
 -31775129.61746 -24706330.55943  24016807.0164                   24016804.6724
 -17123630.71947 -12736471.75045  20903868.4144                   20903865.1454
   4878473.89547   4539235.31345  21935609.8594                   21935608.9264
 11  7 28  3 11 30.0000000  0  7G02G05G10G29G04G12G25
 -30105976.60247 -23402866.91845  21092323.1564                   21092317.4454
 -13396772.64547 -10389830.18746  20352046.9694                   20352044.1254
 -15781611.85947 -12039328.39544  22088510.1334                   22088507.5474
  25114798.18046                  20073494.80943  23649366.0164   23649365.3244
 -31783541.39946 -24712885.23742  24015204.6564                   24015204.2934
 -17187158.57047 -12785973.96145  20891779.2734                   20891775.8834
   4746697.19547   4436552.21145  21910533.5234                   21910532.5234
 11  7 28  3 12  0.0000000  0  7G02G05G10G29G04G12G25
 -30164375.49647 -23448372.53545  21081210.0944                   21081204.8754
 -13506175.14547 -10475078.87146  20331228.6414                   20331225.8714
 -15790845.17647 -12046523.19544  22086753.2504                   22086750.5984
  24941543.04746                  19938490.88743  23616397.5164   23616395.4654
 -31791985.01646 -24719464.68742  24013598.7194                   24013597.2624
 -17250113.64547 -12835029.86745  20879799.3444                   20879795.6174
   4615470.94147   4334298.00845  21885561.7974                   21885560.9574
 11  7 28  3 12 30.0000000  0  7G02G05G10G29G04G12G25
 -30222628.39847 -23493764.40645  21070124.6564                   21070119.7344
 -13614991.62147 -10559870.91046  20310522.0944                   20310518.5664
 -15799671.56647 -12053400.88744  22085073.7894                   22085071.0314
  24768280.54746                  19803481.18843  23583426.2584   23583424.1524
 -31800461.22746 -24726069.59042  24011986.5704                   24011984.7304
 -17312496.95347 -12883640.23845  20867927.8204                   20867925.2774
   4484796.52347   4232473.81645  21860695.4774                   21860694.3914
 11  7 28  3 13  0.0000000  0  7G02G05G10G29G04G12G25
 -30280737.33247 -23539044.07845  21059066.7274                   21059061.7854
 -13723223.23047 -10644207.19946  20289925.8594                   20289922.4804
 -15808095.18047 -12059964.73844  22083470.4454                   22083467.9224
  24595010.46546                  19668465.62943  23550454.1954   23550451.6214
 -31808971.72746 -24732701.14542  24010366.1564                   24010365.1094
 -17374311.05547 -12931807.06645  20856165.4694                   20856162.1374
   4354673.91047   4131079.58645  21835934.1954                   21835932.7074
 11  7 28  3 13 30.0000000  0  7G02G05G10G29G04G12G25
 -30338702.04347 -23584211.36345  21048036.8834                   21048031.2894
 -13830868.74647 -10728086.80146  20269441.9304                   20269438.6764
 -15816118.04747 -12066216.32444  22081943.7114                   22081941.3204
  24421735.24246                  19533446.02743  23517481.0394   23517478.8984
 -31817516.14846 -24739359.16442  24008740.7194                   24008739.0904
 -17435555.80147 -12979530.24645  20844510.9844                   20844507.3094
   4225105.56647   4030117.26645  21811277.8444                   21811277.2544
 11  7 28  3 14  0.0000000  0  7G02G05G10G29G04G12G25
 -30396525.30147 -23629268.44945  21037033.3054                   21037027.7384
 -13937929.91047 -10811511.06246  20249068.1884                   20249065.4414
 -15823744.68447 -12072159.16844  22080491.8834                   22080489.6914
  24248453.89546                  19398421.64143  23484505.8204   23484503.9694
 -31826096.69146 -24746045.34043  24007107.8984                   24007107.1884
 -17496234.69147 -13026812.49645  20832964.3284                   20832960.7584
   4096090.77047   3929586.28145  21786727.2114                   21786726.6604
 11  7 28  3 14 30.0000000  0  7G02G05G10G29G04G12G25
 -30454206.87547 -23674215.11745  21026057.5234                   21026051.6684
 -14044405.41847 -10894478.96946  20228806.7894                   20228803.6054
 -15830977.28147 -12077794.94144  22079115.7194                   22079113.0904
  24075168.55946                  19263394.12143  23451530.7894   23451528.6884
 -31834713.00846 -24752759.34843  24005468.0004                   24005467.6054
 -17556347.16047 -13073653.37945  20821525.2664                   20821521.8164
   3967631.94147   3829488.50445  21762281.9694                   21762281.4804
 11  7 28  3 15  0.0000000  0  7G02G05G10G29G04G12G25
 -30511746.74647 -23719051.37145  21015107.5634                   21015101.9734
 -14150294.69147 -10976990.07446  20208656.7344                   20208653.3754
 -15837817.52347 -12083125.00444  22077814.8054                   22077811.7704
  23901881.10546                  19128365.00043  23418555.0394   23418553.6094
 -31843364.80546 -24759501.07842  24003821.7734                   24003821.0124
 -17615893.96147 -13120053.48445  20810193.4694                   20810190.3754
   3839731.09047   3729825.51645  21737943.6414                   21737942.9774
 11  7 28  3 15 30.0000000  0  7G02G05G10G29G04G12G25
 -30569146.12947 -23763778.14545  21004184.4534                   21004179.0824
 -14255598.22747 -11059044.76246  20188618.2034                   20188615.1954
 -15844268.82047 -12088151.98044  22076586.6724                   22076584.6684
  23728592.57846                  18993335.03543  23385579.8754   23385577.8054
 -31852052.98046 -24766271.07043  24002168.6884                   24002167.2194
 -17674877.27347 -13166014.50845  20798969.8364                   20798966.0704
   3712389.09047   3630598.00045  21713711.2504                   21713710.5234
 11  7 28  3 16  0.0000000  0  7G02G05G10G29G04G12G25
 -30626404.88347 -23808395.34045  20993288.8594                   20993283.0944
 -14360314.88347 -11140642.12946  20168691.7274                   20168687.9534
 -15850333.67247 -12092877.85244  22075432.2584                   22075430.1134
  23555304.79746                  18858305.63343  23352603.8754   23352601.7544
 -31860777.38746 -24773069.37143  24000508.5084                   24000507.0664
 -17733297.30947 -13211536.60545  20787852.5704                   20787848.9734
   3585607.79747   3531807.39545  21689585.8674                   21689584.5004
 11  7 28  3 16 30.0000000  0  7G02G05G10G29G04G12G25
 -29108100.98047 -22625301.37145  21282212.2974                   21282206.7584
 -12889020.47347  -9994178.92646  20448668.9694                   20448666.1914
 -14280593.55147 -10869703.73044  22374144.1414                   22374141.6254
  24957445.47746                  19950882.84443  23619422.9924   23619420.1334
 -30294117.29346 -23552295.28543  24298633.9064                   24298632.0554
 -16215732.28547 -12029018.40645  21076635.8134                   21076632.0164
   5034813.54747   4661058.63345  21965359.7584                   21965359.3484
 11  7 28  3 17  0.0000000  0  7G02G05G10G29G04G12G25
 -29165080.44547 -22669700.94545  21271369.2344                   21271364.2154
 -12992563.36747 -10074861.68446  20428965.2974                   20428962.5234
 -14285893.37147 -10873833.45744  22373135.7034                   22373133.3444
  24784162.77746                  19815857.43843  23586447.2974   23586446.0044
 -30302915.34846 -23559150.87543  24296959.7194                   24296958.0124
 -16273029.63747 -12073665.69545  21065732.5704                   21065728.9304
   4909157.39147   4563144.77045  21941449.0474                   21941448.0124
 11  7 28  3 17 30.0000000  0  7G02G05G10G29G04G12G25
 -29221923.37147 -22713994.11745  21260552.4924                   21260547.2814
 -13095521.35247 -10155088.66446  20409373.3054                   20409370.1914
 -14290816.67647 -10877669.79744  22372198.9924                   22372196.4304
  24610882.57046                  19680833.93843  23553472.9924   23553472.0514
 -30311752.61346 -23566037.03143  24295278.6564                   24295276.7424
 -16329769.29747 -12117878.40245  21054934.8444                   21054931.5514
   4784063.79747   4465669.25445  21917644.7814                   21917643.4184
 11  7 28  3 18  0.0000000  0  7G02G05G10G29G04G12G25
 -29278630.74247 -22758181.66445  21249761.3984                   21249756.2814
 -13197894.95747 -10234860.27346  20389892.5084                   20389889.5394
 -14295366.94547 -10881215.48044  22371332.9844                   22371330.1764
  24437605.34046                  19545812.80143  23520499.5004   23520497.8164
 -30320630.39146 -23572954.82843  24293588.9844                   24293587.1294
 -16385953.33647 -12161658.17645  21044243.9384                   21044240.3054
   4659533.44147   4368632.62545  21893946.7894                   21893945.7544
 11  7 28  3 18 30.0000000  0  7G02G05G10G29G04G12G25
 -29335200.41047 -22802261.91045  21238996.6414                   21238991.3714
 -13299681.33647 -10314174.30946  20370522.7114                   20370520.0044
 -14299544.31647 -10884470.56644  22370537.8754                   22370535.0634
  24264335.60546                  19410797.44943  23487528.1024   23487526.2664
 -30329545.93046 -23579902.05942  24291892.3444                   24291890.7344
 -16441580.02047 -12205003.64545  21033658.1884                   21033654.6024
   4535570.23447   4272037.93445  21870357.2034                   21870356.4694
 11  7 28  3 19  0.0000000  0  7G02G05G10G29G04G12G25
 -29391633.59047 -22846235.80545  21228258.1024                   21228252.3594
 -13400881.53147 -10393031.59046  20351265.4844                   20351262.4454
 -14303352.19547 -10887437.74644  22369813.0704                   22369810.3914
  24091074.15246                  19275788.60543  23454557.7894   23454555.4804
 -30338500.27346 -23586879.44143  24290188.4064                   24290187.5044
 -16496651.33647 -12247916.35945  21023178.4064                   21023174.7274
   4412174.72347   4175885.60545  21846875.8364                   21846875.0944
 11  7 28  3 19 30.0000000  0  7G02G05G10G29G04G12G25
 -29447933.20347 -22890105.61745  21217544.4384                   21217538.9884
 -13501497.40647 -10471433.53946  20332118.7034                   20332115.2424
 -14306795.31647 -10890120.70344  22369158.4774                   22369155.5164
  23917819.62146                  19140785.14843  23421588.3594   23421586.4304
 -30347496.27746 -23593889.38342  24288476.9064                   24288475.3984
 -16551171.14147 -12290399.30945  21012803.5864                   21012800.3594
   4289345.73447   4080174.73045  21823502.0394                   21823501.0474
 11  7 28  3 20  0.0000000  0  7G02G05G10G29G04G12G25
 -29504099.82047 -22933871.80545  21206855.8594                   21206850.5314
 -13601529.14147 -10549380.32446  20313083.0394                   20313080.0514
 -14309876.54347 -10892521.67244  22368571.8134                   22368569.1564
  23744573.67246                  19005788.35543  23388620.6804   23388618.9264
 -30356533.79746 -23600931.58243  24286756.3054                   24286755.8594
 -16605140.57447 -12332453.41045  21002533.6954                   21002530.5664
   4167084.54347   3984906.29745  21800237.0394                   21800235.6564
 11  7 28  3 20 30.0000000  0  7G02G05G10G29G04G12G25
 -29560132.85247 -22977533.90245  21196193.6884                   21196188.1094
 -13700975.71547 -10626871.13746  20294159.3134                   20294156.0904
 -14312597.73847 -10894642.09044  22368054.1884                   22368050.9144
  23571338.55546                  18870800.00443  23355655.4064   23355652.9884
 -30365612.44146 -23608005.92642  24285028.9844                   24285027.9454
 -16658559.96147 -12374078.90245  20992368.5474                   20992364.6954
   4045393.25447   3890081.93845  21777079.8134                   21777078.6334
 11  7 28  3 21  0.0000000  0  7G02G05G10G29G04G12G25
 -29616032.27047 -23021091.87945  21185556.2584                   21185550.6954
 -13799836.56247 -10703905.54346  20275346.5314                   20275343.5084
 -14314961.10546 -10896483.67244  22367604.0944                   22367601.7274
  23398116.27346                  18735821.64543  23322691.8754   23322689.8284
 -30374731.76646 -23615111.86742  24283292.6884                   24283292.7894
 -16711429.82447 -12415276.19545  20982307.4844                   20982303.8794
   3924273.68447   3795703.09045  21754031.5554                   21754030.4304
 11  7 28  3 21 30.0000000  0  7G02G05G10G29G04G12G25
 -29671797.97347 -23064545.67645  21174943.8134                   21174938.7894
 -13898111.28147 -10780483.22346  20256645.3674                   20256642.1374
 -14316968.71947 -10898048.06244  22367222.3594                   22367219.3244
  23224908.89146                  18600854.92243  23289731.2814   23289729.0704
 -30383891.20746 -23622249.09442  24281550.5864                   24281550.1764
 -16763751.10547 -12456046.03145  20972351.3444                   20972347.9454
   3803727.57847   3701771.08645  21731092.3134                   21731090.9144
 11  7 28  3 22  0.0000000  0  7G02G05G10G29G04G12G25
 -29727430.74647 -23107895.87945  21164357.3134                   21164352.3134
 -13995800.77347 -10856604.88346  20238056.3594                   20238052.5084
 -14318623.64147 -10899337.60544  22366907.6804                   22366903.9884
  23051717.76246                  18465900.83644  23256774.8364   23256771.9654
 -30393091.62146 -23629418.24642  24279799.8524                   24279799.5594
 -16815525.46947 -12496389.68045  20962498.6954                   20962495.4774
   3683755.55947   3608286.41045  21708262.3754                   21708261.3984
 11  7 28  3 22 30.0000000  0  7G02G05G10G29G04G12G25
 -29782934.04347 -23151145.19145  21153795.3984                   21153790.1724
 -14092907.04347 -10932272.09046  20219577.0234                   20219573.7774
 -14319931.28546 -10900356.57043  22366658.5554                   22366655.1994
  22878541.62946                  18330958.44144  23223820.5634   23223817.7504
 -30402335.77346 -23636621.48442  24278040.3594                   24278040.1884
 -16866757.43747 -12536310.70345  20952749.8754                   20952746.5784
   3564356.21547   3515247.98845  21685541.0164                   21685540.2624
 11  7 28  3 23  0.0000000  0  8G26G02G05G10G29G04G12G25
  37483878.31655  29282878.13352  24703025.8204                   24703024.2234
 -29838308.64847 -23194294.23045  21143258.5004                   21143252.5594
 -14189431.12147 -11007485.63346  20201209.5784                   20201205.9844
 -14320895.25446 -10901107.70343  22366475.9224                   22366471.0554
  22705380.94546                  18196028.08643  23190868.4304   23190865.8984
 -30411624.65646 -23643859.50442  24276273.7894                   24276272.2034
 -16917449.02047 -12575810.64545  20943103.4534                   20943100.0204
   3445529.75847   3422655.96945  21662929.3594                   21662928.6094
 11  7 28  3 23 30.0000000  0  8G26G02G05G10G29G04G12G25
  37299038.18446  29138846.88742  24667851.7584                   24667850.3874
 -29893557.58247 -23237345.35245  21132744.6804                   21132739.1724
 -14285375.99247 -11082247.85546  20182951.4144                   20182948.0904
 -14321520.66847 -10901595.02044  22366356.6174                   22366353.0704
  22532234.96946                  18061109.18843  23157920.0944   23157918.0204
 -30420960.94946 -23651134.55142  24274496.7424                   24274495.7934
 -16967604.01247 -12614892.45345  20933559.2584                   20933555.8714
   3327274.81347   3330509.27745  21640426.3444                   21640425.1884
 11  7 28  3 24  0.0000000  0  8G26G02G05G10G29G04G12G25
  37114083.21946  28994726.14842  24632655.3284                   24632654.8754
 -29948683.43447 -23280300.55945  21122254.9304                   21122249.7894
 -14380743.61747 -11156560.27746  20164803.9534                   20164800.3404
 -14321812.26647 -10901822.22344  22366301.3204                   22366297.8834
  22359103.45346                  17926201.54343  23124974.0634   23124971.8634
 -30430346.72746 -23658448.08242  24272711.0704                   24272709.6374
 -17017225.56647 -12653558.60945  20924116.4534                   20924113.0234
   3209590.36347   3238807.12945  21618031.6254                   21618030.8134
 11  7 28  3 24 30.0000000  0  8G26G02G05G10G29G04G12G25
  36929017.06646  28850518.86342  24597438.9144                   24597438.1484
 -30003685.93047 -23323159.64145  21111788.1484                   21111782.7854
 -14475533.50047 -11230422.50846  20146765.8754                   20146762.6134
 -14321772.19946 -10901791.00844  22366307.4144                   22366305.4694
  22185988.05146                  17791306.46943  23092031.1024   23092028.5394
 -30439781.73846 -23665799.99242  24270915.5164                   24270914.5554
 -17066314.99247 -12691810.10945  20914774.3524                   20914771.5984
   3092477.99647   3147550.75445  21595745.2274                   21595744.8914
 11  7 28  3 25  0.0000000  0  8G26G02G05G10G29G04G12G25
  36743842.82046  28706227.26642  24562201.1024                   24562199.8484
 -30058565.44947 -23365922.91045  21101344.8674                   21101339.6024
 -14569746.07047 -11303834.88346  20128837.4924                   20128834.3094
 -14321403.24246 -10901503.51244  22366377.3524                   22366376.1564
  22012890.15646                  17656425.03144  23059091.8444   23059089.1604
 -30449266.03546 -23673190.41042  24269109.9534                   24269109.0904
 -17114873.65247 -12729648.02745  20905534.4144                   20905531.5394
   2975938.77047   3056740.97745  21573569.2504                   21573568.0234
 11  7 28  3 25 30.0000000  0  8G26G02G05G10G29G04G12G25
  38133992.00845  29789460.49642  24826737.5704                   24826736.7894
 -28537898.38747 -22180987.53545  21390718.0004                   21390712.9494
 -13087956.27747 -10149193.47746  20410812.5314                   20410809.7074
 -12745285.96146  -9673360.18744  22666303.7344   22666301.6134   23415239.86346
  18749165.09044                  23325950.1484                   23325947.3134
 -28883377.42646 -22453017.50443  24567089.1254                   24567087.7424
 -15587479.10547 -11539470.46545  21196188.0234                   21196184.8714
   4435399.69147   4193983.26645  21851295.1644                   21851294.4024
 11  7 28  3 26  0.0000000  0  8G26G02G05G10G29G04G12G25
  37948615.21145  29645011.12542  24791461.3134                   24791461.7154
 -28592529.08647 -22223556.91845  21380322.3914                   21380316.9264
 -13181010.95347 -10221703.60246  20393105.0314                   20393101.9064
 -12744262.96547  -9672563.05943  22666498.6484   22666495.4064   23242186.62146
  18614318.44143                  23293019.3674                   23293017.2194
 -28892956.74246 -22460481.89543  24565266.2974                   24565264.9574
 -15634976.76647 -11576481.64545  21187149.6804                   21187146.1524
   4320013.71547   4104072.12545  21829338.6644                   21829336.7154
 11  7 28  3 26 30.0000000  0  8G26G02G05G10G29G04G12G25
  37763142.44545  29500486.98442  24756167.4064                   24756166.9924
 -28647035.52747 -22266029.46145  21369949.9224                   21369945.1454
 -13273486.26647 -10293762.27046  20375507.5234                   20375504.7344
 -12742916.57847  -9671513.91443  22666754.7584   22666751.6414   23069158.81546
  18479491.64244                  23260092.7814                   23260090.5314
 -28902582.82846 -22467982.72742  24563434.7034                   24563433.2114
 -15681945.14547 -11613080.37945  21178211.3914                   21178208.3834
   4205206.44147   4014611.93045  21807490.5314                   21807490.0354
 11  7 28  3 27  0.0000000  0  8G26G02G05G10G29G04G12G25
  37577577.22745  29355890.84442  24720854.2034                   24720855.5864
 -28701417.39547 -22308404.94145  21359601.1024                   21359596.2194
 -13365382.21547 -10365369.50046  20358020.2274                   20358016.8324
 -12741248.91446  -9670214.42644  22667072.0164   22667068.5784   22896158.21946
  18344686.03143                  23227172.2194                   23227169.7814
 -28912255.48846 -22475519.82043  24561593.5944                   24561592.3054
 -15728385.70747 -11649267.84045  21169374.8364                   21169371.4024
   4090979.21947   3925603.71145  21785754.1334                   21785753.2154
 11  7 28  3 27 30.0000000  0  8G26G02G05G10G29G04G12G25
  37391920.91045  29211223.72342  24685524.2194                   24685527.0164
 -28755676.79347 -22350684.99645  21349276.6024                   21349271.2584
 -13456700.85547 -10436526.85946  20340643.1564                   20340639.7194
 -12739264.81647  -9668668.36743  22667449.6564   22667446.4774   22723184.84846
  18209901.62944                  23194256.8444                   23194253.8914
 -28921976.77046 -22483094.77742  24559743.1174                   24559742.5164
 -15774302.04347 -11685046.80945  21160637.2664                   21160633.5704
   3977331.10247   3837046.75045  21764127.3914                   21764126.6764
 11  7 28  3 28  0.0000000  0  8G26G02G05G10G29G04G12G25
  37206180.02745  29066490.68042  24650179.9614                   24650180.8204
 -28809810.80947 -22392867.35245  21338974.8444                   21338969.7194
 -13547439.41447 -10507232.21946  20323375.6094                   20323372.3674
 -12736963.34047  -9666874.98043  22667887.5394   22667884.2384   22550243.64146
  18075142.32444                  23161345.7974                   23161343.7154
 -28931743.38746 -22490705.03942  24557886.3834                   24557884.1844
 -15819692.28947 -11720415.83245  21151999.6254                   21151996.3244
   3864266.23847   3748944.27345  21742612.5084                   21742610.9534
 11  7 28  3 28 30.0000000  0  8G26G02G05G10G29G04G12G25
  37020356.12945  28921693.02742  24614818.9774                   24614820.2504
 -28863821.51647 -22434953.61745  21328696.6174                   21328691.6994
 -13637599.51647 -10577486.82446  20306219.3364                   20306216.4454
 -12734348.80946  -9664837.68743  22668384.6024   22668381.4844   22377334.31346
  17940407.83644                  23128443.1334                   23128440.2234
 -28941557.02746 -22498351.99242  24556017.4304                   24556017.4774
 -15864559.53547 -11755377.32445  21143461.8984                   21143458.2464
   3751783.85947   3661295.68845  21721207.1094                   21721206.4104
 11  7 28  3 29  0.0000000  0  8G26G02G05G10G29G04G12G25
  36834451.32445  28776832.24642  24579442.2504                   24579443.0124
 -28917710.55147 -22476945.07445  21318442.6174                   21318437.0164
 -13727183.12547 -10647292.21946  20289171.7504                   20289168.4384
 -12731425.07846  -9662559.42644  22668941.5784   22668937.9614   22204457.44946
  17805698.65644                  23095545.6414                   23095543.5514
 -28951419.12546 -22506036.70742  24554141.2974                   24554140.3554
 -15908906.84447 -11789933.66445  21135022.6484                   21135019.2194
   3639883.53147   3574100.64145  21699913.3524                   21699912.7114
 11  7 28  3 29 30.0000000  0  8G26G02G05G10G29G04G12G25
  36648468.71146  28631910.78942  24544050.8284                   24544051.6804
 -28971478.13347 -22518841.89545  21308210.6804                   21308205.3404
 -13816190.25447 -10716648.40646  20272234.8524                   20272231.2774
 -12728194.82846  -9660042.37144  22669556.0634   22669553.1054   22031615.09046
  17671016.35544                  23062654.5394                   23062652.0904
 -28961329.52746 -22513759.07842  24552255.4064                   24552254.9384
 -15952735.67647 -11824086.00845  21126682.4534                   21126679.0594
   3528566.28947   3487359.95345  21678730.4454                   21678729.3134
 11  7 28  3 30  0.0000000  0  8G26G02G05G10G29G04G12G25
  36462412.25446  28486931.85542  24508645.5084                   24508645.6644
 -29025123.96947 -22560643.84445  21298002.4144                   21297996.6604
 -13904621.00847 -10785555.46146  20255406.8364                   20255403.1374
 -12724660.20346  -9657288.13343  22670228.6804   22670225.8134   21858809.15246
  17536362.46944                  23029770.9534                   23029767.9774
 -28971287.437 5                  24550358.594
 -15996047.12947 -11857835.18745  21118440.8134                   21118436.8134
   3417833.37547   3401074.59045  21657658.7114                   21657657.6054
 11  7 28  3 30 30.0000000  0  8G26G02G05G10G29G04G12G25
  36276284.50046  28341897.21142  24473227.4614                   24473226.3204
 -29078649.11347 -22602351.76245  21287816.4614                   21287811.4064
 -13992476.73847 -10854014.45746  20238688.3834                   20238685.0664
 -12720824.76247  -9654299.46944  22670958.7034   22670955.7774   21686040.62946
  17401737.71944                  22996892.9304                   22996891.8134
 -28981294.234 5                  24548455.477
 -16038843.64147 -11891183.12145  21110296.2664                   21110292.9844
   3307684.69947   3315244.47745  21636698.2894                   21636697.4024
 11  7 28  3 31  0.0000000  0  8G26G02G05G10G29G04G12G25
  36090088.51646  28196809.50842  24437794.9224                   24437795.6214
 -29132053.66447 -22643965.69945  21277654.2734                   21277648.7894
 -14079757.82447 -10922025.67646  20222079.0634                   20222075.9024
 -12716690.94546  -9651078.30544  22671744.8834   22671742.5904   21513311.27346
  17267143.48044                  22964024.2034                   22964022.0004
 -28991349.445 5                  24546543.383
 -16081126.77347 -11924131.02345  21102250.1174                   21102246.7814
   3198121.16847   3229870.31345  21615848.8284                   21615847.6604
